GFSSW_925_thetae_021.txt.gz
Theta_e
304 303 303 303 303 303 303 303 303 304 305 307 307 308 309 309 312 324 330 326 326 325 338 341 341 340 343 347 347 347 347 346 340 341 340 341 343 343 346 346 346 347 351 350 350
307 303 302 302 302 303 303 302 303 303 305 306 307 307 308 309 319 324 323 323 323 321 338 337 337 339 343 345 348 348 352 346 340 343 342 341 341 344 346 346 348 347 349 349 350
310 306 302 302 302 302 302 302 302 303 304 305 307 307 308 309 327 325 320 320 322 321 331 333 335 340 340 341 342 344 349 342 340 342 343 342 342 343 346 346 347 348 351 349 349
310 305 301 301 301 301 301 302 303 304 305 305 305 307 307 320 326 328 322 320 320 330 332 332 334 337 340 337 336 343 345 342 343 340 343 342 344 341 342 344 344 347 349 349 350
307 301 300 300 300 300 301 301 303 304 305 305 306 306 318 325 324 326 321 322 327 332 329 331 332 332 337 333 336 339 342 339 338 340 340 342 344 342 340 342 343 347 349 350 349
302 300 300 300 300 301 301 302 303 304 305 306 306 308 323 323 322 325 324 330 329 328 328 327 330 331 332 333 335 337 338 337 336 338 340 343 344 343 341 343 346 349 349 349 348
302 301 300 300 300 300 301 302 303 305 307 309 309 318 323 325 322 322 326 327 326 328 327 325 325 328 329 331 334 336 336 339 338 339 341 342 344 344 344 346 347 349 349 348 347
301 301 300 300 300 300 301 303 304 307 314 316 318 324 325 324 323 322 322 323 325 326 327 326 324 327 329 331 334 336 338 340 339 339 341 342 345 344 346 346 350 348 349 348 348
301 300 300 301 301 301 302 304 306 317 315 316 327 328 328 324 325 323 322 324 325 325 328 326 326 326 328 330 334 336 339 339 340 340 345 345 352 345 347 345 346 349 348 349 349
302 301 300 300 301 301 304 308 312 322 324 326 328 331 328 328 327 327 327 326 326 327 326 326 326 326 328 331 336 339 339 340 346 341 345 345 349 348 349 347 344 347 347 348 348
303 302 300 300 301 302 307 316 324 330 328 330 330 328 328 327 327 326 327 327 327 327 325 325 325 325 328 331 335 338 340 340 340 340 344 346 346 348 350 350 346 344 347 347 347
304 303 300 299 301 306 311 317 316 312 315 319 321 323 325 327 327 327 328 325 327 327 325 326 325 326 328 331 333 336 340 341 340 341 342 344 346 348 351 351 350 348 346 347 347
304 304 303 301 302 313 311 316 312 312 316 319 321 321 322 323 324 326 329 326 325 327 325 325 325 326 328 330 333 335 338 340 340 343 345 346 348 346 347 350 350 349 347 347 346
304 304 303 299 308 309 314 314 311 311 319 322 323 323 322 323 323 325 327 328 325 327 326 325 326 325 326 329 332 334 336 338 339 348 352 344 350 348 346 347 350 351 350 348 347
304 304 303 302 306 312 311 310 310 314 325 327 325 325 326 324 328 325 325 328 327 327 327 326 325 326 326 327 330 333 336 338 338 341 346 344 345 346 345 346 346 350 351 349 347
303 303 302 306 309 311 310 310 312 321 325 326 327 326 327 327 328 327 325 327 328 328 327 327 327 326 326 327 329 330 335 337 338 339 346 347 347 347 347 346 346 345 349 351 349
303 302 303 305 310 311 309 312 316 321 325 326 326 327 328 328 328 328 326 326 328 329 330 328 327 326 326 326 328 329 334 339 341 342 342 346 346 352 344 345 344 343 344 348 351
303 303 306 308 310 310 309 312 317 322 323 325 325 327 327 327 327 327 328 327 327 329 330 330 330 328 325 325 327 329 332 338 343 342 341 341 346 346 345 341 342 342 340 344 350
303 306 308 309 311 309 314 313 317 320 324 324 325 325 328 326 326 328 328 327 327 328 329 331 331 329 327 326 326 328 332 334 337 338 340 340 340 340 342 342 341 340 339 339 348
305 308 309 310 311 311 313 315 317 318 321 321 324 325 327 327 326 327 329 328 327 327 329 330 332 330 328 327 326 326 330 335 338 345 345 340 340 341 343 341 340 339 338 339 341
307 309 312 311 312 316 316 315 315 316 317 318 321 324 326 327 328 327 327 328 327 327 327 328 330 331 330 329 327 325 329 332 335 338 341 342 342 338 341 341 340 339 338 338 339
308 311 310 311 314 315 315 316 315 316 317 316 317 321 324 324 325 327 327 327 328 328 327 328 330 333 331 329 328 327 327 330 342 341 338 339 338 338 337 338 337 338 338 338 338
310 312 309 308 311 311 313 315 316 316 317 317 316 317 320 323 326 326 327 327 326 327 329 328 330 333 333 330 329 328 327 327 330 334 345 341 339 338 337 337 337 337 336 337 337
309 311 311 312 313 311 312 313 315 317 316 316 316 316 317 318 322 324 325 326 326 326 336 332 329 331 335 333 329 328 327 327 328 334 335 337 338 338 337 337 336 336 337 337 336
308 310 310 313 314 312 314 317 316 318 317 318 317 317 316 317 319 320 322 325 325 328 327 330 333 332 331 332 332 329 326 326 326 329 332 333 335 337 337 337 338 336 336 336 338
308 309 309 310 311 310 310 312 309 310 315 317 318 321 318 317 317 319 321 324 325 324 325 329 332 333 333 331 330 330 330 328 327 326 327 329 331 334 335 337 337 336 336 336 336
306 306 309 308 309 309 308 309 312 314 312 316 317 320 323 320 321 321 323 322 323 326 328 329 331 333 334 333 333 333 331 331 331 330 329 328 329 330 333 336 338 343 338 337 337

GFSSW_925_thetae_024.txt.gz
Theta_e
308 304 302 302 302 302 302 302 302 303 305 306 306 307 308 308 310 321 328 325 327 327 328 340 343 344 342 342 345 348 354 352 344 340 340 341 341 345 345 346 349 349 349 350 347
306 303 301 301 301 301 301 302 302 303 305 305 306 307 307 308 316 322 322 323 325 325 329 334 339 340 338 340 344 350 353 348 345 343 339 342 341 342 343 345 346 352 349 348 347
301 301 301 300 301 301 301 301 302 303 304 305 306 307 307 307 323 326 324 323 323 323 324 329 333 336 337 341 345 347 352 347 347 343 340 340 341 340 344 345 345 352 351 349 348
302 301 300 300 300 300 301 301 302 303 304 305 306 306 307 317 324 324 320 320 320 325 326 328 332 335 339 342 341 349 346 345 344 341 343 341 340 340 344 343 344 349 350 350 349
304 302 301 300 300 301 301 301 302 303 304 305 306 306 316 324 325 324 322 321 324 328 328 331 333 335 337 340 340 339 347 344 339 339 341 342 342 339 341 343 344 347 349 350 349
303 301 300 300 300 301 301 301 302 303 304 305 307 309 321 319 322 325 324 328 325 329 328 329 332 333 335 339 337 336 338 340 337 337 338 343 343 340 340 342 344 347 348 348 348
303 302 301 300 300 300 301 302 303 304 305 308 313 316 321 321 324 326 325 324 326 327 328 327 329 331 333 334 335 335 336 337 337 337 339 341 344 342 340 342 345 346 348 347 347
304 302 300 301 301 301 301 302 304 305 307 316 317 322 322 320 323 323 323 326 327 327 328 326 327 327 329 331 332 333 335 338 338 337 339 340 348 341 342 341 344 347 347 348 347
304 304 302 301 301 301 302 304 306 309 316 316 325 328 327 325 326 325 324 324 325 325 326 328 327 326 327 328 331 333 335 338 339 338 340 339 349 346 345 342 344 346 347 347 348
304 304 304 301 301 301 303 309 313 313 324 325 326 331 331 329 327 326 324 323 324 326 326 327 327 327 326 328 332 333 335 337 340 340 340 342 349 345 344 343 344 345 347 348 347
304 304 304 302 301 302 305 314 324 326 326 332 330 326 327 329 328 328 326 325 327 327 326 328 327 326 327 328 331 333 336 338 340 342 341 347 353 350 348 346 342 345 345 346 347
303 303 304 303 302 304 308 318 318 315 315 317 320 326 329 329 329 329 327 328 327 327 327 326 326 326 327 329 331 333 336 340 340 345 346 342 354 351 351 348 344 343 345 345 346
303 303 303 303 303 311 313 313 316 314 315 317 319 319 324 330 328 329 328 328 327 326 327 325 326 326 326 328 331 332 335 339 341 342 342 342 343 344 348 348 348 346 344 344 345
302 302 303 302 311 309 313 316 313 313 316 321 323 322 321 323 324 326 328 329 326 327 328 326 326 326 325 327 330 333 334 336 337 343 346 344 346 350 347 351 348 346 346 345 345
302 303 303 301 305 311 314 313 312 314 323 328 326 325 324 323 325 324 325 328 329 325 326 327 326 326 325 326 329 333 334 335 335 339 346 350 347 348 349 352 351 348 346 345 346
302 302 303 306 308 311 312 312 313 318 323 327 327 326 324 324 324 328 324 326 328 328 327 327 328 326 326 326 328 331 332 334 335 338 346 347 348 351 351 349 347 348 347 349 347
302 303 303 305 309 310 311 313 315 320 326 327 328 328 327 325 324 329 326 325 327 331 329 328 327 328 327 326 327 327 330 336 339 342 342 344 351 352 348 347 346 345 346 349 350
303 304 308 308 310 311 312 313 318 323 322 327 328 328 328 328 326 326 329 326 326 328 329 330 330 327 328 327 326 326 329 336 341 342 340 340 342 350 348 346 344 344 345 347 349
304 308 309 310 311 311 314 316 319 321 324 325 326 327 328 328 329 328 329 329 327 327 332 331 330 330 328 327 327 327 328 329 332 336 340 340 340 340 346 344 347 344 343 343 349
305 308 312 312 312 313 314 316 319 318 320 322 324 326 327 329 329 328 329 329 328 327 328 329 332 330 330 329 327 327 328 328 330 338 344 341 344 345 349 348 347 345 344 342 346
307 313 311 312 312 315 317 316 317 317 318 318 319 320 322 326 328 329 328 329 329 328 328 327 331 330 331 331 329 327 326 327 329 333 339 344 343 343 347 350 348 346 344 342 340
308 311 312 313 313 314 315 316 316 318 319 319 319 319 319 321 324 328 329 328 329 329 328 328 328 333 331 331 330 328 327 327 331 339 336 340 342 339 342 345 347 344 343 341 341
309 310 309 310 313 313 313 313 313 315 317 319 319 319 319 319 323 324 326 329 328 329 330 331 329 333 331 331 331 330 328 327 326 328 339 340 340 339 343 340 341 343 342 343 344
308 309 310 312 312 312 313 316 317 316 316 317 319 320 320 320 321 323 324 326 328 328 337 333 330 333 332 334 332 334 330 329 327 329 332 337 340 340 343 344 344 343 342 343 348
307 309 309 310 311 312 313 315 315 316 316 317 318 320 320 322 320 319 321 322 325 331 329 329 335 334 330 329 332 332 331 329 330 331 332 332 338 340 340 344 343 343 344 344 347
307 307 309 310 310 310 309 310 311 311 314 315 315 317 320 322 324 323 321 324 325 328 328 330 334 333 332 329 330 332 331 329 329 329 330 330 332 335 339 340 342 339 340 344 346
305 306 308 309 308 308 308 308 312 310 311 315 315 317 317 318 318 317 318 320 323 326 332 332 331 338 336 331 331 332 333 333 329 329 328 330 332 335 336 336 340 350 344 345 344

GFSSW_925_thetae_027.txt.gz
Theta_e
305 301 301 301 301 301 301 301 302 303 304 304 306 306 306 307 308 314 325 320 323 321 326 342 343 343 345 349 350 347 355 357 351 340 340 339 346 348 351 353 351 350 353 351 351
302 302 301 301 301 301 301 301 301 302 303 304 305 306 306 306 312 317 316 316 321 325 324 336 338 340 340 342 346 353 354 349 345 343 338 342 347 347 350 352 352 351 350 351 350
302 301 301 301 301 301 301 301 301 302 302 304 304 305 306 307 322 319 325 324 319 322 327 326 327 332 338 336 343 349 351 345 344 343 341 338 340 341 343 352 351 352 350 350 351
303 302 301 301 300 300 301 301 301 302 303 303 304 305 306 315 318 323 322 323 323 324 326 325 323 326 331 334 343 346 344 342 342 343 340 339 338 342 342 344 349 348 346 346 351
304 303 302 301 301 301 301 301 301 302 303 303 304 306 311 323 321 319 320 320 320 321 327 325 323 326 331 333 341 346 345 341 341 341 340 338 339 342 343 349 349 348 347 347 345
305 304 303 302 301 301 301 302 302 302 303 304 307 313 320 316 316 318 322 321 325 327 326 325 326 328 331 333 334 343 345 342 338 339 340 341 339 341 344 349 350 350 348 347 345
304 304 303 303 302 301 301 302 303 303 304 306 312 320 321 316 319 323 323 323 323 327 325 326 327 327 329 331 331 332 335 343 341 334 341 341 340 342 343 348 350 350 349 348 346
304 304 303 303 302 302 302 302 303 305 307 309 319 322 322 316 319 319 320 325 327 326 327 326 327 324 325 326 327 330 329 330 333 334 336 340 345 339 340 346 349 349 349 349 347
304 304 304 305 304 303 303 304 306 312 311 316 322 324 328 325 322 320 322 322 324 326 326 327 325 324 325 323 323 325 328 329 332 334 338 340 344 342 338 344 346 347 347 347 346
304 303 303 303 304 304 304 306 315 314 320 323 325 328 329 326 326 325 325 323 323 324 323 323 324 324 322 321 323 325 328 328 332 338 338 342 343 342 339 341 345 346 346 346 345
304 303 302 302 304 305 304 309 316 320 325 331 327 326 322 327 327 327 326 324 321 321 321 323 322 325 323 323 324 327 328 330 332 339 340 345 344 342 340 340 342 345 345 345 345
304 303 302 301 304 307 311 314 315 315 313 315 316 320 325 327 330 328 326 322 320 320 322 323 323 325 325 325 325 326 328 330 332 339 341 348 347 343 339 339 341 343 345 345 345
303 303 302 302 305 313 307 310 314 313 311 313 314 315 316 318 324 327 325 323 323 324 325 324 325 327 326 325 326 326 327 329 333 341 342 347 354 344 341 342 343 342 343 344 344
304 303 302 302 310 306 309 314 314 313 311 316 317 317 317 317 322 327 327 325 326 326 325 324 325 326 324 324 324 325 328 330 332 340 344 346 354 350 345 345 345 342 342 342 344
304 303 303 302 305 309 312 311 312 313 318 324 322 322 318 317 323 327 329 326 327 326 324 324 326 325 324 323 324 325 328 330 331 332 344 344 345 346 349 349 347 343 341 341 341
304 303 303 305 305 306 308 310 312 314 319 323 324 320 318 317 320 323 326 324 326 327 324 323 325 325 324 324 324 325 326 328 330 331 339 343 343 344 343 349 347 345 343 341 340
304 303 303 306 306 308 309 312 312 315 323 326 325 323 321 319 319 320 322 321 322 326 327 326 324 324 326 322 322 323 322 327 331 332 333 341 345 344 342 344 347 347 345 342 341
304 303 305 308 309 309 310 313 316 321 319 322 323 325 325 323 321 321 320 321 321 322 326 328 327 325 325 323 321 322 321 326 330 332 332 332 345 345 343 343 346 344 343 340 344
303 305 306 307 309 310 312 316 316 318 320 319 319 322 325 327 326 322 321 323 322 322 324 327 328 328 326 326 323 323 321 322 323 327 331 333 334 335 342 344 343 342 341 341 341
304 306 308 309 312 311 313 315 316 317 316 316 317 319 321 319 320 326 323 323 325 323 322 324 329 328 328 326 324 323 323 322 322 324 329 330 333 339 342 345 343 342 341 341 343
306 309 308 308 310 313 314 314 315 315 316 317 318 319 319 320 319 319 321 326 326 325 323 322 324 327 328 326 324 322 322 321 321 323 326 330 331 334 345 345 344 342 342 342 342
306 308 307 308 310 313 313 314 313 314 315 316 317 318 319 319 319 319 320 320 325 328 325 324 323 325 326 327 326 325 322 320 323 324 325 325 328 332 332 344 343 343 341 339 340
306 306 306 307 309 311 312 313 313 312 314 315 316 316 317 318 320 320 320 321 321 321 327 326 325 325 325 325 326 326 326 322 321 321 324 329 328 328 329 342 341 339 340 341 339
306 307 307 308 309 310 311 314 315 313 314 314 315 315 316 319 320 321 322 322 321 320 336 336 326 325 326 326 328 329 327 325 323 322 321 323 323 329 336 339 339 340 340 338 340
307 307 306 308 309 309 310 313 312 311 311 311 314 315 317 317 321 322 323 322 320 323 323 322 327 327 326 327 328 328 330 327 325 323 323 322 324 326 329 338 337 337 336 337 342
306 307 306 307 307 308 308 309 308 310 311 312 312 315 315 319 320 320 319 319 320 319 318 319 326 328 328 326 326 326 328 329 326 326 326 326 326 328 328 339 341 339 337 339 340
305 305 307 307 306 306 307 308 309 310 311 311 312 312 314 313 314 314 314 315 316 318 320 320 322 330 330 329 328 326 326 327 330 328 327 326 325 327 328 334 339 342 337 335 335

GFSSW_925_thetae_030.txt.gz
Theta_e
304 302 302 301 301 301 301 301 301 302 302 302 303 304 305 306 307 311 318 315 316 318 327 340 344 346 351 354 346 346 354 353 352 347 348 351 354 352 349 353 350 351 350 347 348
309 306 303 302 302 302 301 301 301 301 302 302 303 304 305 306 311 318 318 317 316 318 325 345 345 343 339 343 349 347 352 350 345 342 343 349 353 352 353 354 354 352 349 348 348
310 306 303 303 302 302 301 301 301 301 302 302 303 304 305 307 319 315 321 323 320 317 325 327 336 339 340 338 347 349 350 346 344 343 341 350 353 351 354 356 352 354 352 350 349
308 305 304 303 303 302 302 302 302 302 302 302 303 304 306 314 313 320 321 323 319 317 321 327 322 321 326 330 342 347 343 342 341 341 338 351 350 353 351 351 349 350 351 350 349
306 304 304 305 304 304 303 303 302 302 302 303 304 306 314 320 317 316 319 321 321 320 327 326 322 320 325 327 342 344 343 343 342 339 337 338 342 352 349 348 349 350 351 350 349
305 305 305 305 306 306 305 304 304 304 303 304 306 313 316 309 314 316 316 319 321 327 327 324 323 321 324 327 337 343 343 343 341 338 340 337 340 343 349 349 349 351 351 350 351
304 304 304 304 305 305 305 306 306 305 305 306 310 317 320 311 316 321 317 319 321 322 324 324 323 324 325 327 328 331 340 344 344 340 340 337 345 352 350 349 348 347 349 351 350
304 304 303 302 303 303 305 307 308 306 310 311 313 321 319 314 316 315 317 317 323 322 327 326 325 323 323 323 324 324 325 327 330 340 340 336 346 352 349 349 348 347 347 347 349
304 304 303 301 301 301 304 308 308 313 311 313 320 321 321 321 322 319 317 318 322 325 326 326 323 322 323 323 320 321 323 325 326 330 341 340 341 350 350 350 350 348 347 348 346
304 303 304 301 300 302 304 309 316 319 323 323 324 323 320 323 328 323 321 319 320 319 322 323 321 322 318 318 322 322 324 324 326 330 341 340 339 345 351 351 351 350 349 348 347
303 304 304 303 301 302 307 312 310 312 323 323 324 324 321 323 325 324 322 320 319 321 322 320 319 321 322 320 321 322 323 324 326 329 341 340 340 340 348 349 350 349 349 348 347
304 304 304 303 303 306 308 310 314 312 309 311 316 318 321 322 326 326 323 321 319 319 317 320 320 320 322 322 322 321 322 323 325 327 339 342 343 339 344 346 348 348 347 347 346
304 304 304 304 304 308 305 308 310 310 307 310 312 313 314 318 321 324 321 319 320 317 318 318 320 322 323 323 323 322 322 323 325 328 342 344 347 344 340 342 344 345 345 345 345
305 305 305 303 304 303 308 309 309 310 308 312 311 312 313 314 315 319 323 321 320 320 318 318 321 322 322 324 324 321 323 324 326 328 339 341 346 347 343 338 338 344 344 344 344
305 304 304 303 304 306 305 308 309 308 320 321 317 315 312 314 317 319 320 322 322 322 321 323 323 323 324 324 324 323 323 324 325 326 334 343 343 341 343 345 340 340 343 343 343
304 304 304 304 304 306 307 308 310 310 317 318 320 315 314 314 318 323 323 324 323 324 323 323 322 323 323 324 324 323 321 321 325 324 335 332 344 340 344 345 343 342 341 343 343
304 304 304 304 305 306 309 308 307 312 316 323 317 316 315 314 316 318 327 326 325 324 325 325 324 322 323 322 321 321 318 319 322 324 327 330 339 340 339 344 344 343 341 341 342
303 303 304 304 304 306 309 308 311 315 315 316 316 318 320 316 315 316 318 328 325 320 322 325 326 323 321 323 322 317 319 320 322 325 326 325 338 339 337 340 344 343 343 340 340
303 304 305 305 306 306 306 312 310 313 314 315 315 317 317 319 318 316 316 319 326 319 320 322 324 325 325 323 322 320 318 318 318 322 326 327 331 331 337 338 344 345 344 342 340
304 304 305 305 308 308 307 312 311 313 314 315 316 317 317 317 318 317 316 318 318 319 318 319 323 323 326 323 322 322 317 319 313 320 321 323 329 332 332 340 340 345 344 343 340
305 302 305 305 304 306 311 310 312 312 313 313 314 314 315 316 317 317 318 318 319 320 319 320 318 322 324 325 324 322 319 317 316 317 321 321 323 323 327 332 338 344 343 342 341
303 303 304 304 302 304 311 310 311 312 312 312 313 313 314 315 316 316 318 318 318 319 318 318 318 321 321 321 324 324 322 317 321 318 318 321 323 327 325 331 339 340 341 341 341
302 301 304 305 304 306 308 311 312 313 312 313 313 314 314 315 317 317 319 320 319 320 321 322 318 320 319 320 321 322 322 321 313 315 321 323 322 322 322 334 338 339 338 339 337
300 303 299 301 306 306 309 312 312 311 311 311 311 313 315 316 314 317 318 319 317 318 323 316 322 320 324 322 322 321 324 321 320 321 320 321 322 322 324 333 338 339 339 338 337
300 302 302 305 306 306 306 308 310 310 309 309 311 311 315 317 317 318 317 316 315 319 316 315 318 320 321 323 323 324 325 324 321 321 321 321 319 318 318 328 335 337 338 338 337
304 303 304 305 304 304 305 306 308 310 310 311 311 311 310 314 315 314 312 312 315 315 314 314 318 317 323 325 323 324 324 325 324 323 321 319 319 318 320 323 330 334 336 336 332
304 304 305 304 302 303 303 305 306 308 309 310 309 311 311 309 309 310 309 311 312 314 314 315 316 318 322 324 324 324 325 325 325 325 323 321 321 321 323 329 331 334 334 336 333

GFSSW_925_thetae_033.txt.gz
Theta_e
311 311 308 305 304 303 302 302 302 302 302 301 302 303 304 305 306 310 311 314 315 325 339 352 352 353 352 353 350 349 352 351 351 355 354 354 356 352 350 351 348 348 347 347 347
311 310 309 307 307 305 303 303 302 302 302 302 302 303 303 305 312 316 316 314 315 328 350 354 349 354 354 355 349 345 348 347 344 344 353 354 355 353 353 351 353 350 346 347 348
310 309 307 308 309 308 307 305 304 304 303 303 303 303 304 310 315 311 319 322 315 326 334 342 345 346 341 344 352 348 353 345 344 341 351 353 353 350 353 353 352 351 349 347 348
309 307 307 306 308 308 308 306 305 304 304 304 304 303 307 314 312 317 320 323 321 321 330 338 332 339 337 339 347 349 346 345 341 346 348 352 350 352 351 349 348 348 347 347 348
305 305 304 304 303 303 303 302 303 304 305 305 307 305 314 318 312 317 316 321 320 321 326 324 322 322 322 323 336 345 342 340 341 339 348 350 352 352 352 349 347 348 347 347 348
304 303 303 303 302 301 301 302 303 305 306 306 310 311 314 306 313 315 314 322 321 324 324 323 322 319 321 323 332 338 339 337 338 338 348 352 352 350 351 348 351 350 350 348 348
304 303 303 304 303 302 302 302 305 308 307 310 313 314 319 308 314 318 318 316 324 322 323 324 323 321 320 323 326 329 335 336 341 341 342 343 347 353 348 348 352 352 350 349 348
304 304 304 304 304 303 303 303 307 308 312 314 314 318 314 310 313 312 315 319 320 324 322 323 324 320 322 322 322 324 324 325 326 336 339 339 343 347 348 350 353 353 351 350 349
304 304 304 304 304 304 303 306 310 315 312 314 317 319 315 317 324 317 315 315 316 318 322 324 321 321 322 322 320 318 324 324 324 330 337 338 341 350 349 350 353 353 352 350 349
305 304 304 304 304 304 307 312 315 321 322 321 322 320 318 318 326 324 321 316 318 319 322 323 320 319 317 319 323 322 322 322 324 328 335 338 340 351 350 349 350 351 352 351 351
305 305 305 304 305 305 304 311 308 310 314 320 322 320 318 320 324 323 318 316 318 317 319 319 320 321 322 319 321 321 322 322 323 331 339 339 340 353 350 349 348 347 348 350 350
305 305 304 304 304 307 305 306 308 308 308 310 310 312 315 318 319 319 319 317 317 318 318 319 321 320 320 321 320 320 321 321 321 324 329 333 340 352 351 350 349 348 347 347 346
305 304 304 304 304 306 305 307 306 307 305 308 310 311 312 314 317 318 317 318 319 317 317 321 320 319 321 321 321 320 320 322 322 324 332 339 342 348 352 350 349 348 347 346 346
303 303 303 303 304 303 305 306 307 307 307 312 310 310 311 315 317 318 322 319 318 320 317 317 318 320 320 321 321 321 321 322 323 324 325 338 346 341 348 351 349 349 348 347 346
302 302 303 302 304 304 304 306 309 305 320 321 314 312 310 314 315 317 321 319 319 319 317 318 318 319 320 321 321 322 322 322 323 323 324 330 340 339 341 348 346 345 346 346 345
302 302 302 303 304 304 305 304 307 310 317 318 316 314 313 313 314 317 319 320 319 319 318 320 320 318 319 321 321 322 323 319 321 319 324 324 333 334 343 342 341 339 344 344 344
301 301 302 303 304 303 304 305 307 311 315 319 315 315 316 313 315 319 319 320 322 321 320 319 319 320 321 320 320 320 317 320 319 320 323 320 328 328 333 340 340 339 338 342 343
301 302 303 303 305 304 306 305 309 313 313 314 315 316 318 316 315 316 322 322 322 321 322 323 325 321 320 321 321 318 319 317 320 320 321 322 327 327 332 334 339 340 339 338 342
301 302 304 304 306 304 303 309 309 310 314 315 315 316 315 315 316 316 314 324 324 319 322 323 323 322 323 320 321 319 320 318 316 320 319 322 324 329 330 332 334 339 339 339 339
302 303 304 304 303 306 305 309 310 312 312 313 315 314 314 314 315 315 316 316 317 322 318 319 322 320 323 321 319 320 314 318 310 319 320 318 324 327 331 332 333 337 339 340 339
303 300 303 303 304 303 308 308 310 310 311 312 312 313 313 314 314 314 315 317 320 319 317 315 317 320 321 321 324 319 318 315 315 313 318 317 320 321 327 331 334 337 340 340 340
300 300 303 303 300 300 307 308 310 311 310 310 311 311 313 315 315 315 314 317 318 319 320 318 312 319 322 320 322 321 319 314 316 316 315 319 319 322 324 324 328 333 338 341 341
299 298 304 305 307 305 305 310 311 311 310 310 312 312 313 314 314 316 317 318 315 316 322 320 318 316 316 317 317 321 320 319 319 314 320 319 318 318 321 323 326 331 333 337 340
299 302 299 299 303 306 305 307 310 309 310 309 310 313 313 315 313 315 315 317 313 315 321 315 315 318 319 318 318 318 320 321 319 319 321 321 320 321 321 321 325 332 334 335 337
302 302 301 302 302 304 304 305 308 312 309 308 309 311 314 314 316 316 313 312 312 316 313 313 317 316 318 319 320 321 320 321 319 321 321 322 319 318 318 321 324 328 334 336 335
304 304 304 303 304 302 303 305 307 307 308 310 311 308 309 312 313 311 311 311 312 313 311 311 317 316 320 320 321 322 321 321 322 322 319 319 317 316 318 316 319 321 328 334 334
303 303 304 305 304 304 302 304 304 305 308 309 307 307 308 309 309 308 306 308 309 312 311 312 316 317 320 319 320 322 322 322 322 323 322 321 318 317 317 317 317 319 324 331 332

GFSSW_925_thetae_036.txt.gz
Theta_e
311 311 311 311 311 311 310 310 309 305 304 303 303 303 303 304 305 309 310 312 313 322 351 351 350 347 352 352 350 348 350 352 353 353 356 353 354 350 348 350 348 347 347 345 348
310 310 310 310 310 310 309 309 308 307 305 304 304 303 303 306 312 314 315 312 313 325 350 349 353 350 353 354 349 345 347 349 343 347 352 353 354 351 352 350 351 348 347 347 348
310 309 308 310 310 309 308 306 304 304 303 305 305 304 304 310 313 309 318 319 312 327 343 350 351 350 352 350 352 346 353 346 343 342 350 353 354 350 353 352 350 350 350 348 348
309 306 305 307 307 307 305 303 303 303 304 306 307 306 308 314 312 317 318 325 322 338 348 346 353 350 345 343 352 352 347 349 344 341 349 354 351 352 350 347 346 346 347 348 348
306 304 305 305 305 306 306 305 305 303 304 307 311 310 314 316 310 316 317 323 338 343 342 339 350 344 333 334 342 351 348 342 343 341 349 350 352 352 351 348 345 345 347 349 349
305 305 305 305 305 305 305 306 305 304 304 307 312 313 312 303 310 312 312 322 328 339 336 326 340 328 324 321 332 334 344 342 335 337 345 351 351 351 350 347 347 347 347 348 348
306 305 305 305 305 305 305 305 306 307 308 309 313 313 317 305 311 313 320 323 319 329 322 323 323 326 320 321 321 325 328 330 337 338 346 349 354 353 349 348 349 348 347 347 347
305 305 305 304 304 304 305 305 306 311 314 316 315 315 308 309 310 311 319 325 319 324 323 324 322 320 320 320 321 321 322 324 325 338 342 349 357 351 348 350 351 349 348 348 347
305 305 304 304 304 304 307 307 314 316 313 316 315 316 311 315 320 313 312 313 325 324 323 322 321 320 320 320 319 317 324 323 325 332 336 347 343 341 347 349 353 351 349 349 348
304 304 304 303 304 304 307 314 321 321 318 319 320 318 316 317 322 322 315 313 315 316 320 322 319 319 316 317 320 322 321 322 326 326 334 338 336 341 349 348 352 351 350 350 349
303 303 303 303 303 304 306 309 305 308 307 321 320 319 318 318 320 319 316 315 315 317 318 320 320 321 320 318 320 321 321 324 323 327 335 333 338 350 349 349 351 351 351 350 349
302 302 302 302 302 305 307 305 305 304 306 307 307 309 315 315 316 317 316 314 315 317 317 316 322 321 320 319 320 320 321 321 321 322 324 324 336 351 350 351 351 352 351 351 349
302 301 301 302 302 303 304 305 304 306 304 308 308 310 311 311 314 315 315 314 316 316 318 321 318 320 321 320 321 319 320 321 322 322 324 336 336 350 351 349 348 347 349 349 350
302 302 301 301 302 303 303 304 304 305 306 311 309 309 312 311 313 315 316 317 317 319 315 317 319 321 318 320 320 318 319 321 321 321 322 332 334 343 352 352 349 347 345 347 347
302 302 302 302 302 302 303 304 303 303 317 318 311 311 311 313 315 315 318 318 317 317 316 318 318 319 320 322 319 321 320 320 320 320 321 326 334 335 347 354 352 349 347 345 344
302 303 302 303 303 303 303 303 304 311 317 318 314 313 312 312 312 317 318 319 317 318 318 318 316 319 319 319 319 320 321 316 316 317 321 320 325 324 341 352 352 349 348 347 346
302 303 302 303 303 304 304 302 307 312 313 317 315 314 314 314 313 316 317 320 320 318 318 318 318 318 317 318 318 319 317 319 319 320 324 318 324 325 332 339 345 348 347 346 346
302 302 302 304 303 304 304 304 309 312 312 313 314 314 316 313 314 314 316 322 320 319 318 319 320 318 317 317 318 318 316 318 320 319 322 317 322 323 325 335 337 340 342 342 344
303 302 303 304 303 305 301 306 308 310 312 313 313 315 314 313 314 315 314 320 322 318 320 318 320 320 318 319 319 317 319 315 315 316 316 318 320 324 325 327 336 337 337 338 339
303 300 302 304 303 305 305 307 307 309 310 311 313 313 313 312 314 313 314 318 320 319 315 319 322 320 319 319 318 316 315 319 311 320 319 316 320 324 328 327 329 332 336 337 336
302 298 302 303 303 301 304 306 309 309 310 310 311 311 311 314 314 313 313 317 318 319 317 315 317 319 319 320 322 316 316 314 316 313 318 317 318 318 325 325 326 328 333 336 337
298 299 302 304 301 300 305 305 310 311 308 309 309 311 312 314 314 314 318 317 315 315 321 320 311 318 319 320 321 322 319 312 317 315 314 314 318 318 320 324 326 326 328 333 336
298 300 303 303 302 302 302 306 308 310 310 309 309 312 312 313 312 315 316 314 312 314 322 318 316 315 318 318 318 320 318 317 316 311 317 318 319 318 317 320 321 326 328 334 336
297 301 298 301 299 303 303 304 307 308 310 309 309 311 311 312 312 314 315 314 312 315 319 314 314 315 320 319 318 318 319 318 318 320 320 319 318 320 318 319 320 322 325 327 331
299 302 302 301 301 304 302 303 306 307 307 309 311 309 308 312 312 313 311 311 311 314 311 311 316 317 317 318 319 319 320 320 319 319 320 321 320 318 318 318 320 319 325 330 333
303 304 303 302 305 304 302 302 306 304 306 307 311 309 305 309 311 311 309 310 311 311 310 308 314 316 318 318 318 319 319 320 319 319 319 320 318 317 318 317 319 321 324 329 332
303 303 303 304 302 304 304 304 304 303 305 307 307 307 305 309 307 306 306 306 307 309 309 310 312 315 317 317 318 320 318 319 319 319 319 320 320 318 317 317 318 320 319 322 327

GFSSW_925_thetae_039.txt.gz
Theta_e
311 309 308 308 309 307 306 305 304 305 305 306 305 305 304 304 305 310 313 312 313 314 341 347 347 346 351 354 352 348 356 356 352 353 355 355 356 350 349 351 349 348 348 346 347
311 311 308 307 307 306 306 305 305 304 304 304 306 306 305 306 312 314 313 312 312 315 347 344 347 348 353 354 354 357 358 354 349 347 352 356 355 353 353 351 350 350 347 347 346
311 310 309 307 307 307 306 307 306 306 304 304 306 309 306 311 314 313 320 320 311 316 342 343 346 348 353 355 356 355 359 351 347 344 349 355 355 352 354 353 350 353 351 348 347
310 309 307 307 307 306 306 305 305 305 306 306 309 311 309 314 315 318 322 320 320 340 344 346 348 350 353 356 354 356 353 352 349 344 348 355 354 354 352 348 345 349 348 348 348
308 306 306 305 305 305 304 305 306 306 307 309 311 312 314 316 310 315 319 316 347 344 342 346 349 348 350 349 350 356 350 346 347 344 344 351 355 355 353 347 347 349 347 348 348
307 305 304 304 304 304 304 304 306 305 305 310 312 314 312 307 309 310 318 331 343 345 343 344 346 344 342 334 344 342 344 341 340 338 346 351 352 353 353 349 350 350 349 348 347
305 304 303 303 303 302 303 305 306 309 308 310 314 313 316 310 309 313 317 334 341 337 341 337 337 343 328 329 328 330 329 329 332 335 340 349 356 356 351 350 351 350 349 348 348
303 303 302 302 302 302 302 306 316 316 314 314 315 314 313 308 309 312 327 328 339 334 331 332 332 338 325 323 324 326 327 331 330 336 340 349 346 352 351 352 352 350 350 350 349
302 302 301 301 301 301 304 305 318 315 318 317 315 316 312 314 313 311 320 327 334 332 323 326 324 328 327 329 324 325 330 329 330 335 345 349 344 345 351 352 353 350 350 350 350
302 302 302 301 301 302 306 313 320 319 317 318 316 317 315 317 318 315 313 324 326 326 323 323 324 325 324 326 325 326 327 329 331 333 339 349 346 342 351 353 354 351 350 350 350
303 302 302 301 301 303 307 308 310 312 307 323 322 319 320 318 321 317 312 319 320 322 322 324 324 325 324 323 324 323 326 329 330 329 332 337 343 341 347 353 355 353 351 350 349
303 302 302 302 302 303 306 307 304 303 308 309 308 311 315 316 318 318 313 315 318 321 321 322 323 322 323 323 322 322 324 328 328 325 326 330 333 336 346 351 353 354 353 351 349
302 302 302 302 302 302 304 304 303 304 309 311 310 312 313 313 317 319 315 317 317 318 319 322 321 322 323 323 324 322 322 326 328 325 326 330 332 340 349 350 351 352 352 351 351
301 302 302 302 302 302 303 303 303 304 312 315 312 313 312 315 317 317 317 317 318 319 319 320 322 322 322 323 324 324 322 323 325 327 331 332 337 340 345 353 352 352 353 352 352
301 302 302 302 303 305 303 304 304 304 314 317 312 311 313 318 316 317 317 319 319 320 321 321 322 323 324 323 324 323 323 324 325 327 328 329 332 335 346 353 354 352 351 352 351
301 301 302 303 303 303 304 304 304 312 315 319 314 313 315 315 315 317 318 320 321 321 321 322 320 322 323 323 324 324 324 324 324 326 328 329 330 334 338 348 351 351 351 350 351
301 301 303 303 304 303 304 305 312 315 315 318 317 316 316 317 315 318 320 321 324 323 323 322 321 322 322 323 323 324 324 326 325 326 327 328 329 332 333 341 340 349 351 350 348
301 302 303 304 303 303 304 306 313 313 314 314 314 315 318 316 317 317 320 322 323 323 323 323 323 321 322 323 323 324 324 323 325 324 324 327 329 331 330 331 338 342 346 349 350
302 302 302 303 303 302 307 304 310 313 311 312 314 317 317 315 315 317 319 322 323 322 324 323 323 321 321 322 323 324 326 323 322 321 323 325 327 328 329 330 336 340 344 348 349
303 301 302 303 303 305 307 308 310 311 312 311 314 314 316 315 318 317 321 319 322 321 321 324 325 323 321 321 323 322 323 323 324 324 324 324 327 329 333 332 333 338 340 343 346
301 304 302 303 302 307 308 308 309 310 311 311 312 312 313 314 316 317 320 318 316 319 322 322 324 324 322 323 323 321 324 323 323 323 322 322 324 328 333 336 334 333 336 339 341
300 304 302 303 305 305 305 305 307 310 310 311 311 313 315 315 316 317 320 317 314 320 324 321 320 327 325 323 324 322 323 324 325 327 323 323 323 325 329 333 333 334 335 336 340
302 302 302 303 305 305 305 305 306 308 310 312 312 312 313 314 315 317 317 315 313 318 320 320 323 328 326 325 322 324 325 324 324 324 329 324 323 327 327 327 329 331 332 334 339
304 304 303 302 302 304 304 305 306 306 308 309 312 309 311 313 315 315 314 314 311 316 318 318 320 325 328 327 323 325 324 325 324 327 326 327 325 326 327 327 329 329 331 333 339
304 304 303 305 304 305 305 304 306 306 305 308 308 310 308 312 313 313 312 312 313 314 314 316 320 318 319 318 319 321 322 322 324 326 329 327 329 326 327 327 330 332 333 332 335
305 305 303 303 304 304 303 304 305 305 304 305 310 309 308 312 310 313 311 312 312 313 314 314 316 319 316 316 318 320 321 321 322 323 323 324 325 325 327 328 329 331 333 331 333
303 303 303 303 304 304 304 305 305 305 304 305 306 305 307 308 306 306 307 308 309 311 312 313 315 316 317 316 318 321 321 321 322 322 323 325 325 325 326 327 329 333 334 335 335

GFSSW_925_thetae_042.txt.gz
Theta_e
312 312 311 311 311 310 309 308 307 306 307 306 306 306 307 306 305 319 317 315 316 315 341 340 346 349 350 353 353 350 356 353 351 351 355 355 357 352 349 352 351 350 351 351 349
311 311 309 307 307 308 309 310 307 306 307 308 307 306 307 306 316 316 315 314 313 315 333 340 344 347 351 351 355 353 356 351 348 348 352 356 355 354 352 353 352 352 349 349 348
310 307 305 305 305 306 306 306 308 309 310 310 311 308 307 308 318 318 316 318 311 316 328 336 337 344 346 348 352 349 354 349 346 346 349 355 356 353 352 353 352 354 352 350 349
307 304 303 303 303 304 304 304 305 307 308 309 312 310 307 317 318 321 319 326 311 325 329 336 340 345 344 349 348 351 347 350 347 344 346 353 354 355 352 349 348 351 350 350 350
305 304 303 302 302 302 302 302 303 306 306 309 312 312 317 319 315 321 318 315 324 329 332 337 342 341 342 343 344 350 345 346 346 344 343 348 353 353 354 348 347 350 350 351 350
303 302 302 302 302 302 302 303 304 306 314 312 312 313 316 316 314 313 323 330 332 332 331 335 339 338 338 341 343 342 344 343 342 343 340 347 350 353 353 350 350 351 351 350 350
303 302 302 302 302 301 302 303 306 315 317 316 314 315 318 319 312 313 322 331 334 333 332 332 335 339 336 339 333 340 339 334 334 338 338 345 350 354 353 353 353 352 351 350 350
302 302 302 301 302 301 302 305 313 316 317 314 315 316 321 316 315 319 321 327 334 333 331 331 332 338 334 330 329 332 332 335 337 337 337 343 348 352 353 355 355 353 351 350 350
302 302 302 301 302 302 303 308 319 319 316 316 318 319 322 313 313 314 325 328 334 333 331 332 332 335 336 332 329 330 334 335 339 336 339 344 346 346 353 354 356 355 352 350 350
301 301 301 301 302 302 305 313 318 319 319 320 318 320 319 320 318 313 322 325 333 334 330 333 331 331 333 335 333 332 333 335 339 337 339 346 345 343 350 352 355 355 353 352 350
301 301 301 301 302 302 307 311 317 321 312 324 328 323 322 320 319 314 319 328 334 330 325 326 326 327 325 329 330 331 332 334 337 336 338 341 343 344 344 350 351 354 354 353 351
301 301 301 301 302 303 308 310 307 305 310 312 313 317 323 321 324 319 319 324 328 328 324 324 326 325 326 324 327 328 329 332 335 334 334 337 339 340 340 346 349 353 354 354 352
301 301 301 302 303 307 307 307 306 306 311 315 315 316 316 319 322 323 318 321 325 326 324 325 325 324 325 326 327 327 329 331 333 334 332 334 337 337 337 340 345 348 352 352 352
301 301 302 303 306 307 307 306 307 307 315 317 316 317 317 320 321 323 316 321 322 325 324 325 324 324 324 325 326 327 326 327 329 332 337 334 341 341 340 342 346 347 351 353 352
301 301 302 303 307 308 306 306 306 308 316 319 317 315 317 321 324 322 320 318 321 321 325 325 324 324 324 324 324 324 325 326 326 329 331 334 336 338 339 340 346 348 349 352 352
301 302 302 307 307 306 305 306 308 315 315 321 315 316 317 319 322 322 323 319 320 321 322 323 323 324 324 324 324 324 324 325 326 327 331 333 335 337 338 341 341 346 348 351 351
301 303 305 305 307 305 305 309 311 313 316 320 320 319 319 320 321 321 323 323 326 324 323 323 324 323 324 325 325 324 325 327 327 328 330 331 333 335 335 336 339 342 346 349 352
302 304 305 305 305 305 306 310 310 314 317 316 316 317 320 321 320 320 323 325 325 326 326 326 325 324 324 325 326 325 326 326 328 327 327 329 331 333 333 334 335 338 340 347 350
303 305 305 305 305 306 309 308 308 315 314 314 316 319 322 320 320 320 322 325 325 327 329 328 328 325 325 325 326 327 328 325 325 327 327 327 328 329 331 333 334 334 337 340 348
305 305 305 304 305 308 309 307 310 310 311 313 316 317 321 320 321 321 322 322 325 325 327 329 331 326 324 325 325 327 326 325 326 327 328 325 328 329 331 332 334 334 336 339 343
306 307 305 304 306 308 307 307 307 308 309 312 314 315 317 318 319 322 324 320 321 325 324 327 328 329 325 326 326 326 327 326 326 326 328 328 328 329 330 333 332 334 337 340 343
306 306 304 304 307 307 307 307 306 307 308 311 312 311 315 317 319 321 324 321 317 321 326 326 328 331 327 325 326 326 326 327 327 330 327 328 327 326 328 329 333 334 336 338 340
307 306 304 304 306 307 306 306 306 307 308 310 313 313 313 316 319 319 320 317 315 321 325 326 327 331 331 327 326 326 326 326 326 327 331 329 326 328 329 329 332 333 334 336 338
307 307 306 306 305 306 306 307 306 306 307 307 310 312 313 313 315 318 317 316 315 316 318 320 328 330 333 331 328 328 327 326 326 330 328 330 329 328 328 328 330 331 331 332 335
306 306 305 307 306 305 305 305 305 306 306 306 310 310 312 314 313 314 315 315 315 315 317 319 328 328 330 325 325 329 327 327 328 328 330 329 330 330 329 329 329 331 330 332 335
306 306 305 306 305 305 304 306 306 306 305 306 310 307 308 313 314 314 313 314 315 315 316 317 325 324 327 324 323 324 326 327 328 329 329 329 330 330 329 330 330 330 330 330 330
305 305 307 305 305 305 305 304 304 304 305 305 305 306 307 308 309 309 310 311 312 313 315 315 319 322 327 325 324 326 326 327 327 328 329 331 330 329 330 329 330 331 331 331 332

GFSSW_925_thetae_045.txt.gz
Theta_e
312 311 309 309 310 310 308 309 309 309 308 309 308 308 307 308 308 318 319 318 319 317 331 333 340 348 348 350 351 351 355 360 353 356 350 348 346 347 349 353 353 352 355 353 352
310 309 307 306 306 306 305 307 306 307 309 310 309 308 307 308 317 318 317 318 317 316 334 334 343 346 350 349 350 353 354 360 349 352 350 350 348 346 349 352 353 353 354 351 351
305 303 303 302 302 303 305 306 305 304 306 308 307 306 308 310 322 321 318 317 316 316 325 332 336 343 346 346 348 350 351 354 345 346 348 349 352 348 345 352 351 355 356 352 351
304 303 302 302 302 302 302 303 303 304 305 306 309 306 307 318 322 331 319 319 316 318 324 329 336 341 344 346 346 349 347 348 346 345 346 349 351 351 349 345 349 351 353 352 352
302 302 302 301 301 301 302 302 303 304 306 308 313 310 316 322 320 325 318 323 323 319 324 328 335 338 342 342 345 347 346 345 349 346 344 348 351 352 350 345 347 350 352 352 352
301 301 301 301 301 301 302 302 304 308 312 317 316 314 318 324 322 319 321 325 321 324 325 329 333 336 340 341 343 343 345 344 346 345 343 346 349 350 351 348 348 350 352 352 351
300 300 301 301 301 302 302 302 307 314 319 317 318 315 321 325 320 316 322 325 326 328 328 329 331 336 339 340 340 342 343 344 345 345 344 343 348 350 351 351 351 352 351 351 351
301 301 301 301 301 302 302 305 311 319 318 315 316 317 325 324 323 318 319 327 330 331 330 329 331 335 337 338 339 342 343 346 343 340 342 343 348 347 352 354 354 353 351 350 350
301 301 301 301 302 302 302 307 317 317 317 316 320 322 329 320 320 322 319 324 332 332 332 330 331 335 336 339 339 336 339 343 342 340 341 341 348 348 351 353 355 354 353 350 350
301 301 301 301 302 303 305 309 313 318 321 322 324 324 324 325 323 319 321 323 330 334 334 334 334 336 337 340 338 336 335 338 340 341 341 342 344 350 351 352 353 355 354 352 349
301 301 301 301 302 306 308 312 317 325 322 326 328 325 327 325 321 319 323 326 330 335 336 335 336 337 332 338 337 334 334 335 338 340 340 343 344 346 349 350 349 353 355 353 350
301 301 301 302 305 308 310 312 311 309 312 313 314 315 321 325 326 321 322 327 333 337 335 333 337 332 331 331 335 335 334 335 335 338 340 342 345 345 345 348 349 350 354 353 352
301 301 302 302 306 309 310 309 309 309 312 313 315 316 317 323 327 326 322 327 332 336 332 329 331 330 327 328 331 335 335 334 334 336 340 340 343 342 343 343 347 346 353 352 353
301 302 302 303 307 309 310 307 309 309 314 316 318 318 318 319 325 327 320 327 332 337 331 327 327 327 326 327 327 327 330 332 333 336 342 338 344 342 341 342 343 345 350 353 353
301 302 302 306 309 311 308 307 308 311 316 320 319 319 320 319 324 326 322 325 326 328 332 328 326 326 327 327 327 327 328 330 332 334 337 339 342 341 341 342 341 343 344 350 352
302 303 304 307 308 308 307 307 310 315 316 321 319 320 320 320 323 326 326 322 326 326 328 329 327 327 327 327 327 327 327 328 329 331 335 337 341 342 340 342 342 343 344 345 351
302 304 306 306 308 306 307 310 311 311 317 322 321 322 321 323 322 326 327 322 324 326 327 327 328 327 327 327 327 326 326 327 329 331 333 333 337 339 338 338 340 341 344 345 349
303 306 308 307 306 306 308 311 310 310 316 317 317 318 320 323 324 325 327 329 323 324 327 327 328 328 326 327 327 327 326 327 331 329 330 332 335 336 336 336 337 340 341 344 347
306 308 308 306 306 307 311 310 309 313 313 313 314 320 321 323 324 325 325 327 326 324 327 329 330 328 327 326 328 328 329 327 328 329 329 329 331 332 334 335 336 337 339 343 346
307 309 309 305 306 309 312 310 309 309 309 310 312 317 322 323 324 325 326 326 327 326 327 330 332 330 327 327 327 329 328 327 328 331 331 330 331 332 333 333 335 336 339 340 344
309 310 308 305 307 311 308 308 308 307 308 309 310 312 316 318 321 325 326 325 325 328 328 330 333 334 331 328 328 328 330 328 328 328 330 332 331 332 333 334 333 335 336 337 340
309 311 308 306 309 308 307 307 306 307 308 308 310 312 312 316 320 323 325 325 319 323 329 329 331 335 332 329 328 328 329 330 333 334 329 331 332 331 332 331 333 334 336 337 339
311 311 308 307 309 308 307 306 307 309 307 308 309 312 314 316 321 322 324 321 318 323 328 329 331 335 336 331 329 329 329 329 330 329 333 330 332 332 331 331 333 334 335 338 340
311 311 310 309 308 307 307 307 306 307 306 307 309 310 312 313 314 319 322 319 318 319 320 324 330 334 337 335 330 330 330 329 330 333 331 332 331 331 331 331 335 335 335 337 340
309 310 309 310 310 308 307 307 307 308 307 307 309 310 310 313 314 317 319 319 319 319 322 324 332 332 333 334 332 330 329 330 330 331 332 332 333 333 332 332 333 334 335 335 337
309 309 307 309 309 307 307 308 306 306 306 307 308 307 309 311 313 313 316 317 318 319 320 323 327 331 334 332 331 331 331 329 330 330 330 331 332 333 332 332 332 332 333 332 333
305 305 308 308 308 309 308 308 307 307 306 307 307 307 307 309 309 311 312 312 313 315 316 320 325 331 335 333 331 332 331 332 331 330 330 331 332 332 333 332 332 333 333 333 333

GFSSW_925_thetae_048.txt.gz
Theta_e
306 305 303 303 303 304 305 307 306 305 303 305 309 310 307 307 309 317 318 316 318 318 315 332 327 337 348 353 350 350 360 363 357 352 347 347 349 351 350 355 356 356 354 353 350
305 303 302 303 303 303 304 303 307 307 304 304 306 307 307 309 317 318 317 318 317 318 319 328 329 335 348 350 348 352 357 356 351 350 350 349 344 348 350 352 356 357 354 350 351
303 301 301 301 302 302 302 303 304 303 303 303 305 306 307 311 322 322 322 318 317 319 319 328 330 337 347 347 347 349 354 349 350 348 348 352 351 347 349 350 358 360 356 352 351
301 300 300 301 301 301 301 302 302 302 305 307 307 307 308 318 325 325 318 319 318 319 319 325 331 339 346 347 346 348 350 349 348 348 347 353 351 345 348 348 353 354 354 352 352
301 301 301 301 301 301 301 302 302 305 307 310 312 315 316 321 322 323 322 318 322 318 320 325 331 335 342 344 344 346 347 349 348 346 349 349 352 347 345 347 351 353 353 353 352
301 301 301 301 301 302 302 302 302 308 313 319 318 317 318 325 325 325 323 329 322 319 320 325 327 334 339 341 342 344 345 346 347 348 346 350 353 347 345 345 350 353 353 353 351
301 301 301 301 301 302 302 302 303 308 317 318 319 317 319 323 326 321 323 326 326 323 321 324 324 332 335 339 340 340 343 345 345 345 346 342 350 351 347 347 348 352 352 351 353
301 301 301 301 301 302 303 306 308 308 316 318 321 319 322 326 325 325 318 321 324 324 322 325 325 330 333 337 341 342 342 345 345 345 345 344 346 352 349 350 350 350 351 351 350
301 301 301 301 301 305 308 310 310 311 319 317 320 320 327 326 326 326 322 323 326 327 327 327 329 330 333 337 341 341 343 344 344 344 344 344 343 350 349 348 353 351 350 351 351
301 301 301 302 302 308 310 312 312 315 321 321 323 327 325 327 327 326 325 321 328 331 332 332 331 331 334 336 344 341 342 341 343 344 342 342 342 348 346 349 352 353 351 351 351
301 301 301 302 302 308 308 312 312 323 314 320 327 324 325 328 325 324 325 322 325 334 334 334 333 333 334 335 336 339 340 337 338 341 341 341 345 348 349 352 351 352 354 350 350
301 301 302 301 303 310 310 312 310 310 312 312 314 315 318 323 324 325 323 324 324 332 335 335 336 333 332 334 336 338 337 336 335 337 341 342 343 352 352 351 351 355 355 354 350
302 302 302 302 306 311 312 310 309 310 311 311 313 314 315 317 321 328 323 324 325 329 336 336 336 334 333 334 333 337 338 336 335 335 341 342 343 346 353 351 347 348 355 353 353
302 302 302 302 308 311 311 308 308 309 311 313 316 317 315 316 320 327 323 327 329 330 333 336 334 333 334 333 332 333 337 337 335 335 337 342 346 348 345 347 351 351 353 352 353
302 302 304 304 308 312 308 308 308 311 316 320 320 320 319 316 321 321 327 324 330 331 334 337 335 332 334 332 330 330 331 334 335 335 335 336 344 343 347 346 343 348 347 352 351
302 303 305 309 310 310 307 308 309 312 313 320 322 322 321 319 318 322 325 325 327 331 333 334 334 330 328 330 327 328 328 329 332 334 337 336 342 343 344 346 342 344 343 352 351
302 304 306 308 310 308 308 310 310 311 313 315 316 317 318 322 321 320 326 327 326 331 335 335 336 329 328 328 327 327 327 329 330 333 336 334 338 342 342 343 342 343 343 345 352
303 307 309 310 308 307 308 310 310 310 312 313 313 313 317 320 322 322 322 329 324 327 330 330 336 333 328 328 328 327 327 330 333 332 330 333 337 339 340 340 342 342 343 344 347
305 310 312 310 308 307 311 312 310 310 310 310 310 313 316 318 320 324 324 327 328 325 332 332 331 331 330 328 329 327 328 328 328 328 329 330 332 333 336 337 339 338 343 345 345
307 310 312 310 308 309 312 311 309 310 309 308 308 310 311 313 315 320 324 325 328 325 326 329 331 329 330 329 328 329 328 327 328 332 334 331 336 336 337 339 338 337 338 342 346
310 313 311 309 309 311 312 309 309 308 308 308 308 308 308 313 315 317 323 326 325 328 327 325 329 330 331 331 329 328 330 328 327 328 331 333 332 335 339 338 339 338 339 339 345
309 315 312 309 310 310 310 309 307 307 309 309 310 307 309 314 318 320 324 325 325 322 327 329 326 331 332 330 329 328 329 331 333 335 331 334 333 334 334 337 336 337 339 339 342
310 313 311 310 311 310 309 309 308 307 308 309 308 307 309 311 315 319 320 321 320 322 324 326 331 332 333 334 330 331 329 328 330 328 336 332 332 333 333 335 337 337 337 342 345
311 313 312 311 311 311 311 309 307 309 309 308 310 309 309 310 311 315 318 318 318 321 328 323 329 334 336 336 335 333 330 329 329 334 332 334 333 333 332 331 334 338 338 341 344
309 312 310 312 311 310 310 308 308 309 309 309 307 309 308 310 310 313 314 315 316 322 322 326 332 332 332 333 334 330 330 330 331 333 333 333 335 335 334 334 336 339 341 341 345
308 310 308 310 309 310 310 310 310 308 307 307 307 309 309 308 310 311 312 313 317 316 318 322 330 332 334 333 334 335 330 330 330 330 331 332 334 336 336 337 340 340 339 342 343
307 305 306 308 309 309 311 310 310 309 308 307 308 307 307 307 309 309 309 310 313 315 316 320 325 330 334 334 334 336 334 331 331 331 331 334 336 337 337 338 339 340 337 338 335

GFSSW_925_thetae_051.txt.gz
Theta_e
306 306 303 304 303 302 303 306 307 303 302 303 303 304 307 308 308 316 318 312 313 315 323 333 329 331 346 353 354 354 358 362 356 355 354 350 355 355 354 356 355 353 352 345 342
308 304 303 303 305 304 304 304 305 306 302 303 305 305 306 309 314 317 316 314 313 318 318 319 330 326 333 352 353 357 358 360 350 349 352 349 350 350 358 358 357 355 350 344 343
302 301 301 301 302 302 302 302 304 304 302 306 307 310 310 311 320 321 322 320 314 316 318 319 320 326 330 342 349 351 354 354 348 348 348 348 347 349 355 361 357 356 352 347 346
301 301 300 301 301 301 301 302 303 302 304 309 313 313 313 316 325 322 320 319 318 317 322 320 319 327 329 339 345 349 347 347 348 346 345 345 349 350 350 359 354 352 350 349 351
301 301 301 301 301 301 301 302 303 304 305 314 319 316 315 318 319 322 322 321 320 319 322 318 320 327 330 338 345 346 345 347 346 346 343 347 348 350 356 357 353 351 351 351 351
302 301 301 301 301 301 302 305 306 307 307 316 321 318 316 320 321 324 327 320 322 324 320 319 322 325 331 337 343 343 343 345 346 348 348 349 347 347 357 355 354 352 352 351 350
302 301 301 301 301 301 305 308 309 309 310 313 322 318 318 315 321 325 325 325 323 322 318 319 322 323 329 333 335 340 341 341 348 349 350 349 351 354 352 355 356 354 353 351 350
301 301 301 301 301 304 308 309 310 312 311 317 320 320 321 317 321 323 323 327 322 320 319 319 320 322 322 330 335 337 339 342 340 347 349 351 356 351 351 354 355 355 354 353 350
302 302 302 302 301 303 308 310 311 312 312 318 320 321 322 323 322 323 325 323 326 325 321 321 320 321 322 328 332 334 341 341 341 342 344 350 355 350 348 352 353 353 354 352 352
302 302 302 302 301 304 307 310 311 321 322 321 322 323 323 322 326 326 325 325 321 323 324 322 321 323 323 327 332 335 340 339 340 341 343 344 353 350 350 350 354 354 351 350 352
302 302 302 302 302 307 308 310 308 313 310 308 310 319 312 320 319 327 326 325 320 324 326 326 327 327 326 327 330 335 339 339 338 339 341 343 351 351 351 347 350 354 349 350 348
302 302 302 302 302 308 311 309 308 308 307 309 310 311 312 313 315 320 326 326 320 325 329 331 332 330 329 329 330 334 336 338 338 337 338 342 349 352 351 351 351 354 350 347 348
302 302 303 303 304 310 310 308 308 308 307 309 309 310 311 311 313 316 320 325 321 322 332 332 333 332 330 329 331 332 334 335 337 335 333 337 350 349 346 349 347 350 346 345 348
302 303 303 304 308 307 312 310 308 308 308 312 314 314 315 312 313 316 319 323 325 321 326 334 332 333 333 331 330 333 333 335 337 336 334 336 343 352 349 352 349 348 347 348 347
304 305 305 305 308 310 311 310 308 309 312 315 314 316 313 312 313 315 318 321 324 323 323 328 335 334 333 333 331 333 331 333 335 336 334 335 340 347 353 354 351 349 347 345 347
304 305 306 307 308 310 309 308 308 309 313 311 312 312 311 312 316 319 318 320 322 324 325 326 331 333 333 333 333 332 331 329 331 334 335 333 337 340 351 354 352 345 345 346 348
302 305 307 307 309 309 309 308 309 310 311 311 310 310 309 311 314 315 317 319 325 323 327 329 329 332 333 333 331 330 329 328 329 332 333 329 331 331 339 343 348 348 347 349 350
302 309 310 311 311 310 308 308 312 310 310 310 309 308 309 311 312 312 313 320 323 323 326 329 333 331 333 330 329 330 326 324 326 328 329 326 330 331 333 336 341 344 349 350 350
302 309 311 312 312 310 308 311 310 309 309 308 307 307 307 308 310 311 314 317 323 326 323 328 329 333 332 331 326 326 325 323 323 327 326 325 326 327 328 331 336 338 340 350 350
306 310 312 312 310 309 309 312 311 309 307 307 307 308 309 309 310 310 315 316 321 323 320 323 324 329 332 333 328 324 324 323 323 325 327 327 326 328 327 328 330 332 338 342 349
307 311 313 312 310 310 310 311 309 308 307 309 309 308 308 308 313 313 314 314 319 319 318 321 323 323 327 333 333 324 325 323 322 322 325 329 329 328 328 329 330 331 335 339 349
307 311 311 312 311 311 310 310 308 308 308 308 308 308 309 309 310 312 312 314 316 316 318 319 323 324 324 326 330 326 325 324 325 323 323 323 327 332 331 330 331 332 332 337 344
308 310 311 310 311 311 311 310 310 308 308 308 306 308 308 309 314 314 315 314 314 315 316 319 324 327 324 324 324 328 326 325 323 324 325 325 326 331 329 331 331 333 331 333 339
309 310 311 310 309 310 310 311 311 309 309 309 308 308 310 308 309 312 312 312 312 313 318 319 321 324 329 325 326 329 328 325 324 326 325 327 328 330 330 332 333 332 332 334 339
308 310 309 309 309 309 309 310 312 311 310 308 309 308 309 310 308 311 311 310 310 313 314 315 319 325 329 329 330 331 328 327 325 325 327 325 333 334 332 335 339 335 335 339 339
308 309 306 307 308 309 309 310 311 310 309 309 309 307 308 309 308 309 309 310 311 312 312 312 318 322 333 331 330 333 330 328 327 326 326 327 327 332 335 336 336 335 338 343 342
307 306 305 307 307 308 310 310 312 310 310 309 310 308 308 307 308 307 307 307 309 313 312 312 315 320 333 333 333 336 333 328 328 328 327 328 328 334 337 338 336 336 334 334 339

GFSSW_925_thetae_054.txt.gz
Theta_e
307 303 302 301 302 305 305 305 306 307 308 306 305 307 310 310 308 312 316 313 312 331 335 339 335 338 348 350 353 355 363 364 357 356 353 353 355 355 353 355 353 352 349 345 343
303 301 301 301 301 301 303 306 307 305 302 304 308 309 312 313 313 316 318 318 313 314 328 337 336 331 345 351 353 360 361 362 352 348 351 353 355 357 357 357 355 350 347 343 342
301 301 301 301 301 301 302 302 304 304 304 305 311 315 313 313 318 320 321 321 319 315 318 328 328 325 327 333 352 354 362 355 352 347 347 348 347 352 358 360 353 350 346 342 343
301 301 301 301 301 301 301 302 305 307 307 307 310 319 314 315 323 321 319 321 319 314 317 319 317 320 324 330 334 351 350 352 350 347 347 347 346 358 356 357 350 345 343 343 348
301 301 301 301 301 301 302 304 306 307 308 309 309 319 315 318 315 321 322 324 322 323 321 319 317 316 324 326 329 340 346 347 347 346 345 344 348 350 354 353 348 343 343 345 347
301 301 301 302 302 301 303 306 308 309 310 310 313 317 315 318 314 319 319 325 320 323 323 319 316 317 323 326 330 339 340 344 345 347 347 347 347 356 357 352 350 346 344 345 348
302 302 302 302 302 302 304 308 310 310 311 311 316 318 318 314 314 319 321 325 322 319 320 320 317 320 321 327 328 330 339 341 342 348 350 346 350 363 356 353 352 350 348 349 349
301 302 302 302 302 302 305 309 311 311 314 311 320 318 318 313 315 317 317 318 326 319 318 319 318 317 320 320 322 332 333 337 337 348 348 347 354 359 355 355 355 353 351 350 350
301 302 302 303 303 303 307 312 309 312 322 318 319 319 321 318 322 322 319 324 324 323 319 318 316 315 318 320 320 325 332 335 337 348 350 351 358 359 356 355 355 353 352 351 350
302 303 303 303 303 303 310 310 308 313 322 320 322 321 317 318 313 314 320 323 322 318 318 317 315 314 316 317 323 326 333 334 336 346 350 353 354 357 356 357 357 354 353 351 351
304 304 304 306 304 305 310 308 305 303 307 305 306 320 313 311 309 315 315 323 320 320 321 319 318 318 318 319 322 327 330 334 336 337 349 353 353 355 357 355 357 356 356 353 351
303 303 303 306 305 308 309 305 306 307 304 306 307 307 307 308 309 310 315 323 321 322 321 323 323 320 321 322 322 325 329 333 335 336 336 350 353 352 354 353 354 354 351 353 352
301 301 303 306 305 307 309 309 309 308 303 306 308 308 308 308 309 310 313 317 323 320 322 324 328 324 325 325 326 326 327 331 334 334 333 351 355 352 350 347 348 352 351 350 349
300 301 302 306 306 308 309 308 308 307 303 309 311 311 310 309 311 313 312 316 321 322 319 325 326 328 328 329 327 327 327 330 333 333 336 335 362 354 352 349 352 351 352 350 348
300 301 304 306 308 308 308 309 309 306 307 312 309 310 307 308 310 313 313 313 318 320 317 321 329 329 331 331 329 328 327 329 331 332 332 334 347 354 352 352 352 352 351 347 345
300 301 307 308 307 308 308 309 307 306 311 310 309 307 307 307 308 312 311 312 315 319 319 320 321 330 331 331 331 328 328 329 330 327 332 333 332 346 356 352 350 349 349 347 340
300 301 310 308 307 309 311 304 304 307 308 308 306 306 305 306 307 310 309 311 313 321 321 324 323 322 331 332 330 331 327 331 330 330 331 329 329 331 348 349 348 347 349 346 341
301 304 310 311 310 312 310 303 310 309 306 306 306 306 307 308 308 309 309 310 316 319 322 322 324 323 323 331 333 330 330 328 332 329 329 324 328 328 341 344 346 345 346 345 343
302 307 310 312 312 311 301 306 308 308 306 306 306 306 307 308 308 310 308 312 314 317 319 320 322 325 326 325 331 331 331 323 320 320 322 323 324 325 326 341 346 347 346 345 343
304 306 309 310 311 309 303 308 308 308 306 307 307 307 306 306 310 309 311 312 312 315 314 318 322 322 325 327 328 330 323 325 317 325 324 322 323 326 324 323 335 343 347 345 343
305 304 310 310 310 303 305 305 307 307 307 307 307 306 306 306 306 307 311 311 313 314 313 314 317 323 321 326 330 325 328 324 322 318 323 323 324 322 322 322 323 333 345 345 346
304 305 309 309 306 304 307 308 309 307 306 307 306 306 307 307 309 310 311 313 311 313 314 315 320 323 322 322 324 330 321 321 324 320 318 320 325 326 324 323 324 324 340 344 348
304 302 309 308 306 306 307 308 310 310 308 307 306 306 306 308 310 312 311 311 311 312 315 315 322 321 323 320 321 322 329 319 316 316 319 323 325 322 322 324 326 326 330 347 349
302 305 304 303 304 307 307 309 310 310 310 309 307 306 308 306 308 310 311 311 310 310 313 313 316 319 322 324 321 322 323 322 321 322 321 322 323 324 324 325 326 325 329 341 348
301 304 305 306 306 306 306 308 310 311 310 309 309 308 308 308 307 309 309 309 308 310 312 311 315 313 314 316 319 323 327 325 321 321 323 322 324 323 322 328 327 328 330 339 348
304 305 305 306 307 307 307 308 310 311 311 311 310 310 310 305 307 307 307 307 309 310 310 310 313 312 313 322 326 329 330 329 324 322 323 321 323 322 326 331 333 332 333 342 347
306 305 305 308 307 308 309 310 310 308 310 310 309 310 309 308 305 306 306 306 308 311 311 310 310 311 317 325 330 332 330 331 325 323 323 324 322 329 335 331 330 333 335 335 341

GFSSW_925_thetae_057.txt.gz
Theta_e
305 302 301 302 304 306 305 304 303 304 304 304 305 308 310 313 311 313 314 314 313 330 328 332 338 339 347 350 352 355 361 362 359 357 355 352 355 353 353 354 353 349 344 344 343
302 302 301 302 303 305 304 303 304 306 307 307 307 310 317 314 313 315 313 316 315 335 334 341 342 338 347 351 352 357 361 362 355 349 353 354 356 357 356 356 353 347 343 344 343
301 301 301 301 302 302 303 303 304 306 307 308 308 311 318 313 315 316 320 317 317 338 326 336 332 330 336 342 352 357 362 357 354 346 351 354 354 354 357 358 352 348 346 344 342
301 302 302 302 302 302 302 303 306 307 308 309 310 315 315 314 315 322 325 322 318 323 331 328 324 324 326 335 336 354 353 356 353 349 347 350 348 358 357 357 349 344 345 344 343
301 302 302 302 303 302 302 304 307 309 309 312 312 316 314 315 313 314 316 327 323 316 321 318 317 319 324 325 332 342 346 345 347 347 346 345 352 358 357 351 347 343 345 344 345
302 303 304 304 304 303 303 307 310 310 311 314 313 316 316 311 311 317 321 324 324 319 318 316 315 315 318 322 332 332 335 337 339 341 345 347 353 356 356 347 347 344 344 345 347
304 304 305 306 306 304 304 311 310 309 317 317 313 316 316 314 313 313 314 326 323 318 316 317 317 317 317 324 324 327 331 331 335 341 348 345 352 362 353 346 346 345 343 346 347
302 302 303 304 307 305 306 310 309 308 320 315 318 318 318 315 317 320 318 316 325 323 317 318 317 316 319 319 320 328 327 330 334 339 347 345 352 359 352 348 346 345 345 346 347
300 301 302 303 307 305 309 308 308 311 319 319 320 317 320 318 318 313 310 319 319 323 319 319 317 315 317 319 318 319 328 333 334 339 349 348 357 359 353 351 348 345 345 347 348
300 301 301 304 308 306 309 308 308 316 319 318 320 316 314 310 309 309 312 319 320 319 319 316 314 313 312 315 326 321 327 330 332 343 349 351 353 360 355 354 353 349 347 348 350
300 300 301 307 308 307 308 307 303 303 305 305 305 312 308 308 309 310 311 318 318 316 316 315 314 315 316 317 319 322 328 332 333 341 350 351 354 361 357 355 355 353 351 349 350
300 300 300 308 306 307 308 305 306 307 303 305 305 305 307 307 308 310 311 320 321 320 318 317 317 316 316 316 318 320 321 325 329 334 347 349 351 358 359 357 355 354 353 352 349
300 300 301 308 306 307 308 308 309 308 302 303 305 307 307 308 309 311 310 313 319 321 321 321 321 318 318 317 320 319 321 322 328 332 339 343 353 358 357 357 355 354 353 351 350
300 301 301 309 306 306 307 308 309 306 302 307 308 307 306 307 309 311 311 312 315 322 322 321 322 322 320 320 320 320 322 323 326 330 334 345 358 356 355 358 352 355 355 354 351
300 302 304 308 307 306 307 310 309 304 306 310 306 308 305 306 306 309 310 311 314 314 316 321 322 323 323 322 322 323 324 325 326 328 330 337 354 351 351 356 354 349 352 352 351
301 302 306 309 307 307 308 311 305 304 307 308 306 306 307 306 307 308 308 311 314 319 316 316 318 322 323 325 325 326 326 325 326 325 331 330 334 332 352 352 350 349 347 348 349
303 304 309 309 306 309 311 302 304 305 306 306 305 305 306 305 307 308 310 316 318 320 321 321 320 320 323 325 327 328 323 327 328 328 332 327 331 333 346 348 348 348 346 345 347
304 305 310 310 309 309 308 304 308 310 306 305 305 306 307 306 306 308 307 311 315 316 318 320 323 321 320 324 328 328 324 326 330 330 330 325 329 329 335 345 346 345 345 344 346
305 304 310 309 309 309 301 305 307 308 306 305 305 306 305 306 308 307 308 313 316 315 318 320 322 317 318 322 326 330 330 325 324 317 326 329 323 324 329 339 344 346 344 344 345
304 304 307 309 308 307 302 306 307 306 306 306 307 306 306 305 307 305 309 310 314 313 313 316 319 317 319 321 322 329 324 329 322 327 324 321 322 329 326 332 339 343 345 344 344
304 302 308 308 307 300 304 304 308 307 307 306 306 306 306 306 306 307 309 310 310 311 312 314 317 319 319 321 323 323 329 326 327 323 332 322 323 319 323 326 336 340 343 343 343
301 302 307 307 305 302 306 307 308 309 308 306 305 305 305 306 307 308 310 311 310 311 311 315 318 322 321 321 320 320 324 321 332 327 317 321 328 322 320 321 324 337 341 342 342
303 300 307 306 305 304 305 307 307 309 310 307 306 305 305 307 308 308 311 311 312 312 313 314 319 318 322 318 319 319 324 326 323 317 320 329 328 320 319 322 319 321 326 339 343
304 304 302 300 301 306 306 308 309 309 310 309 308 306 306 306 305 308 311 310 310 309 313 313 316 316 320 319 316 317 317 319 322 327 321 323 324 321 321 321 320 321 322 328 342
299 302 303 305 304 306 307 307 308 310 310 309 309 308 309 307 306 306 307 307 310 311 312 311 315 313 313 313 314 315 316 317 320 321 325 323 319 320 319 320 321 327 324 324 338
303 304 302 306 307 308 307 308 309 312 310 310 311 310 310 307 305 305 305 305 308 308 310 310 314 314 313 312 313 315 317 319 322 322 319 319 320 318 320 330 333 329 325 329 340
305 305 306 308 308 309 309 309 309 308 308 310 311 310 310 309 307 305 303 303 307 309 310 311 314 312 312 316 321 327 324 324 326 325 325 321 324 322 341 344 342 341 332 332 343

GFSSW_925_thetae_060.txt.gz
Theta_e
303 303 303 303 303 304 303 303 305 306 306 307 308 308 309 316 314 313 312 314 317 320 314 348 345 344 347 349 351 351 359 360 359 356 355 353 357 356 352 348 350 345 344 344 346
302 302 303 303 303 303 303 303 303 306 307 307 308 309 309 316 313 313 309 311 317 330 333 344 341 342 347 350 352 357 359 358 353 350 351 356 355 357 356 353 350 346 345 345 348
303 304 305 305 305 304 303 303 305 306 308 308 311 311 313 313 313 311 323 323 315 327 325 334 336 341 347 348 352 356 360 358 354 346 349 355 356 355 356 357 349 349 347 344 349
304 304 304 305 306 306 304 304 306 309 309 311 312 313 315 315 313 319 315 322 316 337 333 332 333 328 336 341 346 355 353 356 355 352 349 351 350 357 355 355 347 345 345 345 349
301 302 303 304 305 307 304 305 309 309 308 314 312 314 314 313 311 320 320 321 326 337 332 322 333 322 331 333 334 348 348 347 351 348 346 346 353 357 356 349 344 344 344 345 348
301 302 303 303 306 308 304 308 309 309 308 316 311 315 315 309 311 314 327 323 323 327 326 318 328 319 322 324 333 334 341 341 340 339 342 347 350 355 353 347 345 346 345 344 348
300 301 302 303 308 308 306 309 308 308 315 315 315 315 315 312 313 317 322 325 323 323 318 319 319 320 316 322 321 327 326 327 330 337 344 348 358 360 351 347 346 347 346 344 347
300 300 301 302 307 306 309 308 308 308 319 315 317 317 316 316 317 313 313 322 324 319 316 318 317 315 318 318 318 324 325 329 330 332 341 345 350 358 348 348 347 347 346 346 347
300 300 301 303 307 306 307 307 308 319 316 319 319 317 316 311 314 309 309 316 324 320 319 318 316 314 316 318 319 317 328 328 332 333 346 345 349 357 347 348 347 346 346 346 347
300 300 301 302 307 307 307 307 310 318 318 318 319 314 311 307 308 309 310 317 322 321 320 316 314 313 310 315 322 323 322 328 334 335 344 349 350 357 349 348 349 346 345 346 347
300 301 302 303 306 307 307 307 301 303 304 304 304 306 307 307 308 311 310 317 316 318 319 314 314 316 316 315 320 322 325 328 330 335 348 349 348 360 354 349 347 346 345 345 346
300 302 302 304 306 307 308 304 306 306 305 303 303 304 305 306 307 308 311 319 319 319 315 314 316 315 314 314 318 320 321 323 325 331 344 346 349 358 356 354 349 347 346 346 346
300 303 303 307 306 307 307 307 308 307 302 303 305 306 306 306 308 307 308 309 315 320 317 316 316 315 315 314 315 316 320 320 326 329 345 346 351 359 359 356 353 351 347 345 346
302 304 304 309 306 306 306 307 309 306 301 306 306 306 306 305 307 308 308 310 313 320 321 319 320 318 316 315 315 313 317 321 322 325 334 342 346 352 358 360 356 354 352 350 348
305 305 307 309 307 306 307 310 306 302 304 308 305 307 304 305 305 307 309 310 312 313 314 322 321 322 317 317 316 316 318 319 321 324 329 333 348 345 354 362 360 356 353 351 350
306 305 309 309 308 308 309 309 303 303 306 306 305 305 305 304 306 307 313 312 314 317 316 314 315 319 322 320 318 319 323 321 322 322 328 326 339 332 352 355 355 355 353 353 351
306 305 309 309 307 308 310 301 303 304 305 305 305 305 305 304 306 307 314 314 316 317 318 319 320 317 318 321 320 321 320 324 326 326 329 324 328 331 333 347 348 350 351 350 352
306 305 308 308 307 308 305 303 307 309 305 304 305 305 306 305 306 307 308 313 314 315 316 319 320 319 316 319 322 322 321 323 328 328 326 323 329 329 328 337 342 344 346 346 349
306 304 309 307 307 308 301 304 306 307 306 305 305 305 305 305 307 305 308 314 315 313 317 318 320 315 316 318 319 324 325 322 322 320 324 326 324 324 325 329 334 341 342 344 345
305 303 306 307 307 305 302 306 306 306 307 305 306 306 305 305 306 305 307 310 314 312 311 315 314 315 316 318 319 319 323 329 322 329 326 324 323 332 326 327 331 339 344 343 343
303 300 306 307 305 301 304 304 307 307 308 306 305 305 304 306 305 306 305 310 310 312 311 312 314 314 317 319 320 320 321 324 327 324 329 323 324 319 325 328 329 334 342 342 343
300 299 306 307 304 300 305 305 306 307 308 306 305 303 303 304 305 305 307 310 310 309 311 313 314 316 317 317 317 318 320 322 332 329 323 323 329 322 322 324 327 329 337 341 342
303 301 306 305 304 303 303 306 306 307 309 308 307 305 305 305 306 306 310 312 312 312 312 312 316 316 316 316 315 317 316 316 318 320 327 332 329 321 319 319 319 321 330 339 342
303 303 301 299 299 306 307 307 308 307 308 308 308 306 306 306 305 306 310 311 310 312 314 311 311 314 315 315 313 314 315 315 315 321 327 329 328 321 324 319 319 320 319 325 339
298 300 302 306 305 307 307 307 308 309 309 309 310 308 310 308 306 306 306 308 310 312 312 309 311 309 311 312 313 313 314 314 316 316 320 326 323 322 321 322 322 319 323 323 324
302 306 305 306 307 308 308 309 310 311 310 308 311 310 310 310 306 307 305 304 308 308 309 308 306 312 313 313 313 315 314 315 316 317 318 321 320 322 324 328 339 340 340 334 325
304 305 306 308 309 309 310 309 309 309 307 308 309 307 307 309 308 308 306 303 304 306 307 309 309 313 312 311 312 316 315 319 323 320 323 321 323 324 339 340 336 336 340 342 340

GFSSW_925_thetae_063.txt.gz
Theta_e
304 304 304 305 305 305 304 303 303 306 307 308 308 309 313 315 314 314 313 310 313 311 340 349 346 345 345 350 352 350 363 364 360 356 357 355 358 358 351 349 349 346 346 345 346
302 302 303 304 305 306 307 304 304 307 309 309 309 311 312 316 314 314 311 324 312 315 340 344 343 345 349 353 355 359 363 358 354 351 352 354 356 359 354 352 352 348 345 346 347
301 302 302 303 306 307 307 306 305 309 309 308 313 312 313 315 314 313 319 319 317 325 335 340 339 341 346 351 355 355 359 356 353 349 352 357 355 356 356 358 353 352 349 347 348
301 301 302 303 307 307 307 306 307 309 309 307 314 311 314 314 313 314 322 319 315 330 335 332 337 337 341 348 351 356 354 356 356 353 351 353 356 358 356 356 351 348 347 347 348
301 301 301 303 307 308 306 306 308 308 308 311 314 312 314 313 312 314 326 325 326 333 331 329 334 332 331 337 342 353 351 349 351 350 348 348 356 358 357 353 348 347 347 348 347
300 301 301 302 307 306 306 308 308 308 308 315 312 314 315 311 310 314 325 325 327 335 328 329 329 328 328 335 334 336 339 346 343 344 346 346 348 356 356 350 350 348 348 348 347
300 301 302 302 306 306 307 307 307 307 316 313 313 315 315 313 316 315 318 323 329 328 328 325 328 327 326 325 329 332 335 332 331 333 343 344 352 357 354 350 351 349 348 348 347
300 301 302 303 306 306 307 307 307 314 313 316 317 318 317 314 313 311 314 324 324 326 322 319 320 324 321 322 322 323 324 325 330 333 341 346 353 357 352 352 352 350 348 349 348
299 302 303 303 306 307 307 308 314 311 316 319 319 318 311 310 310 309 311 315 325 324 319 319 319 321 319 323 324 325 321 322 325 335 344 347 350 356 352 353 354 351 349 348 349
300 303 304 304 306 307 307 308 313 312 317 319 318 316 311 309 308 309 310 321 323 320 318 318 321 319 320 322 320 323 322 327 324 335 343 349 349 357 354 353 354 352 350 348 348
302 305 304 307 307 308 308 307 309 309 307 307 307 307 308 307 308 308 310 320 321 318 317 319 317 320 318 320 320 323 326 324 331 331 341 346 347 356 354 354 353 352 351 349 348
305 305 304 309 306 307 308 309 308 307 309 306 305 306 306 306 310 309 312 322 323 323 319 317 318 317 317 317 318 320 325 327 328 332 344 344 347 348 356 355 354 352 351 349 348
306 306 307 310 306 307 306 307 308 306 307 307 307 308 307 307 308 308 310 312 322 323 323 322 320 318 317 317 318 319 320 323 327 328 337 343 345 352 357 355 352 351 350 346 348
306 307 308 310 306 306 306 307 308 306 308 308 308 308 308 307 308 308 312 312 314 323 323 324 323 319 319 318 318 319 319 320 323 327 334 340 347 350 355 360 357 353 350 349 347
307 307 307 308 307 307 307 308 305 302 309 308 307 307 307 308 308 308 313 314 315 316 319 325 324 322 320 319 318 318 317 318 320 324 328 331 343 342 350 360 360 357 354 350 348
306 307 307 309 308 307 307 306 304 308 308 308 307 307 307 307 308 309 313 314 316 318 319 319 317 323 324 321 318 318 321 319 319 319 322 329 335 342 349 354 357 357 356 354 351
307 306 307 308 308 307 308 305 309 309 308 307 307 307 307 307 307 308 315 316 318 317 320 320 320 319 320 323 321 319 319 322 325 324 321 322 330 333 337 347 348 354 356 355 353
307 304 308 307 306 308 305 309 310 309 307 306 306 307 307 307 307 307 312 313 314 317 320 320 319 321 318 321 323 323 323 323 326 325 322 322 329 332 331 331 344 348 351 354 354
307 305 307 305 306 307 310 311 310 309 308 307 307 307 307 306 307 306 311 313 315 312 317 321 321 316 318 319 321 324 325 323 324 326 328 323 325 327 331 332 333 338 347 352 354
305 302 306 306 305 304 311 309 308 308 309 307 308 308 308 307 308 307 306 313 314 312 313 314 307 311 317 317 320 323 324 326 326 327 328 328 327 326 329 332 334 335 339 345 350
303 308 306 307 306 309 312 309 309 309 309 308 308 307 307 307 307 307 307 311 313 312 312 312 311 307 310 317 323 323 324 327 327 328 328 327 329 329 329 333 333 334 336 342 344
303 306 306 306 311 307 310 308 307 308 309 309 307 307 307 307 307 307 308 308 311 312 312 313 313 310 308 309 315 317 322 325 330 332 332 330 329 327 331 330 333 334 335 338 343
305 306 305 306 311 309 307 307 307 309 309 310 310 307 306 307 308 308 308 312 311 311 313 314 314 311 309 314 317 317 319 320 321 324 332 334 330 330 331 330 329 331 332 337 343
306 310 308 306 305 309 308 308 309 307 309 310 310 309 309 309 308 308 309 312 312 312 314 314 314 310 306 310 310 315 316 317 318 326 327 331 333 332 331 331 332 331 329 328 340
304 308 306 310 310 308 308 308 308 310 310 309 311 311 311 311 309 309 308 310 310 311 314 312 312 311 310 308 308 311 312 314 317 320 325 327 330 331 333 333 335 334 330 333 331
308 310 307 307 308 309 308 310 309 309 309 309 309 310 310 310 311 309 308 308 310 312 313 311 311 311 310 307 310 311 313 314 316 317 319 322 326 326 329 340 335 340 342 342 343
304 305 307 308 309 310 310 310 310 310 308 308 309 309 309 309 309 308 308 309 309 309 312 311 311 310 307 309 315 316 314 316 317 321 321 326 326 331 333 342 337 336 335 338 342

GFSSW_925_thetae_066.txt.gz
Theta_e
301 301 302 303 306 308 308 306 303 305 308 309 309 312 315 313 313 318 316 314 313 314 342 342 342 345 346 349 349 354 364 363 358 358 361 358 361 358 355 354 351 351 351 350 347
301 301 301 302 306 307 309 307 304 307 309 308 307 313 314 315 317 317 315 319 312 327 340 343 345 343 347 349 349 358 364 358 354 353 355 358 359 361 358 355 354 351 349 348 349
300 301 302 302 305 307 308 305 305 308 309 308 308 313 311 315 319 322 319 327 322 330 335 338 339 342 343 347 350 351 356 351 354 352 354 355 357 358 356 359 355 355 352 349 349
300 301 302 302 305 306 306 306 308 308 308 307 313 312 311 318 318 317 321 321 323 324 331 333 337 338 338 344 346 350 347 352 355 353 353 356 356 358 356 358 354 352 350 350 350
300 301 302 303 306 306 306 307 308 307 307 312 314 312 318 319 314 316 325 330 326 327 332 334 335 334 333 336 336 346 345 346 354 353 351 350 357 358 357 355 353 351 350 350 349
300 301 303 303 306 306 307 307 306 307 309 315 312 312 319 316 313 317 325 325 325 328 331 329 331 329 328 329 333 332 338 342 348 349 350 351 353 355 356 354 354 352 351 350 349
300 301 304 303 306 306 307 307 307 308 314 311 314 318 319 318 316 316 321 325 325 327 328 326 326 328 326 327 328 330 333 334 336 341 346 349 353 355 357 355 356 354 351 350 348
301 304 304 304 306 307 307 308 312 310 313 316 318 321 317 314 315 313 317 325 327 330 326 326 324 327 324 324 323 326 327 332 333 332 340 350 354 354 357 357 357 355 352 351 349
306 306 304 306 307 307 308 311 313 309 315 318 322 321 315 313 312 312 314 322 326 328 324 324 324 326 325 324 323 324 324 326 330 333 342 351 353 357 355 356 357 356 353 352 351
306 307 304 309 307 308 308 309 308 319 319 320 318 319 313 313 311 312 313 323 326 330 322 321 323 324 324 323 324 324 323 325 328 333 342 351 352 356 355 355 357 356 354 353 352
307 307 305 309 306 308 311 312 318 314 312 311 312 312 311 311 311 314 319 323 325 328 327 321 323 323 322 323 323 323 324 324 328 329 344 350 352 356 356 355 357 357 356 353 353
306 307 306 309 306 308 311 313 312 311 314 310 310 310 310 310 314 314 318 325 323 325 324 323 322 322 322 322 323 323 324 326 326 330 334 349 352 350 355 355 355 357 357 354 351
306 307 306 309 307 310 311 310 310 310 313 311 311 311 310 311 312 311 316 320 325 323 323 324 323 321 320 321 321 322 323 324 326 329 333 342 351 351 349 355 353 354 355 354 352
306 307 306 309 309 310 311 310 310 310 314 313 312 311 311 311 312 310 314 316 320 326 324 324 323 323 321 320 321 322 321 322 322 328 334 336 350 350 350 354 354 354 355 355 353
306 307 305 308 312 313 311 311 308 309 315 311 311 310 311 312 311 311 314 316 318 320 325 326 323 324 325 324 322 322 322 322 322 323 325 334 339 345 349 352 356 354 354 354 353
307 307 305 312 311 311 310 309 308 314 315 310 310 310 311 311 311 311 314 316 318 317 320 323 325 324 325 325 322 322 323 322 322 322 323 327 336 342 345 350 354 354 353 352 353
307 305 308 310 312 310 310 310 315 315 311 311 311 311 311 311 311 311 313 315 315 317 316 318 321 323 324 326 326 323 324 327 325 324 323 322 326 334 341 343 347 351 352 353 352
307 307 308 309 309 309 312 316 318 314 312 309 310 310 311 311 311 310 313 313 314 316 316 319 320 320 323 325 327 326 324 328 331 326 324 323 322 325 333 336 342 345 349 352 353
307 309 310 309 308 309 315 319 317 314 311 311 311 312 313 310 311 311 312 313 314 313 314 318 317 321 321 324 325 327 326 325 326 327 329 326 324 324 327 333 336 341 345 348 352
309 310 311 309 308 311 316 314 314 312 312 311 313 313 314 312 311 312 312 313 313 312 312 314 314 316 320 321 323 326 326 327 327 331 332 329 329 326 327 331 334 336 338 345 349
309 314 310 309 310 315 318 316 313 311 311 313 313 313 313 312 311 312 312 312 312 313 312 312 311 312 313 319 322 325 327 328 327 328 331 331 330 328 329 328 333 334 336 339 345
311 314 310 310 316 315 316 312 308 311 311 312 312 312 313 312 312 312 312 312 312 312 312 312 312 313 312 316 317 316 325 327 330 332 329 331 330 329 329 329 329 331 335 336 339
313 312 310 312 316 314 312 311 311 311 312 312 312 311 311 311 312 311 311 310 311 312 312 314 311 313 312 311 313 315 320 325 326 329 333 334 332 331 331 332 333 331 331 335 338
313 318 313 312 312 312 312 312 311 310 311 311 312 311 311 312 312 313 312 310 311 311 313 311 311 313 312 312 312 315 316 322 324 329 330 332 333 333 331 331 332 334 334 334 334
313 314 311 314 311 311 312 311 310 311 310 309 311 312 313 314 313 312 311 311 312 312 313 312 314 313 312 310 310 309 310 312 317 322 328 328 331 333 334 333 334 335 336 335 334
314 312 309 309 310 311 309 310 311 311 311 310 310 309 311 311 314 316 313 312 312 311 312 313 314 311 312 310 310 309 309 311 311 316 322 325 328 329 331 332 336 337 338 340 341
308 308 311 310 312 311 311 310 310 310 309 308 309 310 310 310 311 311 311 312 311 312 313 314 313 312 312 310 309 310 312 311 312 314 320 325 325 327 330 332 337 341 340 341 341

GFSSW_925_thetae_072.txt.gz
Theta_e
300 301 303 304 304 305 307 306 306 305 305 308 309 308 308 311 311 317 318 318 319 318 315 325 330 335 341 348 347 348 353 365 363 364 366 354 358 358 356 356 355 355 353 351 349
301 302 304 304 303 304 306 306 307 308 308 308 308 308 310 312 318 319 321 319 317 318 317 329 332 336 341 345 347 350 355 366 357 360 355 350 357 365 357 357 356 357 352 350 349
301 303 304 305 303 305 306 306 306 306 306 307 307 307 313 315 324 326 321 319 316 315 321 333 334 337 340 343 346 349 352 354 355 356 354 364 359 363 357 358 355 359 354 351 349
304 306 307 306 303 306 307 307 307 306 306 306 307 312 312 319 332 325 318 317 314 319 320 334 336 339 341 343 343 349 348 347 349 352 355 356 359 363 358 357 353 354 352 351 350
307 307 308 307 304 307 307 307 307 307 307 307 309 314 317 327 324 322 325 318 322 322 324 338 337 339 342 341 342 344 347 347 347 347 354 354 358 361 356 348 345 353 352 351 350
308 308 308 308 305 309 307 307 308 311 311 313 314 312 318 328 318 320 323 330 325 321 327 338 338 338 338 338 337 340 342 343 345 344 353 352 357 356 358 350 356 354 352 351 350
307 308 308 308 306 309 307 307 309 310 311 310 311 316 328 325 319 318 321 327 326 324 326 335 336 337 336 335 333 333 336 336 341 343 355 351 356 358 357 356 355 355 353 351 351
307 307 308 308 306 309 307 308 309 310 311 315 316 323 332 317 317 317 321 326 328 328 324 330 333 332 334 333 329 330 331 336 335 340 346 353 357 360 357 360 356 355 354 354 352
307 307 307 308 307 308 307 309 309 309 313 315 325 327 330 316 317 317 320 326 328 326 328 331 333 333 330 333 330 329 327 331 334 337 341 352 357 361 355 354 358 355 355 354 353
307 307 307 308 307 307 309 312 314 312 322 323 323 324 322 318 316 317 317 322 327 330 332 331 330 330 330 331 332 329 327 327 332 335 338 346 352 355 347 349 352 356 354 355 353
306 306 307 308 307 308 309 316 323 327 322 321 320 320 317 317 316 318 319 322 328 332 331 332 332 332 331 329 330 327 327 326 326 330 334 341 350 352 348 346 353 355 353 353 353
306 306 307 307 307 309 310 318 316 316 317 318 316 316 315 316 318 320 323 326 328 331 330 328 332 331 328 328 329 330 329 327 328 327 331 335 342 352 350 351 349 349 355 353 353
306 307 307 306 307 310 316 317 316 316 318 319 316 316 316 316 317 317 321 325 327 326 330 330 327 327 328 328 328 329 328 327 327 328 328 332 338 357 352 352 355 351 355 351 355
306 307 307 305 312 316 318 316 316 315 319 319 316 316 315 315 316 316 317 320 325 326 326 329 329 328 326 326 327 327 327 326 327 327 327 329 332 354 363 361 358 357 355 352 353
306 307 307 303 311 319 317 316 315 316 320 317 316 315 316 315 317 316 316 318 319 322 325 326 324 326 327 327 327 327 327 327 326 327 327 327 330 331 349 355 354 352 355 353 350
307 308 305 313 313 317 315 316 316 318 319 316 316 315 315 315 316 316 316 317 319 319 321 322 323 325 325 325 326 326 326 326 327 327 328 326 328 333 341 360 350 348 354 353 352
309 307 308 312 318 316 315 318 320 320 320 317 316 316 316 317 316 315 316 317 317 318 318 317 319 322 326 327 325 326 326 326 329 329 328 326 326 331 333 352 354 348 349 353 355
310 308 313 314 315 315 316 321 323 323 320 317 316 316 316 318 317 317 316 317 317 318 318 319 321 318 320 325 327 325 327 329 331 329 328 327 329 329 329 330 351 346 349 346 352
310 315 315 317 316 315 319 323 324 321 319 319 318 318 319 318 316 317 317 317 318 319 319 319 318 320 322 320 324 327 328 327 328 329 330 329 329 329 329 329 331 348 346 349 350
312 318 318 316 317 317 321 323 321 319 318 319 320 320 320 320 318 318 318 318 318 318 318 318 319 319 320 322 322 323 324 327 329 332 334 330 334 332 332 331 330 333 346 351 352
315 321 318 316 317 320 323 323 321 318 317 318 319 319 320 320 319 319 319 318 317 317 317 316 317 317 318 321 321 323 326 326 327 330 332 333 332 334 336 332 331 330 335 350 349
320 322 317 317 322 321 322 319 312 317 317 317 317 317 318 317 318 318 318 319 317 317 317 317 318 318 317 318 320 322 324 324 332 333 333 332 332 333 336 332 330 330 332 340 347
323 321 317 318 322 321 318 317 316 315 316 316 316 317 316 317 317 317 317 316 316 316 316 317 318 319 318 317 318 317 318 321 322 326 335 332 331 332 334 333 331 331 332 336 346
322 322 321 318 318 319 318 316 316 313 315 314 314 315 315 316 316 315 315 314 315 315 316 315 316 319 320 319 319 319 317 319 320 325 326 332 331 331 334 337 336 334 334 334 342
320 318 317 319 317 316 317 317 316 316 314 313 315 313 313 315 315 314 314 315 315 315 315 315 316 315 316 318 318 318 318 317 319 323 326 325 331 332 334 335 339 338 336 340 341
318 320 317 316 316 315 314 315 314 313 314 315 313 312 312 314 313 315 313 313 314 315 316 317 318 317 317 317 317 318 317 316 317 319 323 325 327 329 331 333 335 337 339 345 347
316 316 318 315 316 317 315 314 313 312 314 312 312 312 313 312 312 312 312 312 313 314 316 317 320 320 320 316 317 318 318 316 316 318 319 322 324 326 324 329 333 335 332 337 344

GFSSW_925_thetae_075.txt.gz
Theta_e
302 304 305 306 304 303 305 306 306 307 307 307 308 308 308 308 310 316 318 316 314 319 316 326 324 330 334 349 351 351 357 359 365 365 359 349 357 355 357 355 353 353 352 350 349
304 306 307 307 305 304 306 307 306 306 306 306 307 307 307 312 315 318 315 317 317 319 318 317 324 330 334 342 345 349 354 358 359 358 360 352 355 356 362 358 356 353 351 350 349
306 307 307 308 306 304 307 307 307 306 306 306 306 307 311 313 322 325 319 319 320 318 319 317 326 330 335 337 341 344 351 353 353 356 356 359 348 349 359 358 356 355 352 349 349
307 308 308 308 308 304 308 307 307 307 308 307 307 307 313 319 331 325 321 321 320 316 316 319 326 332 335 338 338 344 345 347 348 353 356 357 360 363 356 359 353 352 349 349 347
307 307 308 308 308 305 308 307 307 309 311 310 308 313 317 323 322 320 324 317 317 315 319 318 333 337 337 337 338 341 342 344 345 351 354 359 363 353 358 355 352 351 349 349 347
307 307 308 308 308 306 308 307 307 309 310 311 313 312 316 321 319 321 326 323 324 323 321 321 336 337 336 337 338 338 340 340 342 343 351 361 361 352 352 352 353 352 350 348 347
307 307 307 307 307 306 307 307 308 309 310 312 311 313 322 322 320 319 319 327 327 323 319 325 332 337 335 336 334 335 331 330 334 336 343 354 363 362 358 356 355 353 350 348 347
307 307 307 307 307 306 307 307 308 309 310 314 317 321 328 325 318 318 318 321 328 326 321 323 329 334 334 332 334 328 326 329 330 333 337 351 368 363 354 358 355 353 351 350 347
307 306 306 306 307 306 307 308 310 312 310 315 321 323 330 317 317 317 319 323 328 327 325 323 325 331 331 330 331 330 325 325 328 329 334 345 368 359 347 352 357 354 351 350 349
306 306 306 307 307 306 308 311 314 315 317 322 322 324 324 320 316 317 317 319 326 325 325 324 328 331 330 327 331 332 326 324 324 326 330 337 365 360 354 354 349 355 349 351 350
306 306 306 307 306 305 308 311 320 321 320 326 323 325 318 316 316 317 318 318 324 327 330 331 330 330 328 327 327 328 329 326 324 324 326 336 362 363 358 355 358 352 348 353 351
306 306 307 307 306 306 308 314 316 315 314 316 319 318 316 316 316 318 320 319 326 328 331 330 332 330 329 329 329 327 328 328 327 326 321 328 356 356 348 348 348 349 351 352 351
306 306 307 308 305 309 311 316 317 317 315 317 316 315 314 315 315 318 321 323 326 328 330 328 328 330 330 330 328 326 326 327 327 327 324 324 354 352 349 348 349 354 353 349 351
306 307 308 307 311 313 316 317 317 315 314 319 315 315 315 315 314 316 316 316 322 325 325 326 328 329 327 328 327 324 325 327 327 325 323 324 325 355 350 351 352 354 353 350 343
307 308 308 306 305 312 316 316 317 315 320 317 315 314 315 313 315 315 316 316 316 318 321 324 325 327 328 327 325 324 325 325 325 323 322 324 323 328 352 355 351 353 347 346 343
309 309 308 313 313 317 317 316 317 316 320 316 315 314 314 313 315 316 315 315 316 317 317 318 320 321 322 324 325 326 325 324 322 322 323 322 324 325 359 354 353 353 345 350 346
309 311 308 308 316 316 315 316 319 319 317 315 314 314 314 314 315 315 315 315 315 316 315 316 317 318 319 320 324 323 322 323 323 323 325 322 323 323 327 353 356 354 344 342 343
311 311 309 312 314 316 315 318 324 324 319 317 316 316 316 316 317 316 315 315 316 316 314 315 316 315 317 318 324 325 320 323 326 325 324 323 324 324 324 342 349 349 343 343 349
312 315 315 317 317 316 316 322 321 320 318 319 319 319 319 317 317 317 316 316 316 316 318 318 318 317 318 318 318 321 323 321 322 323 325 325 325 325 325 325 347 345 344 345 349
312 316 319 317 317 317 319 322 320 317 318 318 320 320 320 320 319 316 318 317 317 317 314 315 316 316 317 316 317 318 322 322 321 325 327 326 326 327 328 325 333 347 345 349 350
315 322 318 317 317 318 323 323 320 317 317 317 318 318 318 318 318 318 318 316 317 316 315 315 315 315 316 316 315 316 319 320 319 322 325 326 326 325 328 330 329 331 343 347 347
318 324 317 318 321 322 320 317 312 316 316 316 317 317 317 317 317 317 317 317 315 315 316 315 314 316 316 317 316 315 315 318 321 323 325 327 329 328 327 333 334 326 345 347 342
320 323 318 317 319 320 318 316 314 314 314 314 315 315 315 315 316 316 316 315 315 315 317 314 315 316 316 315 316 317 317 316 317 317 320 328 329 329 330 330 331 334 335 347 346
320 320 319 316 315 317 319 316 316 315 314 313 314 313 313 313 314 315 315 314 314 315 317 313 313 314 317 317 315 316 317 317 314 313 317 321 324 328 329 329 329 333 334 338 351
321 316 316 316 315 315 316 315 315 314 313 313 315 312 312 314 313 313 313 313 313 315 316 314 315 314 314 314 314 314 317 317 317 315 318 318 322 329 327 326 328 333 333 332 346
318 319 317 316 317 315 315 315 313 313 314 313 313 312 313 313 313 313 312 312 313 313 314 315 317 317 317 316 316 314 316 317 317 317 315 316 318 325 322 322 324 329 334 331 330
316 317 319 315 315 315 314 314 313 314 314 313 312 313 313 313 312 311 310 310 309 310 312 316 317 316 317 316 316 317 315 316 316 317 315 315 316 318 318 320 321 320 331 328 328

GFSSW_925_thetae_078.txt.gz
Theta_e
305 306 307 307 307 305 303 307 307 306 306 306 306 306 307 307 311 315 316 310 310 330 327 327 327 326 328 344 347 351 363 361 361 365 360 355 358 353 355 356 353 352 352 349 347
305 307 307 307 307 307 304 308 307 307 307 307 306 306 306 311 315 317 312 310 316 318 316 317 323 324 330 335 344 355 359 359 356 356 359 351 355 359 361 357 355 354 350 348 347
307 307 308 308 307 307 305 307 307 307 308 309 306 306 308 312 320 325 324 314 317 318 318 317 321 324 331 333 338 341 351 350 356 354 356 352 353 356 359 360 357 354 351 348 347
307 307 308 308 307 307 306 307 307 307 310 310 308 307 312 317 327 326 319 316 319 317 317 317 320 327 332 335 335 340 341 343 346 356 354 350 352 355 356 357 353 349 348 348 346
307 307 307 307 307 307 307 306 307 307 309 310 312 312 318 321 322 321 321 319 319 317 316 316 322 329 334 332 335 337 338 339 341 349 355 354 355 354 355 355 353 350 349 349 348
307 307 307 306 306 306 307 306 307 307 309 311 311 311 314 314 321 320 324 317 317 317 319 316 321 332 336 335 335 336 336 337 337 355 356 361 358 347 350 354 354 351 349 349 345
307 307 306 306 306 306 306 306 307 307 309 312 314 314 319 314 322 321 324 324 322 317 318 319 318 328 335 337 333 335 333 327 328 352 362 357 356 352 354 353 354 352 350 349 344
307 306 306 306 306 306 306 305 308 308 309 311 317 321 322 327 324 322 322 325 328 324 319 319 321 326 334 333 330 331 324 325 325 328 359 354 365 358 357 353 355 353 350 349 346
306 306 306 306 306 306 306 306 310 311 311 310 319 321 326 322 316 316 317 317 320 326 323 321 321 321 327 329 326 325 331 328 324 324 347 353 364 358 353 357 355 353 352 349 347
305 305 306 306 307 307 305 309 313 314 315 321 322 321 320 323 316 316 316 317 326 324 325 324 321 323 325 326 329 331 331 324 323 323 325 361 364 358 351 357 358 355 352 351 348
306 306 307 308 308 306 307 311 309 315 320 324 324 323 320 316 315 316 317 317 319 323 324 325 327 329 330 327 326 326 327 326 327 326 322 337 362 356 351 354 355 353 351 349 350
306 307 308 309 308 305 308 311 314 314 313 315 320 319 321 317 314 315 318 316 324 326 327 329 330 328 327 328 327 327 327 325 324 326 324 355 364 358 352 347 352 346 352 350 349
307 307 309 310 306 312 311 314 317 315 311 313 313 314 313 313 313 315 319 319 324 325 329 329 328 330 330 328 329 327 325 325 325 326 324 357 364 363 356 350 347 348 349 349 349
308 308 309 306 313 307 313 316 315 314 309 313 316 313 313 313 313 317 315 315 318 325 326 327 329 328 328 328 327 327 325 325 326 323 322 322 332 360 358 355 354 350 351 350 351
309 309 310 310 307 310 316 315 315 312 318 316 312 314 312 311 313 314 315 314 315 316 314 316 323 327 328 327 325 326 325 323 324 321 320 321 320 326 351 351 350 351 355 350 350
310 310 310 313 310 316 315 315 315 311 319 314 313 313 312 312 313 314 314 314 314 315 315 315 317 318 320 322 321 324 323 320 318 318 320 320 321 330 354 352 351 350 353 351 348
311 312 310 308 312 314 316 311 314 317 316 314 312 312 311 311 313 313 313 314 312 313 313 313 315 314 316 316 318 321 317 319 322 321 320 319 320 320 347 346 349 350 352 348 348
312 313 313 312 311 314 314 313 320 319 318 317 316 314 313 314 313 314 314 312 313 312 311 313 314 314 315 314 316 316 317 319 324 323 321 320 322 322 326 336 345 346 347 343 340
315 314 317 317 317 315 310 317 316 317 316 317 317 317 317 317 314 314 313 313 313 312 315 314 316 316 316 315 315 315 319 317 319 318 321 322 322 323 323 323 345 347 341 340 340
316 315 317 317 317 315 314 321 316 315 315 315 317 316 316 316 316 314 314 314 315 314 311 312 314 313 315 314 314 312 313 317 315 324 324 323 324 323 325 332 335 351 348 341 340
317 316 317 317 317 312 320 321 315 314 314 315 315 315 314 314 314 314 314 315 315 314 312 311 311 312 314 313 315 313 312 311 313 317 321 322 322 321 327 329 331 331 334 346 341
312 314 314 316 313 312 312 313 313 312 312 313 313 313 313 313 313 313 315 315 314 313 314 312 310 312 314 314 314 314 312 311 313 316 319 320 323 328 328 326 328 331 332 335 344
312 315 315 316 313 312 311 312 312 312 310 312 312 310 310 311 313 312 313 313 315 315 315 312 310 312 313 311 312 314 313 313 312 309 315 318 319 323 324 326 330 331 337 340 343
312 312 309 306 307 312 312 312 313 313 312 310 309 309 309 310 309 311 312 313 313 315 319 311 308 311 313 313 312 314 314 312 312 311 313 313 316 321 323 326 329 331 329 345 345
309 311 310 311 309 309 309 311 312 312 311 309 312 311 310 310 309 311 311 309 311 313 312 310 312 314 314 314 314 315 315 315 313 314 315 313 313 320 317 322 324 330 328 333 337
312 312 311 309 310 309 308 311 312 313 312 311 312 312 310 311 311 311 309 308 310 307 308 310 315 314 314 314 313 314 314 314 314 314 314 314 314 316 322 324 328 325 327 335 339
315 315 309 310 310 309 311 313 313 312 312 312 312 311 311 312 311 309 307 306 307 309 307 310 312 311 312 314 313 313 312 314 314 314 315 317 313 322 326 327 327 329 329 336 336

GFSSW_925_thetae_081.txt.gz
Theta_e
305 306 307 307 307 307 307 305 307 307 306 307 307 306 306 306 310 314 315 310 311 323 322 327 333 328 331 339 345 352 362 363 361 363 362 359 360 356 353 356 352 352 350 348 348
305 307 307 307 307 307 307 305 307 306 306 309 308 306 306 309 314 316 312 311 316 328 328 331 328 325 327 332 346 353 361 361 356 356 356 357 358 355 352 355 356 352 347 347 349
305 307 307 307 307 306 306 306 306 306 306 309 310 306 308 312 319 325 324 310 326 319 321 323 322 324 331 333 340 346 356 352 353 355 352 354 357 351 353 358 356 353 349 348 348
305 307 307 306 306 306 306 306 306 306 307 309 310 308 312 316 319 325 315 313 316 318 317 316 317 322 330 335 333 339 340 345 345 354 350 354 356 355 353 358 353 350 347 348 348
306 307 307 306 306 306 306 306 305 306 307 310 310 312 317 317 318 320 314 314 317 317 316 315 319 326 330 330 333 336 338 338 337 352 349 352 355 355 355 353 353 350 347 347 346
306 307 306 305 306 306 306 306 305 306 307 310 311 311 313 312 316 321 318 318 319 317 316 315 319 325 331 334 334 334 335 336 334 337 350 354 352 350 350 354 354 350 349 346 346
307 306 305 305 306 306 306 306 305 307 307 310 315 314 318 312 321 321 321 319 319 319 316 315 319 328 333 337 333 333 336 331 343 355 358 351 356 353 354 353 354 351 349 347 344
306 306 305 306 306 307 307 306 305 308 308 311 316 321 320 322 323 322 323 325 319 317 317 317 318 323 330 331 329 329 323 325 337 358 359 352 362 354 355 355 355 352 349 349 345
305 305 306 307 308 308 307 305 308 311 310 314 320 321 325 324 319 320 323 323 326 322 318 319 319 320 323 328 325 324 331 330 327 355 361 354 360 358 355 355 356 352 350 350 345
305 306 307 308 309 308 306 311 313 312 318 320 321 320 318 320 316 316 316 318 325 322 322 321 319 320 323 326 332 331 331 327 325 333 340 361 359 358 355 357 356 352 350 350 345
306 307 308 309 309 306 307 312 308 311 321 317 320 319 320 319 314 315 316 316 321 321 323 322 322 326 327 327 327 327 326 326 325 325 325 346 360 356 355 357 356 353 351 350 347
308 309 309 310 308 306 308 308 312 313 312 314 321 320 320 319 314 314 316 316 323 325 324 325 327 326 327 328 327 327 327 326 324 323 321 352 360 356 352 356 355 353 352 350 347
309 309 309 310 309 310 308 313 314 313 310 311 312 313 313 315 312 313 316 317 323 324 326 328 330 329 329 330 328 326 325 326 326 324 344 356 361 358 354 350 345 348 347 349 348
309 310 310 309 310 310 312 314 314 311 308 311 314 313 312 311 312 314 317 315 316 324 326 328 328 328 328 329 326 328 324 326 325 321 322 327 323 357 356 355 352 347 349 347 349
310 310 310 310 310 311 314 315 315 310 316 316 312 313 309 311 312 314 314 313 315 315 316 321 319 328 327 326 325 326 325 324 323 320 319 320 322 328 357 359 354 350 350 347 347
311 311 311 310 310 314 314 315 314 310 317 313 313 312 311 311 312 313 313 312 313 314 313 315 316 318 320 324 324 324 323 317 314 316 320 319 319 320 355 358 353 349 348 348 348
313 313 312 309 311 311 314 311 313 316 315 318 312 311 310 311 312 313 313 311 311 311 311 312 313 313 314 315 315 315 316 318 321 320 321 316 319 320 335 347 351 349 348 346 349
315 314 315 315 314 314 313 311 317 318 316 315 316 312 314 312 311 312 311 310 312 309 310 312 313 314 314 314 315 314 315 318 323 321 320 316 321 321 320 331 343 345 345 345 349
316 315 317 317 317 315 311 314 315 315 314 315 315 316 315 315 314 313 313 313 313 311 312 313 315 313 315 313 313 314 313 316 316 316 319 319 320 322 328 331 339 342 343 345 348
318 318 316 313 317 314 312 315 314 313 313 314 315 314 315 315 315 313 313 313 314 312 309 313 314 312 314 313 313 312 312 315 313 322 324 320 322 321 329 330 329 330 341 343 340
317 313 314 315 315 311 318 314 313 312 313 313 313 313 313 313 313 313 313 313 313 313 310 310 310 312 312 313 314 311 312 310 309 314 319 321 321 323 328 328 328 328 332 334 331
313 311 314 313 311 306 309 311 312 310 310 311 311 310 312 311 311 311 313 312 314 312 313 310 307 312 313 310 311 311 312 309 313 315 313 316 320 322 322 324 328 332 340 344 340
313 313 313 313 311 308 310 311 311 310 309 310 310 310 309 310 312 311 313 312 314 314 314 312 308 311 311 310 310 311 312 310 308 306 312 314 316 315 316 321 327 333 335 338 344
308 310 307 305 304 309 310 310 312 311 310 309 309 308 309 309 307 311 311 311 311 314 319 310 306 309 311 313 311 314 314 311 309 310 312 313 314 314 314 318 322 325 337 339 341
306 310 308 310 309 308 308 310 311 312 309 308 310 310 310 310 309 310 309 308 309 310 310 308 311 314 312 311 313 313 313 314 312 312 314 313 313 313 314 320 327 328 328 337 345
312 311 306 306 307 307 307 310 312 312 311 311 311 311 310 311 311 312 310 309 309 307 306 306 312 313 312 312 312 311 310 311 312 312 312 312 313 321 322 325 324 324 326 332 334
313 312 306 308 308 310 310 312 313 311 310 310 311 309 311 312 310 308 306 306 308 309 307 308 308 308 311 311 310 306 312 313 313 315 314 315 319 320 320 321 323 321 323 330 331

GFSSW_925_thetae_084.txt.gz
Theta_e
302 306 307 307 307 307 306 306 305 309 307 306 308 307 306 307 308 314 314 310 310 319 323 333 336 333 339 341 343 351 361 363 361 361 361 359 361 357 353 354 353 351 349 348 348
302 306 307 307 307 307 306 306 306 306 306 306 309 307 306 309 314 315 310 310 313 321 327 335 331 325 326 338 346 352 361 360 355 356 357 357 358 356 354 354 353 352 348 348 348
302 306 307 307 307 306 306 306 306 305 306 307 309 309 307 312 316 318 324 310 327 330 326 326 325 326 331 333 341 351 359 354 354 354 352 357 357 351 354 353 355 353 350 349 347
303 307 307 307 306 306 306 305 305 305 306 307 309 311 311 316 319 323 320 312 331 326 324 319 320 325 330 334 334 341 344 349 352 353 352 357 351 353 352 358 350 348 349 348 347
306 307 306 305 305 305 306 306 305 305 306 308 310 312 316 315 314 320 312 325 322 317 316 314 319 323 330 331 333 338 339 337 339 352 349 353 355 355 354 354 349 348 349 348 347
306 306 305 306 306 306 307 306 306 305 306 308 314 312 312 309 313 318 313 317 318 317 315 316 317 324 327 331 333 334 335 334 333 345 350 355 354 351 352 354 352 349 349 348 346
306 306 305 306 306 307 308 307 307 304 307 308 314 314 317 308 322 319 313 316 317 317 313 315 318 324 331 336 333 332 335 328 351 347 352 351 354 353 354 357 356 351 348 347 346
307 306 306 307 308 308 309 307 305 305 307 310 318 319 319 319 325 320 318 319 319 318 317 316 316 322 327 328 325 326 323 325 351 357 353 350 359 354 356 357 356 351 349 348 346
306 306 307 308 308 309 309 307 310 310 308 313 320 320 322 322 323 323 320 323 320 318 317 317 317 319 322 326 326 324 331 329 328 354 357 352 355 353 355 357 355 352 349 347 346
307 308 308 309 309 308 306 313 316 312 316 319 321 319 317 320 316 319 323 322 322 320 320 318 316 319 321 325 335 331 329 326 330 355 358 359 357 353 355 356 355 352 350 348 345
308 309 309 309 309 308 307 314 307 309 321 313 313 315 318 318 315 313 321 320 320 321 323 320 320 321 323 325 327 327 326 326 325 324 325 328 349 353 355 355 355 353 350 349 346
309 309 309 310 309 309 309 308 311 311 311 314 319 317 319 319 315 313 314 316 322 323 322 323 322 322 324 326 326 326 327 326 326 324 322 332 343 354 354 355 354 354 351 349 348
309 310 310 310 310 309 308 313 312 311 309 310 313 315 313 315 314 311 312 317 321 324 324 325 327 326 328 327 327 326 325 326 327 324 345 351 340 357 353 350 348 352 350 348 348
310 310 311 310 308 311 311 313 313 310 307 310 312 313 310 310 312 313 315 316 319 323 324 326 327 328 328 330 327 329 324 326 326 321 321 325 320 343 354 353 351 347 348 346 347
311 311 312 309 311 311 314 313 311 309 314 314 312 311 308 309 311 313 312 313 314 317 324 327 321 327 327 326 325 326 324 324 324 320 319 320 318 320 351 355 353 351 347 346 344
312 313 312 309 310 313 312 314 311 310 316 314 311 311 310 310 311 312 311 309 312 312 313 314 314 319 324 324 324 323 318 314 313 314 319 319 318 318 354 354 353 350 350 347 345
314 314 313 310 310 310 314 309 312 316 314 316 314 310 309 309 311 310 311 311 310 311 311 312 313 312 313 314 314 315 315 317 320 319 321 314 318 319 320 325 348 349 348 347 345
315 314 315 315 315 315 312 311 316 316 315 314 314 313 315 312 312 312 312 312 311 309 309 310 313 312 313 313 314 314 315 317 323 320 320 315 320 328 326 328 333 344 344 344 345
317 316 313 312 314 315 310 314 314 314 313 314 313 314 314 314 312 312 312 312 312 310 312 312 314 312 313 312 311 314 313 313 314 314 317 317 320 319 326 328 328 330 340 342 343
318 317 313 314 315 312 310 313 313 312 312 313 315 313 315 314 314 312 312 312 313 311 309 311 313 311 312 312 311 310 310 315 313 321 323 319 320 323 326 326 327 331 331 332 334
315 309 313 314 312 308 311 313 312 310 312 312 313 313 311 312 311 312 312 313 314 313 309 309 308 312 310 310 310 311 311 309 309 312 319 321 326 316 316 321 325 328 335 338 341
311 311 313 312 308 303 307 310 310 310 309 311 310 311 312 309 310 312 314 312 312 312 312 310 306 310 311 309 310 309 310 308 312 315 311 315 323 313 312 316 323 325 328 338 342
311 309 313 311 309 307 309 310 310 309 309 309 310 309 307 308 311 311 312 311 311 315 314 311 308 309 312 309 310 312 311 307 305 305 312 316 318 313 315 320 326 327 328 341 342
305 310 307 304 302 308 309 309 311 310 309 309 309 308 308 307 306 310 310 310 309 315 317 309 307 308 309 311 311 313 313 310 307 311 312 312 313 312 324 326 325 324 325 331 331
305 308 306 307 307 306 307 309 311 311 308 307 310 310 308 309 309 310 309 308 309 310 309 307 313 312 311 312 312 312 313 312 312 311 312 312 313 313 323 325 323 321 323 329 331
311 309 303 304 305 308 307 310 311 311 309 310 310 311 309 310 310 311 310 309 308 307 306 305 313 311 311 311 311 310 310 310 311 311 310 311 313 319 320 319 318 316 317 324 331
312 310 306 306 307 309 310 312 311 310 309 309 310 309 311 311 309 308 307 305 306 308 306 306 307 306 309 310 309 312 311 311 312 319 317 312 315 314 314 315 318 314 314 318 321

GFSSW_925_thetae_087.txt.gz
Theta_e
302 305 307 308 308 307 307 307 307 307 306 306 307 309 307 307 307 313 313 310 309 316 336 339 335 343 340 350 347 351 362 363 360 360 359 355 359 357 352 355 353 351 349 346 344
303 305 307 308 308 307 306 306 306 307 306 306 307 309 307 311 314 315 310 309 311 319 336 332 330 338 334 344 351 355 363 359 356 355 357 358 360 357 358 357 356 354 349 347 344
304 307 308 308 308 307 306 305 306 306 305 306 308 311 308 314 316 316 324 310 312 326 331 327 327 326 328 337 348 354 360 356 354 354 355 359 358 350 356 357 356 355 351 347 343
307 307 308 308 308 307 306 306 305 306 305 306 309 311 313 315 318 320 321 311 325 327 326 324 326 327 330 336 342 349 348 351 350 353 354 358 353 353 353 358 353 351 348 345 344
308 307 308 309 308 307 308 308 307 305 305 307 311 312 316 315 314 319 312 329 332 325 322 323 324 328 327 333 338 347 343 341 342 350 352 354 354 354 357 353 351 350 347 347 345
308 308 308 309 309 309 309 308 308 306 305 307 312 313 313 310 313 317 317 331 321 318 317 322 323 327 328 333 338 338 340 340 336 340 349 355 355 355 353 351 352 351 350 349 348
308 307 308 309 310 310 309 309 308 306 305 307 316 314 315 310 325 316 326 324 318 317 318 317 321 328 332 337 335 336 336 333 352 340 352 352 357 355 354 352 354 353 352 350 348
307 308 308 309 310 310 309 308 306 305 305 309 319 319 316 322 324 319 320 319 318 316 317 316 320 326 330 331 329 333 329 334 355 350 353 352 360 353 355 355 355 353 350 348 348
308 308 309 309 310 311 309 314 315 309 307 314 319 322 322 321 327 322 321 320 320 319 318 317 318 324 326 335 334 331 342 331 353 355 356 356 357 357 356 358 356 353 350 349 349
310 309 309 310 310 310 309 316 318 316 319 321 321 322 320 323 321 323 321 321 321 318 319 318 318 325 328 335 338 338 335 330 341 357 357 357 357 356 357 358 358 355 352 349 349
309 309 310 311 310 309 312 315 313 319 321 317 315 317 319 318 313 323 322 323 322 323 323 318 322 326 334 332 332 331 333 333 333 340 335 333 335 349 355 358 358 356 353 351 350
310 311 311 311 309 309 309 311 313 312 316 315 319 318 318 318 314 317 322 323 324 325 323 320 323 324 329 330 331 331 333 333 329 327 327 330 344 356 357 357 358 356 354 352 350
311 312 311 310 310 309 308 312 312 311 315 313 315 317 316 318 314 314 322 321 326 327 325 321 322 325 329 331 333 333 334 331 331 328 348 340 347 358 356 355 356 354 353 351 351
312 311 312 309 309 311 311 311 311 311 314 312 314 315 315 316 313 313 316 321 324 328 327 326 326 328 331 333 332 336 329 329 329 330 330 330 333 340 357 359 357 357 355 352 351
312 313 312 309 311 313 312 312 309 309 316 314 314 311 310 313 315 315 312 316 323 327 328 329 330 330 333 333 331 334 328 330 330 329 326 325 328 328 353 356 359 358 357 354 351
314 313 311 311 310 312 311 313 310 317 316 316 312 312 313 312 313 313 314 314 315 322 322 319 318 326 331 328 330 326 324 322 322 325 329 327 327 328 341 341 337 350 356 354 351
315 314 314 313 313 314 315 312 318 320 317 318 316 312 313 313 314 315 316 316 316 325 326 316 316 315 315 324 323 326 328 328 328 329 330 322 326 337 335 335 339 337 349 353 351
316 314 313 312 311 315 312 316 321 317 317 315 315 316 316 315 315 315 316 317 316 314 316 319 318 316 316 317 324 328 328 327 330 329 328 322 330 336 332 334 339 342 347 348 351
318 317 313 312 313 314 316 318 316 315 314 315 316 317 317 316 316 316 316 316 315 315 320 318 318 315 315 315 316 319 323 320 324 321 327 326 326 328 328 333 337 338 342 343 346
317 314 312 311 312 312 316 315 314 312 313 314 318 316 318 316 317 316 316 316 316 315 312 315 318 314 315 315 316 318 316 323 324 329 328 326 331 329 327 329 335 339 342 346 345
313 317 312 311 310 314 316 315 313 312 312 314 315 316 315 315 315 316 315 316 315 316 314 314 317 317 316 316 316 318 319 317 322 323 328 328 330 319 324 328 337 339 338 343 348
312 317 312 311 315 310 313 312 310 311 311 312 313 313 313 313 316 317 316 315 313 314 315 313 316 317 316 313 313 314 316 317 326 327 322 327 327 321 326 330 333 333 334 337 344
316 314 312 311 315 313 312 312 312 312 311 311 311 311 311 312 316 315 315 311 314 318 316 314 315 318 317 316 315 317 315 314 314 317 326 327 324 321 328 330 330 332 332 338 340
313 315 313 310 307 312 313 313 313 311 311 311 312 311 312 313 312 314 314 312 311 317 316 314 314 316 317 318 317 317 315 314 316 321 321 321 320 320 329 330 329 329 331 336 337
312 312 309 313 313 311 311 312 313 313 311 311 313 312 311 314 313 313 312 312 312 311 313 314 317 316 315 314 314 314 315 314 315 316 320 319 318 324 327 327 325 326 329 331 327
317 314 309 310 310 313 312 313 313 312 312 312 313 313 313 315 313 314 312 312 312 312 311 312 317 314 314 312 312 312 312 312 312 313 314 314 316 320 321 321 321 322 326 323 321
311 307 313 309 312 314 314 313 313 312 312 312 311 313 314 313 312 311 310 310 310 312 312 314 315 314 314 313 312 312 313 312 313 317 318 315 320 318 320 318 318 317 319 316 313

GFSSW_925_thetae_090.txt.gz
Theta_e
304 305 307 308 308 309 309 309 308 307 305 306 307 307 309 306 306 317 315 314 312 329 343 340 336 339 347 352 352 353 366 363 361 360 362 355 359 357 354 356 354 353 353 345 343
306 307 308 308 307 307 308 309 310 309 306 306 307 309 309 306 316 316 315 311 311 333 339 334 334 339 342 350 352 354 364 360 356 355 358 357 360 357 358 359 358 355 347 343 342
309 309 309 308 308 308 307 309 309 309 307 305 307 310 310 314 319 318 322 309 311 327 334 328 332 333 330 339 348 353 360 355 353 351 353 358 360 355 359 362 359 358 350 343 342
309 308 308 307 309 309 309 308 309 309 306 305 307 312 312 320 319 325 321 309 316 328 331 328 330 328 328 332 341 355 354 352 350 348 350 358 355 355 355 359 356 353 347 343 344
309 308 306 308 309 310 310 310 309 309 307 305 308 313 319 320 317 328 316 314 327 329 327 328 328 327 329 330 336 351 349 345 342 346 347 353 354 355 358 355 354 351 345 344 344
307 309 309 310 310 310 310 311 309 308 307 305 309 314 318 316 319 324 326 326 326 326 324 324 325 326 326 329 334 342 348 346 341 339 346 353 356 354 356 355 355 351 346 344 344
308 309 310 310 310 309 311 310 309 307 306 305 310 318 318 314 326 322 328 325 323 323 324 322 322 326 326 331 331 341 342 342 347 340 346 351 359 357 355 355 355 350 346 345 345
311 311 310 310 311 310 311 309 313 309 305 306 311 320 319 321 325 324 326 322 320 321 321 321 322 328 330 334 333 343 338 345 347 345 350 355 362 358 354 357 357 351 348 348 347
312 310 310 311 312 311 310 315 316 308 305 310 321 323 322 324 326 323 322 321 320 320 320 320 323 325 330 333 332 343 349 343 351 350 353 357 361 359 356 356 357 355 352 351 350
310 311 312 312 312 310 311 316 319 317 319 320 322 325 324 323 325 322 322 321 321 321 321 321 322 324 330 331 335 345 346 341 348 351 351 356 358 359 361 357 357 356 354 351 347
311 312 313 312 311 309 315 318 323 323 319 318 318 320 322 321 323 323 323 324 323 322 322 322 322 324 327 331 334 336 343 341 343 347 346 351 346 359 358 359 360 357 354 350 346
312 312 312 311 309 308 315 318 316 316 320 319 319 319 319 320 320 324 323 325 323 321 323 322 323 323 327 333 335 336 340 342 336 332 333 334 337 344 356 356 359 359 357 352 349
312 312 312 310 309 312 315 315 314 314 319 317 319 319 320 320 318 324 324 324 325 323 324 323 324 324 330 336 334 334 338 337 337 332 338 338 341 349 352 354 356 357 356 354 352
312 313 311 310 312 315 317 314 314 314 317 315 316 319 318 319 317 322 323 325 326 327 324 323 324 326 329 334 333 334 334 336 334 334 339 336 341 342 354 355 357 359 357 355 353
314 313 310 309 316 318 314 315 313 314 318 315 318 316 318 318 317 318 321 322 327 327 327 326 324 328 331 334 334 334 333 333 335 335 333 334 335 343 343 353 357 357 358 355 353
314 314 310 313 315 315 314 315 313 320 319 317 316 316 316 316 318 317 318 319 323 326 327 328 325 327 332 333 333 332 333 333 332 334 334 333 333 340 343 343 342 344 356 357 354
314 313 313 313 318 315 317 318 320 322 318 317 316 316 316 316 318 318 319 320 325 328 328 325 327 325 326 334 334 332 332 333 333 332 332 333 333 343 340 343 345 338 347 356 355
315 314 314 315 314 316 318 321 322 319 320 318 317 316 316 317 319 320 321 321 320 323 327 325 325 324 322 329 333 334 331 331 333 332 331 331 333 342 339 342 343 346 348 350 354
317 318 316 314 315 316 321 322 320 319 317 318 317 317 318 318 319 320 321 321 320 321 326 324 322 318 318 320 323 333 333 329 329 330 331 331 338 335 336 341 345 347 349 349 350
321 320 316 314 314 318 321 318 317 315 315 317 318 319 318 318 318 319 320 319 320 318 319 322 322 319 318 319 320 326 330 329 328 332 332 331 337 337 337 343 343 344 347 350 351
319 321 316 313 314 320 321 318 316 315 315 318 318 319 319 319 319 320 319 318 317 318 319 320 323 320 320 322 323 323 327 327 327 329 331 332 333 328 336 342 342 343 346 351 351
319 320 315 314 320 318 318 316 311 314 315 316 317 318 319 319 320 320 320 318 317 319 320 319 322 322 322 318 318 321 325 327 329 331 330 332 330 329 334 339 339 342 347 343 344
318 318 315 317 319 318 315 314 314 315 314 315 315 315 316 319 322 320 318 315 318 319 322 319 321 323 321 320 320 322 321 322 324 327 330 329 331 331 334 338 338 340 342 339 337
317 317 318 317 317 318 318 316 314 313 314 314 314 315 317 319 319 320 318 315 315 318 317 319 320 322 322 323 322 322 320 320 322 327 329 329 332 332 332 334 336 337 338 336 334
317 316 315 318 317 316 316 315 314 315 314 314 315 315 317 319 319 319 317 316 315 315 316 319 323 321 320 319 319 319 319 318 321 324 327 328 330 331 330 330 331 333 334 332 330
318 316 315 316 316 315 314 316 315 314 315 315 316 315 317 319 318 319 318 318 318 316 317 318 321 320 319 317 317 318 317 317 316 317 322 323 327 325 325 324 325 327 328 328 326
316 314 317 312 316 316 317 316 315 315 315 314 314 316 316 315 315 315 315 315 316 317 317 318 319 320 319 315 315 315 317 316 316 318 319 321 325 322 323 322 321 323 324 324 323

GFSSW_925_thetae_093.txt.gz
Theta_e
306 308 308 309 310 311 310 309 308 306 307 305 306 306 308 307 306 315 316 317 316 316 339 332 338 339 343 349 353 355 366 367 359 362 359 357 361 357 356 358 355 354 351 344 342
308 308 308 308 309 311 311 309 309 307 306 306 306 306 308 308 316 319 318 316 313 318 341 335 339 338 347 348 354 357 366 360 356 356 359 358 358 357 360 358 358 354 347 343 343
310 309 308 306 308 310 308 311 309 309 307 306 306 307 308 313 323 321 318 314 311 326 334 334 332 338 341 345 354 355 362 355 353 355 356 357 359 353 361 363 357 353 348 345 344
311 310 308 308 308 309 310 310 310 308 307 307 306 308 309 321 327 332 321 312 310 329 335 331 331 336 335 337 346 356 358 352 350 349 355 359 357 358 358 360 355 351 347 345 345
310 309 309 309 310 310 311 312 312 310 308 308 307 308 319 322 320 331 318 310 317 332 334 329 331 333 330 333 340 351 353 349 347 349 353 357 356 357 359 356 355 351 346 345 344
310 311 311 311 311 312 311 312 312 310 308 306 308 310 319 320 320 326 322 320 320 330 331 328 329 329 329 332 337 339 351 348 346 345 353 355 355 357 357 357 356 351 346 345 344
313 313 313 313 313 313 312 311 310 309 307 306 307 318 320 319 324 325 325 321 324 329 329 326 326 327 329 332 334 341 352 349 344 343 350 355 358 361 357 356 355 350 347 345 343
312 312 312 312 314 313 313 310 314 313 307 305 309 320 323 318 324 326 327 323 325 327 326 324 324 326 329 332 333 342 349 350 348 343 349 357 363 360 357 357 355 350 347 345 343
312 312 312 313 312 312 311 315 316 309 305 308 320 324 320 322 326 326 325 323 324 325 324 323 323 326 330 333 337 340 351 349 350 347 350 359 365 360 357 357 354 351 347 347 345
312 313 312 312 312 311 311 315 319 316 317 320 323 323 326 321 324 326 323 322 323 324 324 323 324 326 329 336 339 341 350 348 351 350 350 363 365 361 358 359 357 352 349 348 347
313 313 312 312 311 309 316 319 325 326 320 322 321 323 323 321 323 324 323 322 323 324 326 324 324 325 327 329 334 336 345 349 346 348 349 354 359 364 360 358 360 357 352 351 351
313 312 312 311 309 309 317 322 319 319 322 319 320 321 322 324 325 325 324 326 326 324 324 326 326 325 326 328 330 335 341 346 345 347 346 352 357 356 360 361 357 359 357 353 350
313 313 312 310 310 313 320 318 317 318 321 321 319 320 323 323 324 324 325 326 325 324 323 326 326 326 325 329 333 337 340 343 346 340 340 340 348 352 351 354 360 358 356 352 348
314 313 310 311 313 318 319 317 317 317 323 319 318 320 322 322 321 323 323 325 325 324 324 325 325 325 326 333 334 336 336 340 339 340 345 340 347 352 351 353 356 358 358 353 350
314 312 309 311 318 320 318 317 317 318 324 317 317 320 321 321 321 323 322 325 327 326 326 325 325 325 328 332 332 332 332 338 337 337 340 340 341 346 352 353 356 356 357 355 352
313 313 311 315 316 318 317 318 317 320 324 318 319 320 321 320 319 324 324 324 326 328 327 327 325 327 328 330 333 335 333 336 337 337 337 337 339 347 348 351 349 352 355 355 352
314 313 314 317 320 318 318 320 321 324 321 319 319 319 320 319 320 321 324 322 325 328 331 329 329 326 329 332 334 336 336 336 335 337 337 334 334 348 345 344 344 342 353 353 354
317 314 320 318 319 319 320 324 327 325 322 320 318 318 318 319 320 320 321 322 324 327 330 329 330 328 330 334 335 335 335 335 335 333 333 332 340 346 344 345 346 347 349 351 352
317 320 321 319 318 320 324 328 327 321 319 320 319 318 318 318 320 321 322 323 324 326 329 328 328 325 327 332 331 335 335 332 331 331 331 338 344 341 344 346 348 350 352 353 350
320 323 321 319 318 320 325 322 321 319 318 319 319 319 320 320 320 322 324 323 323 322 324 327 327 324 323 324 327 329 333 334 332 335 333 336 343 343 346 347 347 351 356 354 354
320 323 320 319 319 323 324 322 320 318 319 320 321 319 320 319 320 321 322 321 321 323 323 325 326 324 323 325 326 329 331 333 332 331 334 337 342 341 345 344 348 351 350 350 350
322 322 318 319 323 321 322 320 312 319 318 319 319 320 320 320 321 321 322 322 321 322 325 324 325 326 323 324 324 326 329 332 334 334 331 333 337 339 342 342 348 346 342 342 342
320 320 318 319 322 320 319 316 317 318 319 319 319 318 320 321 322 322 321 318 321 323 325 324 324 327 325 324 323 325 326 328 330 330 333 333 339 338 341 341 344 344 343 339 338
320 321 319 319 319 320 319 318 316 315 317 318 317 320 320 322 322 322 320 318 319 319 320 322 323 325 326 327 324 325 325 325 327 330 331 332 340 341 342 341 342 340 339 338 338
319 318 320 321 318 318 318 316 316 317 316 317 319 320 321 322 322 322 321 319 319 318 321 323 323 323 324 321 323 324 324 323 325 326 329 337 339 338 337 338 338 337 336 335 334
320 319 318 319 319 318 315 318 317 316 318 317 318 318 320 323 323 323 322 322 322 321 322 322 325 325 322 320 320 321 321 321 322 324 327 336 336 333 331 329 331 331 331 331 331
318 318 320 315 319 319 318 318 317 318 316 316 317 318 319 318 319 319 320 320 322 322 322 323 324 325 324 322 320 320 321 320 321 321 324 332 332 329 328 326 327 327 327 327 327

GFSSW_925_thetae_096.txt.gz
Theta_e
312 313 312 311 310 311 308 308 308 309 311 309 307 306 306 308 307 312 314 315 316 317 317 328 326 330 339 346 352 355 367 369 360 360 360 358 360 355 355 360 356 355 347 343 343
313 313 313 311 310 310 310 308 308 309 309 310 306 305 307 309 317 317 317 317 316 316 322 330 330 335 342 345 351 362 367 364 357 357 358 359 354 357 360 361 357 349 344 342 342
310 309 309 309 311 313 313 312 310 309 308 307 306 305 308 312 322 321 322 318 317 314 328 333 335 339 341 346 351 360 368 356 356 356 357 359 356 352 360 364 356 349 345 343 343
311 311 310 310 311 311 313 314 314 311 309 307 306 306 309 320 331 328 320 318 313 317 331 335 336 337 342 345 346 361 350 352 356 356 356 359 355 358 358 360 355 346 343 344 343
310 309 312 313 314 314 313 314 313 313 310 307 306 307 318 323 319 328 321 317 315 318 332 337 335 334 339 337 340 353 350 354 349 354 356 357 357 360 352 352 354 346 345 344 343
314 313 313 313 313 314 314 313 312 311 310 308 306 309 320 323 323 327 321 317 315 323 336 334 331 333 335 332 335 346 357 355 346 352 357 358 357 358 355 356 352 347 346 344 343
314 314 314 313 312 313 314 312 311 309 309 307 306 317 324 322 324 326 322 320 318 326 335 331 328 332 331 331 334 339 346 352 347 350 357 355 359 360 358 355 353 348 346 344 342
313 313 313 314 313 313 313 311 311 313 309 307 306 319 324 320 319 326 325 321 320 325 331 329 328 327 329 331 334 337 346 357 348 346 354 356 366 360 356 355 352 348 346 344 343
314 314 313 313 313 312 311 311 313 309 306 306 317 322 323 321 321 325 326 323 325 328 329 326 326 325 327 331 336 337 348 351 350 345 357 357 366 361 357 355 352 349 346 344 343
314 314 314 313 312 312 309 314 311 313 312 317 323 324 321 324 321 325 326 325 325 328 327 326 325 325 327 332 337 339 342 349 352 347 355 358 364 361 358 355 354 350 347 346 344
313 313 312 312 311 309 316 319 324 328 319 321 323 324 324 324 323 327 324 323 324 326 327 326 324 325 326 330 336 339 342 351 350 349 357 351 348 360 359 355 354 352 348 347 346
313 313 311 310 309 308 314 325 320 321 323 320 322 321 322 322 325 326 324 324 324 326 326 327 325 325 325 327 329 336 337 350 349 348 357 352 356 359 359 358 355 352 350 351 350
314 312 311 311 309 311 319 321 318 318 320 324 320 320 324 325 325 324 324 324 323 324 325 327 326 325 325 326 328 330 335 350 352 350 352 358 362 346 359 356 357 355 353 351 351
314 312 310 312 312 319 321 318 318 318 322 324 319 320 324 325 326 324 324 325 327 326 325 324 326 326 326 326 328 330 334 338 350 349 345 346 360 366 363 358 351 358 357 355 352
314 313 310 311 316 321 320 317 318 318 327 320 320 320 322 322 324 325 324 325 327 325 324 324 325 326 326 326 329 332 334 342 344 345 339 340 352 353 354 363 346 353 358 354 350
316 313 313 313 314 318 317 318 318 320 325 318 319 320 323 322 322 323 325 324 326 327 326 325 326 326 326 327 333 333 333 333 340 341 340 341 341 353 358 356 353 350 358 354 352
316 315 313 316 321 320 318 319 322 323 324 320 319 321 322 322 321 324 324 324 326 329 329 328 327 325 327 328 331 332 335 335 343 340 338 338 342 356 353 350 353 357 356 351 347
317 317 316 318 320 320 320 325 329 329 325 321 320 319 321 321 321 324 324 325 325 327 329 329 331 329 326 328 332 332 335 335 341 338 336 335 350 349 346 345 343 350 351 356 346
316 318 319 323 322 321 324 332 330 326 323 321 320 319 320 320 321 321 323 325 323 326 329 331 329 329 327 329 332 334 336 334 332 332 333 345 348 345 345 346 348 358 359 357 356
317 322 325 320 320 322 326 326 325 320 319 319 321 321 319 320 319 321 322 324 324 325 326 330 330 328 327 329 332 335 333 335 337 338 337 347 350 351 348 357 358 358 357 358 355
319 325 323 320 320 324 328 325 321 319 320 321 323 323 321 321 321 322 325 325 324 324 325 326 328 327 326 328 331 332 333 333 334 335 337 350 348 346 350 357 357 353 350 350 351
325 325 319 318 324 324 322 320 314 320 319 319 319 323 323 322 322 324 326 324 321 323 326 326 326 328 326 325 325 326 332 332 336 339 336 349 350 344 349 352 349 348 346 344 344
325 320 318 320 326 323 319 318 319 320 319 319 318 318 319 323 324 325 324 320 321 321 327 327 326 329 326 325 325 326 327 328 331 333 340 341 347 346 350 348 347 346 344 343 341
325 321 321 320 320 320 320 319 318 317 319 320 319 319 318 319 320 323 321 320 320 320 323 325 325 328 329 330 326 325 327 327 329 332 333 340 341 345 345 345 344 343 341 340 339
320 317 320 320 319 319 319 317 316 318 318 320 320 321 320 322 320 322 321 320 320 319 322 321 324 325 326 325 324 324 324 326 327 329 342 342 347 345 344 342 340 338 337 336 335
321 322 319 319 320 320 316 319 318 317 319 318 321 321 321 323 325 325 321 320 321 322 322 322 325 326 325 323 322 324 324 325 325 326 335 338 344 339 337 337 337 336 335 334 333
320 320 322 317 320 319 318 318 318 320 317 318 318 319 322 322 321 323 321 322 324 324 323 324 323 327 324 323 321 322 323 323 322 324 337 342 339 334 334 334 333 331 330 329 329

GFSSW_925_thetae_099.txt.gz
Theta_e
310 311 309 308 309 308 309 310 312 313 313 309 306 305 305 307 308 315 314 310 312 318 318 325 323 321 324 338 347 354 365 368 359 360 364 360 360 357 354 356 354 346 345 343 343
311 311 312 311 311 310 311 311 309 311 312 310 306 306 305 309 315 318 310 312 313 316 316 319 325 324 326 336 344 360 362 364 358 355 361 359 355 354 358 357 360 346 344 344 344
312 312 312 312 312 312 312 312 312 310 310 311 308 306 306 311 322 320 324 313 317 316 317 319 328 327 331 338 343 359 355 356 357 354 356 355 355 352 359 360 349 345 344 342 344
312 312 312 313 314 314 313 313 313 312 310 309 309 307 307 315 331 327 322 320 316 317 317 319 332 331 339 339 346 359 356 355 353 355 354 353 350 354 359 358 355 343 342 341 341
314 314 314 314 314 313 313 313 313 312 311 309 308 308 316 323 319 323 320 318 317 314 318 326 334 335 337 336 347 351 353 353 353 356 356 353 357 361 356 356 351 342 342 341 340
314 314 312 313 313 313 314 314 312 312 311 311 308 308 319 320 325 324 320 317 317 313 319 329 337 333 332 334 336 350 347 348 352 357 356 356 356 351 349 349 349 344 342 341 339
313 314 314 313 313 314 313 314 312 310 312 313 310 315 318 320 325 326 321 318 314 314 325 332 336 330 331 332 328 351 355 355 354 356 358 358 364 356 350 349 352 346 343 341 340
313 313 314 314 314 313 313 312 310 313 314 315 312 318 319 318 316 324 322 321 317 318 327 334 334 326 326 327 329 332 342 356 351 357 356 357 368 360 353 353 354 346 344 342 341
313 313 314 314 313 313 311 309 312 310 316 317 314 319 324 319 320 320 325 321 319 319 323 330 329 325 324 325 326 331 335 348 354 356 356 357 360 347 355 358 349 346 344 342 342
314 314 314 312 312 311 310 310 312 316 317 316 317 321 321 322 319 321 327 322 321 321 325 328 322 322 321 322 327 334 335 340 353 357 357 356 359 360 360 351 349 346 343 341 343
314 314 313 312 310 309 316 319 320 324 322 318 320 326 323 323 321 322 327 325 323 325 326 325 322 321 322 323 325 331 335 341 353 358 359 360 356 361 357 352 350 347 343 342 341
314 313 311 311 310 307 310 319 324 318 320 318 317 319 322 321 322 325 325 323 323 324 325 324 323 324 323 324 326 329 331 353 354 351 356 356 361 361 359 355 351 347 345 343 342
315 313 310 310 311 311 313 320 320 319 317 318 321 319 320 321 323 325 321 321 322 324 324 324 325 326 323 323 324 325 326 348 355 354 354 356 359 354 357 357 351 347 347 345 345
315 314 311 310 315 316 318 321 319 318 316 322 321 320 320 323 324 324 324 322 322 323 323 323 324 325 323 323 323 322 326 333 351 350 366 360 363 351 356 362 355 350 349 347 348
315 315 313 310 311 315 319 318 318 317 324 323 320 319 320 323 325 323 323 323 323 325 323 323 322 323 324 324 324 324 327 345 345 346 352 356 362 351 354 361 360 358 352 350 347
314 315 315 315 315 320 321 320 318 318 324 320 319 319 319 322 322 324 323 322 324 325 322 323 323 322 323 325 324 326 328 341 344 344 349 343 356 359 358 361 351 353 356 354 351
314 315 316 315 318 319 320 318 321 325 326 322 318 319 319 321 322 323 324 322 323 325 326 324 324 323 324 324 324 328 330 331 341 344 346 336 348 358 357 351 347 348 346 350 352
313 314 317 317 318 319 322 326 330 329 329 325 325 319 321 321 321 322 324 323 322 323 325 325 327 325 325 325 325 326 328 332 342 343 341 341 360 355 347 350 348 348 346 350 348
313 317 320 322 322 320 324 329 329 327 324 320 319 319 319 321 321 323 323 322 322 322 324 329 328 327 324 325 325 327 330 327 330 332 331 349 349 350 345 345 353 346 349 351 350
315 319 321 323 323 321 323 327 325 324 323 319 322 322 323 322 321 320 323 323 324 322 324 326 327 327 327 325 326 332 332 331 330 336 337 350 350 350 356 362 360 359 358 356 353
320 323 324 322 322 323 327 324 324 322 319 321 321 324 324 325 323 324 323 322 322 322 323 323 326 328 327 328 329 331 331 331 329 333 334 353 355 353 358 355 354 353 351 352 344
320 327 324 320 324 326 325 322 317 319 318 319 319 321 321 325 326 327 327 322 321 320 323 325 325 325 327 325 326 327 330 329 331 334 347 351 352 351 352 349 347 346 345 346 347
323 325 318 320 324 323 319 318 319 319 319 320 319 319 319 325 328 325 325 320 320 321 325 324 325 329 328 323 323 324 324 323 324 329 341 342 345 350 348 347 345 345 343 342 343
324 322 322 320 318 319 321 319 317 316 319 320 319 319 319 321 320 324 322 320 319 318 325 323 323 327 328 327 326 323 324 324 323 327 337 344 355 353 349 348 345 340 337 336 336
326 317 319 318 318 318 320 319 318 318 319 320 320 320 321 323 323 325 324 320 319 319 322 321 324 324 326 327 322 322 324 323 325 336 340 339 349 348 345 341 338 335 333 333 331
322 323 322 319 321 321 318 319 318 318 318 319 322 321 324 325 325 325 324 324 326 323 322 321 325 323 325 324 322 322 322 323 324 338 338 346 348 343 339 336 336 334 333 331 329
323 324 327 323 320 318 317 318 317 321 317 317 319 322 320 319 319 321 320 319 323 324 324 324 327 328 324 323 323 323 322 322 337 341 344 345 341 339 337 335 332 329 328 327 325

GFSSW_925_thetae_102.txt.gz
Theta_e
311 311 311 311 310 310 310 310 312 310 309 308 308 306 306 305 307 312 314 309 309 322 326 326 324 323 320 328 345 354 363 365 361 361 364 358 359 355 351 350 346 345 345 343 344
313 312 312 311 311 312 312 313 312 313 312 309 307 306 305 308 314 317 309 309 314 313 320 319 323 320 320 327 332 357 356 360 357 357 362 358 358 356 353 356 355 345 342 345 348
315 315 315 314 313 312 312 314 313 313 313 312 310 306 305 310 319 319 323 311 312 315 315 316 321 322 323 329 341 352 358 351 355 356 357 356 355 353 352 355 351 346 344 347 346
315 315 315 314 314 314 314 313 312 313 313 313 311 307 306 314 320 327 321 317 313 314 317 317 317 325 329 331 344 353 352 351 355 355 355 356 352 349 349 353 347 343 343 346 347
314 315 314 314 314 314 314 314 315 314 314 313 313 310 315 320 317 316 320 318 317 317 316 317 321 330 329 335 352 356 356 349 355 353 351 351 355 359 354 353 351 343 343 345 346
314 314 314 314 314 314 314 314 314 314 314 313 313 312 317 313 311 321 320 317 315 317 317 318 330 332 334 335 341 345 351 353 355 356 352 358 357 352 353 352 352 343 341 342 346
314 314 314 314 315 315 315 314 314 313 314 314 316 315 319 313 321 323 318 318 316 315 317 317 324 334 332 328 329 333 347 352 355 358 357 352 355 357 351 350 348 343 341 339 344
313 313 313 313 313 314 313 312 310 311 315 316 316 317 314 311 313 313 322 319 316 315 314 322 325 332 330 323 324 331 351 351 358 359 358 356 359 351 349 352 352 344 342 340 345
314 314 313 313 313 311 308 309 310 311 315 319 313 317 318 318 317 319 321 320 317 314 315 324 328 327 322 323 321 324 330 352 361 358 359 357 354 354 352 354 354 349 342 340 346
312 314 313 312 311 309 314 310 312 318 319 316 316 318 317 321 319 320 321 322 317 316 318 321 323 320 318 319 324 326 333 341 356 361 357 357 357 354 353 355 357 349 342 340 345
313 313 311 310 311 308 315 319 318 322 319 313 315 322 323 321 320 318 321 319 318 319 321 324 319 321 321 320 321 323 326 357 361 358 358 356 354 355 353 354 357 346 341 341 345
314 314 310 310 310 310 308 314 321 318 315 319 316 320 321 319 318 318 321 321 321 323 323 320 321 320 321 321 322 322 328 359 356 355 356 358 361 359 356 356 352 345 340 341 343
314 314 313 310 310 312 311 314 320 318 315 315 318 317 317 317 319 319 320 320 321 322 322 321 323 323 324 323 322 321 323 354 357 354 354 355 356 358 355 354 348 345 340 341 342
314 314 315 313 313 314 313 319 318 317 311 315 317 320 319 318 321 324 321 320 320 321 322 322 323 324 324 323 321 318 321 344 354 357 363 353 355 353 351 356 352 348 344 341 340
313 314 314 315 313 310 318 319 319 312 320 322 320 320 318 321 322 322 323 321 320 321 319 321 322 322 323 323 321 321 322 337 350 350 355 358 357 351 352 360 357 354 348 346 342
313 313 313 315 315 317 317 318 317 314 323 326 318 317 318 321 322 322 322 321 321 322 322 320 321 319 319 321 322 323 339 341 342 345 351 350 355 358 358 359 358 353 349 349 347
313 312 313 314 315 318 317 314 318 327 324 325 323 321 316 319 321 322 322 321 320 322 321 323 323 321 320 321 321 324 324 328 346 353 348 348 353 348 354 356 356 357 355 352 349
312 313 314 316 318 318 318 318 327 327 325 323 323 319 317 317 319 322 322 321 320 320 320 324 324 323 323 321 322 324 324 328 338 340 340 345 355 354 348 346 348 349 349 349 349
316 315 318 321 322 321 313 320 324 325 323 323 319 318 319 321 320 321 322 321 320 318 321 323 325 325 323 324 321 323 325 323 328 328 339 349 350 345 351 349 347 345 351 352 349
318 318 318 320 322 319 317 323 323 322 323 320 321 321 323 324 322 320 321 320 321 322 318 323 326 324 326 323 324 323 326 332 326 334 343 351 352 353 352 362 358 350 353 352 345
319 317 322 323 322 317 321 320 322 321 322 319 320 319 323 325 324 325 324 321 320 318 320 321 321 323 323 324 324 327 329 327 325 326 337 353 352 356 359 358 358 356 352 347 345
316 319 322 321 317 316 321 321 320 316 316 317 318 317 323 323 324 326 324 320 318 317 324 323 319 322 324 323 323 326 328 325 329 330 343 344 357 352 350 349 349 350 347 347 346
316 317 319 319 317 319 317 318 315 316 317 317 317 316 321 322 323 323 323 319 317 318 319 320 320 326 324 319 319 320 321 319 320 328 334 340 352 349 348 347 346 348 347 345 343
316 313 310 308 308 313 315 315 315 315 317 318 317 316 316 318 318 322 322 319 318 317 325 321 316 322 326 321 322 321 320 321 318 325 339 346 352 352 349 348 346 343 340 339 341
317 312 311 313 312 314 313 315 316 317 314 315 318 319 318 321 322 323 322 322 319 323 318 318 321 320 320 321 320 320 321 321 323 329 331 348 350 351 348 342 337 335 332 331 332
318 319 318 315 313 313 313 315 316 315 315 315 320 319 319 322 322 322 319 318 322 321 319 316 321 321 321 321 320 321 321 329 335 343 344 346 347 342 336 333 332 331 329 328 328
321 320 319 320 312 311 313 316 318 318 316 317 319 317 316 316 316 316 318 315 316 319 317 320 320 323 325 321 320 320 321 325 339 340 344 347 343 338 336 334 331 329 328 327 324

GFSSW_925_thetae_105.txt.gz
Theta_e
313 315 314 313 313 314 314 314 315 315 313 313 312 309 306 305 305 311 312 308 309 324 323 324 324 324 324 330 343 350 359 362 362 363 363 354 354 354 351 349 346 345 346 345 346
315 315 315 315 314 314 315 314 315 315 315 314 312 313 307 306 311 316 308 308 310 325 327 326 326 321 318 322 330 353 356 358 354 355 362 356 354 355 352 351 349 347 344 345 346
314 314 315 315 315 315 315 315 314 315 314 315 313 311 309 309 315 310 320 309 310 322 323 321 323 319 321 326 336 353 357 353 352 354 356 355 355 351 353 357 348 348 345 347 346
314 313 313 313 315 315 315 314 315 314 315 314 314 311 310 314 308 325 323 319 311 317 316 316 317 322 325 329 341 351 351 353 354 355 357 356 353 352 352 353 347 343 345 346 345
314 315 314 313 313 314 315 314 315 314 314 314 314 312 316 317 310 310 315 313 311 316 317 314 318 325 327 329 349 352 355 351 356 354 353 352 354 352 352 351 346 346 347 346 345
315 313 313 313 313 314 314 315 314 314 314 314 313 314 316 306 309 322 320 311 312 318 316 316 319 325 331 333 345 349 352 353 355 355 351 356 354 354 350 352 347 348 347 346 346
314 314 313 313 313 313 314 314 313 313 313 314 315 315 317 309 321 323 318 316 318 317 314 316 321 332 333 332 329 333 355 354 356 356 355 351 356 357 352 351 347 346 347 346 346
312 313 314 312 313 312 311 310 309 312 314 315 315 317 311 311 313 318 321 318 316 316 314 319 322 329 334 331 324 331 347 361 357 358 353 353 359 354 350 352 350 344 346 347 347
314 314 312 311 312 311 310 311 312 315 316 317 314 317 313 314 318 316 315 320 316 315 314 316 324 328 326 322 321 321 335 353 361 358 358 354 356 353 351 352 352 343 341 344 346
314 313 310 310 310 309 315 312 317 318 319 317 316 316 316 318 318 317 316 320 315 313 315 318 321 319 316 318 325 326 328 348 362 360 360 357 355 354 352 353 355 350 341 344 346
313 314 311 310 310 310 310 317 316 318 318 310 311 316 319 319 319 317 320 319 317 316 317 319 320 320 320 320 320 322 325 362 361 354 352 354 356 354 352 354 356 355 339 345 346
313 314 314 311 310 310 310 312 318 318 317 317 315 317 318 319 317 317 321 318 318 318 321 319 320 319 320 320 321 322 342 359 357 356 357 353 357 355 353 354 354 354 340 345 344
312 313 314 314 312 313 311 312 316 317 316 315 317 316 316 316 316 316 319 319 321 321 322 322 322 321 322 322 322 320 326 355 358 354 355 358 358 357 353 352 353 353 339 344 344
313 313 313 314 312 313 311 314 316 316 311 316 317 319 317 317 319 320 320 321 320 322 320 322 322 323 323 323 321 322 319 347 355 353 354 353 358 355 358 357 355 351 341 344 344
313 313 312 313 315 311 316 317 317 312 323 321 320 318 316 318 320 322 320 320 319 321 319 322 322 322 323 323 320 321 321 340 352 353 354 359 352 350 357 360 357 353 343 342 344
313 314 312 314 314 317 316 317 314 315 327 324 319 321 316 320 321 322 321 319 320 321 320 320 319 320 320 321 320 322 339 342 341 344 350 354 353 355 356 357 355 353 347 342 344
314 315 313 312 316 317 316 313 319 324 322 324 321 321 318 317 321 322 322 320 320 321 320 320 322 320 319 320 319 322 333 340 350 350 350 344 352 344 350 351 353 353 349 345 342
315 316 314 315 316 316 317 315 326 327 324 322 322 318 317 316 319 321 320 321 319 319 318 321 323 321 320 319 318 319 325 328 344 348 344 345 348 347 348 347 349 351 351 351 350
316 317 315 317 321 319 311 317 321 322 322 323 319 320 319 322 320 321 320 319 319 317 320 320 324 323 321 320 319 322 323 321 325 326 344 347 347 346 350 347 352 352 352 353 350
317 318 317 319 320 317 314 320 319 320 322 318 321 319 322 322 322 319 321 319 319 319 318 319 323 323 324 321 325 320 321 327 323 330 344 350 353 353 357 354 347 353 351 349 349
317 317 319 320 320 313 318 316 320 319 321 319 318 320 321 324 323 324 319 320 318 318 319 319 320 323 322 321 323 327 328 323 322 324 343 351 352 353 355 357 356 353 349 348 349
314 318 319 320 315 313 317 320 318 315 315 315 317 318 322 323 322 324 320 319 317 319 321 320 316 322 324 321 319 324 326 324 327 333 337 343 353 351 353 352 351 350 348 346 342
313 315 317 319 313 316 316 319 316 314 315 316 316 316 319 319 322 323 323 318 315 318 318 319 318 324 323 319 319 318 318 319 320 327 336 344 353 350 349 349 348 349 347 345 346
314 310 308 306 305 311 313 313 314 315 315 315 315 315 315 318 318 322 323 322 319 321 325 318 316 321 323 321 320 320 320 318 318 322 337 342 357 355 351 346 343 343 343 342 341
312 312 310 312 312 311 312 314 315 315 314 315 319 318 317 320 319 321 319 319 321 324 317 317 320 320 320 319 319 320 325 321 320 324 332 350 354 352 350 345 338 337 338 336 336
317 318 316 314 309 311 309 314 316 314 314 317 318 316 317 320 321 322 317 316 320 319 319 316 320 322 324 322 319 320 319 333 339 345 344 348 350 346 342 333 332 332 330 330 329
319 318 317 315 309 312 312 316 317 314 315 316 318 316 316 316 314 314 316 314 314 315 315 320 320 321 325 320 319 321 319 321 341 340 346 351 347 340 337 334 330 329 327 326 326

GFSSW_925_thetae_108.txt.gz
Theta_e
315 315 315 315 315 315 314 313 315 315 315 316 313 312 313 308 305 310 310 307 308 315 319 322 327 325 336 338 344 348 357 360 363 364 360 354 354 354 351 347 346 345 345 344 346
314 315 314 315 314 315 315 315 315 315 315 314 315 312 310 312 312 314 308 307 309 323 320 328 324 319 317 323 337 352 355 357 352 356 357 353 353 354 350 350 349 347 345 346 346
314 314 314 313 314 314 314 315 315 314 315 313 314 313 309 311 312 305 319 308 315 328 324 322 322 318 321 324 333 351 355 353 355 355 351 355 354 351 352 351 346 349 348 346 346
314 314 314 314 314 314 314 313 314 314 314 314 314 313 309 313 308 321 321 309 312 326 322 318 318 321 324 328 336 352 351 352 352 356 357 356 351 352 353 351 344 346 346 346 345
314 314 313 313 313 313 313 314 313 314 314 314 314 312 315 314 308 308 316 315 312 324 316 313 319 322 327 328 346 349 352 354 355 356 355 353 353 351 352 349 343 346 345 345 344
315 314 313 313 313 313 313 313 313 314 313 314 314 314 314 307 310 317 322 311 314 321 315 314 318 324 329 331 343 344 351 355 355 355 353 354 353 350 349 350 345 347 346 345 344
314 314 314 313 312 312 312 312 312 312 312 313 314 316 316 307 321 326 319 313 316 315 313 315 319 326 332 333 329 341 353 355 356 353 355 352 355 357 352 348 346 348 346 345 344
313 313 312 312 312 310 309 309 310 312 313 313 314 316 307 310 313 324 318 319 316 315 315 316 318 327 333 331 321 338 351 361 357 355 354 351 360 356 352 351 349 349 347 346 345
314 313 312 311 311 310 312 311 314 314 314 314 314 315 308 314 314 317 318 317 315 316 315 314 320 325 326 321 321 320 347 356 361 355 355 354 356 352 351 352 349 348 347 346 346
313 313 311 310 310 310 316 312 317 317 316 316 316 315 315 318 318 316 315 317 313 311 313 316 318 320 315 318 327 325 326 352 361 358 358 358 356 354 352 352 351 348 347 347 346
312 312 313 313 311 309 310 315 313 314 317 311 311 314 315 318 318 316 314 318 313 312 314 317 322 325 319 320 320 322 354 361 360 353 355 354 352 354 353 352 353 346 343 346 346
312 312 313 313 313 311 310 310 315 316 316 315 315 313 315 317 317 315 318 319 316 316 318 319 323 322 321 319 321 333 355 359 357 355 350 352 355 355 353 353 353 353 339 344 344
312 312 312 312 312 313 312 313 315 317 314 314 316 315 315 316 317 316 317 316 317 320 321 324 324 319 320 320 320 320 348 356 356 356 352 353 357 357 354 352 352 352 339 343 346
312 312 312 312 312 312 311 314 315 313 312 318 317 318 315 314 318 317 319 319 319 320 320 322 322 321 321 322 320 321 322 353 356 350 356 350 358 358 356 355 353 352 341 344 345
312 313 314 312 313 312 313 315 315 310 322 321 320 317 314 316 318 319 319 319 319 320 320 323 321 322 323 322 319 321 321 350 350 351 351 358 350 346 356 358 355 353 345 344 344
312 314 314 312 313 316 316 317 311 315 324 322 320 320 316 317 320 320 320 318 317 319 319 320 319 319 320 320 320 329 342 341 340 344 351 351 351 353 359 356 354 350 349 344 344
314 315 315 312 314 315 316 312 317 321 320 320 321 319 318 316 320 322 320 320 319 320 320 320 321 320 318 319 318 323 336 346 349 350 349 341 352 344 348 352 352 350 348 342 344
315 316 315 313 314 315 315 314 322 325 323 320 320 317 317 316 318 320 320 320 318 317 316 320 322 320 318 319 319 322 329 340 348 349 347 345 352 343 347 345 348 347 348 341 344
316 317 317 316 319 317 309 315 319 320 322 321 317 319 319 320 319 320 319 319 319 316 320 319 321 321 318 317 318 320 327 324 330 324 344 345 346 344 349 351 350 352 350 347 344
317 317 317 319 318 315 313 317 317 318 321 319 319 319 321 322 322 320 319 318 319 317 316 318 320 321 323 321 323 320 318 325 321 330 339 348 351 350 354 353 354 354 354 351 346
315 314 318 318 316 311 316 315 318 318 319 319 317 319 321 323 322 320 319 318 317 319 316 317 319 322 321 320 324 326 326 320 321 326 344 349 348 352 353 349 354 353 353 351 348
311 316 318 316 314 310 315 318 317 315 313 315 316 319 321 321 322 322 318 318 315 318 322 318 315 321 323 320 318 322 325 322 326 337 336 340 348 352 353 354 349 349 349 347 346
312 314 316 317 314 312 314 316 315 314 314 314 315 315 316 319 323 323 320 318 318 317 318 317 317 321 322 317 317 317 317 319 320 329 339 341 347 351 350 350 349 348 347 345 343
310 311 308 304 304 312 313 313 314 314 315 315 316 314 316 318 317 323 322 321 320 325 324 319 315 319 321 320 318 321 321 317 317 322 331 338 351 355 351 351 349 348 346 345 345
309 311 310 312 311 309 311 313 314 313 312 314 317 315 317 319 318 319 317 319 320 321 317 317 320 319 319 318 318 318 322 327 320 322 331 337 350 350 349 347 346 344 343 342 340
316 316 312 311 306 311 308 314 314 315 314 315 317 315 314 318 319 320 316 314 318 316 319 316 322 322 324 321 318 319 328 322 341 338 343 345 350 346 343 338 341 340 338 336 334
317 316 313 310 309 311 311 315 316 314 314 314 316 316 315 315 313 313 313 311 312 312 314 318 319 321 325 321 321 324 327 321 338 340 344 347 345 342 339 338 335 331 331 330 329

GFSSW_925_thetae_114.txt.gz
Theta_e
315 314 314 314 314 314 314 315 314 314 314 313 312 312 310 309 308 317 314 311 311 310 329 332 329 337 346 349 350 352 363 363 363 363 362 355 354 351 349 351 347 346 345 347 347
315 314 314 314 314 314 314 314 314 314 314 314 313 313 309 307 317 316 314 309 307 311 327 327 328 334 340 346 351 357 361 360 356 357 358 354 352 350 351 353 351 347 346 346 345
314 314 313 313 313 313 314 314 314 314 314 314 313 313 309 311 319 314 320 315 307 316 326 326 326 329 332 342 350 353 359 355 357 355 353 353 354 349 352 355 351 351 349 346 344
314 314 313 312 313 313 314 314 314 314 313 314 314 312 311 318 317 322 313 314 307 322 325 325 327 326 331 342 346 355 354 354 355 353 350 353 349 353 351 350 347 346 346 345 344
314 313 313 313 313 313 313 313 313 313 313 313 313 312 318 320 318 313 316 308 321 322 325 324 325 325 330 342 347 354 353 354 353 350 351 350 354 352 351 347 345 345 344 344 342
313 314 313 312 312 312 311 311 311 311 312 312 311 311 317 320 316 323 327 320 326 324 322 324 324 325 335 344 348 344 351 355 352 352 352 353 352 352 350 346 346 345 343 342 341
313 313 310 310 310 310 309 310 310 310 309 311 311 316 318 319 315 328 325 322 323 321 324 324 323 327 338 342 340 345 351 355 354 354 353 349 352 355 348 346 345 343 343 343 342
312 313 311 310 310 312 311 311 312 311 311 311 312 317 319 312 316 323 323 319 323 319 322 322 322 329 339 339 337 346 348 358 357 354 353 351 361 354 346 343 343 344 344 345 344
312 311 312 312 310 310 313 314 316 311 312 312 318 318 317 314 317 320 317 316 320 319 318 319 322 328 337 342 337 345 349 356 362 355 354 355 359 353 349 343 344 345 345 347 348
311 311 311 312 313 312 312 314 316 316 317 317 317 322 320 321 318 318 318 316 318 319 317 319 323 326 340 343 344 342 342 357 363 358 355 359 358 354 352 349 346 346 347 348 349
311 311 311 311 312 313 314 320 323 326 321 323 321 320 320 320 319 319 319 317 316 317 318 319 323 327 338 341 334 336 337 356 357 358 359 358 355 358 354 351 348 347 348 348 348
310 310 311 312 312 312 312 320 320 319 323 321 320 320 319 319 320 322 319 320 318 317 319 322 324 326 335 339 330 339 340 356 358 359 358 359 358 356 355 351 350 349 348 348 348
310 310 312 313 311 313 317 318 316 318 324 322 320 321 321 320 320 323 321 321 319 318 320 323 322 328 335 335 331 348 347 353 355 356 354 356 362 361 355 352 349 348 349 348 347
310 311 313 313 314 317 319 316 316 317 325 323 323 322 321 322 320 321 321 321 318 318 319 323 327 329 335 336 332 337 337 349 357 356 360 356 360 362 359 357 353 349 349 348 347
311 312 314 314 317 319 317 316 317 318 326 322 323 320 321 322 321 320 320 323 320 318 321 324 326 331 335 337 331 333 336 346 350 349 354 355 350 358 360 361 356 352 348 346 345
312 313 315 314 315 318 317 317 317 323 325 323 323 323 321 322 323 321 323 324 323 322 323 328 327 332 331 332 329 329 338 342 343 347 346 348 351 361 363 360 358 353 351 346 345
313 315 314 313 321 316 317 320 326 325 323 323 323 323 322 324 324 322 323 324 325 324 322 328 329 328 330 331 330 334 341 344 343 345 345 342 344 349 351 351 354 354 351 350 345
316 316 315 315 316 316 319 324 325 323 323 323 323 323 322 323 326 324 324 325 325 323 324 327 328 328 326 327 331 333 339 340 345 346 344 348 347 349 347 348 349 352 351 350 348
316 318 319 320 317 318 324 321 323 323 322 323 323 323 322 323 325 326 326 326 325 324 324 326 328 326 326 326 326 331 336 336 338 339 342 346 347 350 351 352 351 352 352 351 350
321 323 323 319 318 320 322 320 321 321 322 322 323 324 325 323 324 325 327 327 326 324 324 326 327 325 325 325 325 327 333 338 337 343 344 346 346 354 358 355 353 352 353 351 349
321 325 322 319 319 322 321 320 320 320 320 322 321 325 326 326 324 325 325 324 324 324 324 325 325 325 325 325 325 326 328 330 332 334 340 343 345 354 359 356 355 353 350 350 350
322 324 321 319 322 321 320 320 315 319 321 320 320 323 326 326 325 325 324 323 323 323 326 325 326 330 325 324 325 325 326 328 332 337 336 342 359 354 355 356 353 354 352 350 351
324 324 320 320 321 320 320 318 319 319 321 322 321 321 325 326 327 326 323 323 323 324 327 327 327 329 329 327 326 327 326 327 329 331 336 336 343 356 356 356 356 357 355 353 351
322 322 322 320 320 321 319 319 318 318 319 322 322 321 324 326 325 324 323 323 323 325 325 323 328 330 329 328 326 328 328 328 329 332 332 336 347 358 358 357 354 354 353 353 353
324 322 320 321 320 319 319 319 318 318 318 321 323 322 324 325 326 325 323 324 323 326 326 326 331 329 327 329 328 328 328 328 329 329 331 332 335 347 355 356 353 351 352 353 351
326 324 321 321 320 320 317 319 316 317 318 317 323 322 323 324 324 323 322 323 324 324 328 326 329 329 328 326 330 331 331 329 330 330 331 332 345 351 352 352 353 351 349 350 350
324 323 323 314 320 319 318 317 318 318 318 317 315 323 323 321 320 319 319 319 319 322 326 327 329 330 330 327 327 335 337 336 337 338 340 332 349 351 353 351 350 347 344 344 342

GFSSW_925_thetae_117.txt.gz
Theta_e
316 315 314 314 315 315 315 315 315 315 315 315 313 311 311 309 309 318 318 315 316 313 333 332 333 333 341 347 349 352 365 365 363 362 363 356 356 353 352 351 349 349 347 345 345
316 315 314 314 314 314 314 315 315 314 314 314 312 311 309 310 319 321 318 314 311 313 330 332 330 334 344 345 349 358 365 363 358 359 359 356 354 354 355 353 352 349 347 345 345
316 315 315 313 314 314 314 314 315 314 314 313 311 310 309 313 325 322 318 316 308 311 326 329 328 334 340 338 351 354 361 356 358 357 355 354 352 352 355 357 351 353 349 345 344
315 314 314 314 314 314 314 314 314 314 314 312 311 309 309 319 325 324 315 315 308 316 327 327 329 331 332 343 350 356 353 358 358 354 354 354 352 354 352 354 349 349 346 344 344
314 314 313 312 312 312 312 312 312 312 312 311 310 309 318 325 324 322 318 314 312 324 328 328 329 330 332 342 350 354 353 357 356 349 350 349 354 353 354 348 348 347 345 343 342
313 314 312 311 311 311 310 310 309 310 310 311 310 309 320 325 320 322 325 317 315 321 326 327 328 329 332 345 350 351 354 355 352 354 352 354 354 352 348 346 347 346 343 342 341
312 313 311 310 311 312 310 310 311 310 309 308 309 316 322 323 317 326 326 318 321 322 326 325 325 327 336 347 347 347 357 356 354 353 354 349 351 353 348 346 347 344 342 341 340
311 311 312 312 310 310 312 311 315 310 309 309 310 318 325 317 318 325 324 322 323 323 325 325 325 327 337 344 345 350 353 363 356 353 352 351 354 354 346 346 345 342 341 341 341
311 311 311 312 313 312 311 313 314 307 309 311 320 322 322 314 318 324 324 323 322 322 324 324 324 327 337 346 347 349 352 365 361 354 353 355 356 354 346 344 342 342 343 344 343
310 310 311 311 312 312 312 314 317 319 319 319 319 323 322 322 322 321 320 321 322 321 322 323 324 327 336 345 351 347 349 359 363 357 354 356 358 353 351 344 343 343 344 344 344
310 310 310 311 311 312 315 322 326 330 324 325 323 323 322 321 321 322 319 318 321 321 322 322 323 328 333 344 343 341 344 360 361 359 356 357 358 353 350 348 346 343 344 345 345
310 310 310 312 312 312 313 323 322 322 326 323 322 322 321 321 323 323 319 319 318 320 321 322 323 326 330 341 343 339 342 365 359 357 354 358 360 354 345 346 351 344 344 345 345
310 310 312 313 312 313 320 321 321 321 327 323 322 323 323 322 323 324 323 323 319 319 320 324 324 324 328 339 343 339 346 360 362 359 354 357 363 360 348 343 345 348 346 346 348
310 311 313 313 315 321 322 321 321 322 328 325 325 324 323 323 323 323 322 323 321 321 320 322 325 324 328 337 341 341 347 354 357 364 366 357 369 364 360 350 349 349 347 346 347
311 312 314 314 318 323 322 321 322 323 331 323 323 322 324 325 323 324 322 323 322 320 321 322 325 325 330 337 338 338 336 350 356 355 361 359 359 366 361 352 350 349 349 348 346
312 314 315 317 317 321 321 322 323 327 327 324 324 324 324 324 323 323 322 324 325 321 320 323 325 328 329 333 337 334 335 344 348 349 360 355 353 370 360 354 349 352 349 348 348
315 316 315 319 324 321 321 324 330 326 324 324 324 324 324 324 325 323 322 324 327 324 323 324 329 328 330 332 336 334 336 348 351 349 349 352 348 359 358 354 354 351 349 346 344
317 316 320 319 321 321 322 328 327 323 324 323 323 323 323 325 326 325 325 325 325 325 325 323 330 329 330 332 334 336 339 349 353 346 347 345 345 356 353 353 353 350 351 347 346
317 321 324 325 323 323 327 328 324 323 322 322 324 324 323 322 328 326 325 326 326 326 326 324 326 328 328 329 331 335 340 342 344 343 346 352 356 352 349 351 353 354 352 349 347
324 325 323 323 323 323 327 320 323 321 321 322 323 324 326 325 323 327 327 326 327 325 325 328 327 328 327 327 327 328 334 340 342 346 344 351 354 356 355 352 352 353 354 352 351
323 328 322 322 322 326 324 321 320 320 320 323 323 324 324 327 324 326 330 329 328 328 325 326 328 328 327 327 328 327 329 334 338 338 341 342 352 356 355 354 352 352 353 353 353
326 327 322 321 325 321 323 321 317 319 321 322 322 324 326 327 327 328 330 327 325 326 326 325 327 328 328 326 326 327 326 332 338 342 337 336 351 357 354 352 353 352 354 353 352
328 324 320 321 326 323 321 320 319 320 321 322 323 323 325 327 327 327 328 325 325 325 328 328 326 329 332 326 325 325 327 327 330 331 336 336 359 349 355 355 353 354 352 353 351
325 324 323 321 320 322 321 321 320 319 319 321 323 323 325 326 326 326 326 324 325 327 331 328 328 328 332 331 328 326 327 327 327 329 331 336 360 360 359 361 360 357 355 354 354
324 324 323 324 322 321 321 319 319 318 319 320 324 323 324 328 328 327 326 325 326 328 328 328 330 330 332 332 330 326 326 327 328 329 330 333 342 355 357 361 358 357 356 355 355
328 324 321 323 321 322 317 321 318 319 320 319 324 323 324 327 330 330 326 326 328 329 329 330 333 332 333 329 330 328 326 327 328 328 330 332 336 356 355 356 356 355 356 356 355
326 324 323 319 322 321 320 319 319 319 318 317 318 323 324 324 323 323 324 323 323 326 327 330 333 333 331 328 330 331 330 329 329 329 331 339 351 352 358 356 354 353 350 353 349

GFSSW_925_thetae_120.txt.gz
Theta_e
316 316 315 315 315 315 316 315 315 314 314 314 312 310 309 309 310 318 318 315 317 316 316 329 329 332 337 343 349 353 365 368 364 365 364 356 358 354 350 351 348 347 344 343 343
316 316 316 314 314 314 315 315 315 314 314 312 312 309 308 309 318 321 321 319 315 315 325 332 334 336 336 345 349 358 366 364 358 359 360 356 356 356 354 352 351 347 344 342 343
316 316 315 315 314 314 314 314 314 314 314 313 311 309 308 310 325 325 324 320 312 311 322 331 331 332 339 343 351 355 363 356 359 356 357 357 354 353 354 355 350 349 345 344 344
316 315 313 313 313 313 313 313 313 314 313 312 311 310 309 318 329 324 318 317 317 311 317 328 331 331 338 340 348 358 357 359 357 354 354 353 351 356 355 354 349 347 344 344 343
314 314 312 312 312 311 311 312 311 312 311 312 310 309 317 325 325 323 321 316 315 312 319 330 330 331 334 336 352 356 358 358 355 353 352 352 355 356 353 351 348 346 344 343 342
312 313 312 311 312 312 310 310 310 309 307 308 310 310 319 327 322 327 325 321 313 315 324 329 329 331 332 334 353 352 355 354 352 352 351 355 354 354 350 348 348 346 343 342 341
311 311 312 312 310 310 311 311 311 313 308 307 308 316 322 325 320 322 325 319 315 317 327 328 328 330 330 335 348 352 357 356 355 353 355 349 351 355 347 346 347 345 342 341 340
310 310 311 311 312 312 312 312 313 314 307 307 309 318 326 320 321 324 327 321 318 317 323 327 327 327 329 336 347 356 357 365 355 354 352 351 356 353 346 346 347 343 341 341 341
310 310 310 310 311 312 312 312 315 307 307 309 320 322 327 318 318 323 325 322 323 324 325 326 326 327 328 336 348 353 358 362 360 353 353 355 356 353 351 345 345 342 341 341 342
310 310 309 310 311 311 312 315 320 314 321 321 321 324 324 321 322 324 324 323 323 324 326 326 326 327 329 340 353 349 351 362 362 356 355 357 355 353 352 344 343 342 341 342 342
310 310 309 310 312 312 312 320 326 329 327 328 325 325 323 322 323 322 321 323 322 322 324 325 325 326 331 337 343 346 350 360 357 355 355 357 357 353 353 344 342 343 343 343 342
310 310 310 312 313 312 312 323 323 323 327 328 321 322 322 322 323 323 320 321 322 322 323 323 323 324 329 332 341 345 359 363 359 357 354 355 356 353 351 350 346 343 344 344 344
310 310 311 313 314 312 318 322 323 323 327 324 322 323 323 322 324 323 320 320 320 321 321 323 324 324 325 330 338 346 352 358 361 354 349 353 358 357 349 345 346 348 347 344 346
310 311 313 314 317 323 324 323 323 324 329 325 325 324 323 323 323 324 322 323 322 320 320 322 324 324 324 328 333 345 350 354 358 356 361 356 369 361 352 347 346 348 349 344 347
312 313 314 314 317 322 323 323 323 324 335 323 323 323 324 325 324 324 322 324 324 322 321 321 322 325 324 327 332 344 353 354 357 359 360 361 365 364 355 349 347 345 350 346 343
313 315 316 318 316 319 323 323 324 330 326 324 324 325 324 324 324 325 323 323 324 324 321 322 323 326 326 327 334 338 348 352 353 357 358 355 364 371 365 360 350 348 350 349 345
315 317 316 318 326 323 322 324 331 331 325 324 324 323 324 326 324 324 324 324 325 325 322 321 323 326 328 328 331 338 338 354 364 364 363 354 361 361 360 357 349 349 349 347 346
318 317 320 318 322 323 324 328 334 322 323 323 324 323 323 327 326 325 323 324 324 326 324 322 322 329 327 330 331 340 338 346 354 353 360 352 357 354 357 353 346 345 348 348 347
319 319 321 325 324 324 327 332 327 322 322 321 322 326 325 323 327 328 325 325 325 325 327 326 324 327 329 330 331 336 337 337 346 346 349 358 357 358 354 350 345 347 350 349 348
319 326 325 321 323 325 329 324 323 320 320 321 324 325 328 328 326 327 328 326 328 326 326 327 330 326 328 328 330 333 334 339 341 352 353 353 358 362 358 353 350 352 352 350 348
320 329 323 321 323 327 329 322 320 321 319 322 324 324 326 327 327 329 331 329 328 329 329 326 329 330 328 329 328 329 330 332 337 339 344 360 361 359 355 352 357 354 351 351 348
324 329 324 320 326 325 324 320 315 321 322 322 322 323 325 327 328 330 331 328 327 326 329 328 328 330 331 328 327 327 327 330 334 339 340 342 352 345 346 353 355 353 355 350 350
327 329 322 322 327 326 323 322 320 319 321 322 324 324 324 326 329 331 330 327 326 326 329 329 328 329 330 330 328 327 327 326 327 332 340 343 353 345 348 356 353 352 355 353 357
326 325 324 322 321 322 323 322 321 320 318 320 322 324 324 326 328 327 327 326 325 327 337 328 329 330 331 333 333 327 325 327 326 330 333 335 354 354 349 358 356 356 356 358 356
324 326 325 325 323 322 321 322 320 320 319 320 325 324 324 326 330 331 329 328 326 331 327 327 330 331 330 332 332 332 327 325 328 327 330 338 349 356 352 356 355 356 357 356 356
326 329 326 322 324 321 317 323 318 320 319 322 321 324 324 329 330 326 328 328 327 328 330 329 332 333 333 333 332 332 332 326 327 327 327 329 353 340 340 344 356 359 356 356 356
327 327 326 321 323 322 323 321 320 319 321 319 317 319 325 325 325 326 325 326 328 327 328 331 336 339 338 335 333 333 339 337 331 329 329 339 355 340 339 339 344 353 356 357 357

GFSSW_925_thetae_123.txt.gz
Theta_e
317 317 317 315 314 314 314 315 315 315 314 313 312 310 310 308 309 316 319 313 315 315 315 325 323 324 329 332 345 354 359 366 363 362 360 359 358 354 350 347 344 343 343 347 348
316 315 315 315 314 314 314 314 315 315 314 314 313 311 310 310 314 319 318 317 317 317 316 327 327 328 329 336 343 356 359 364 358 358 362 358 358 356 352 352 346 343 345 346 346
316 316 314 313 314 313 313 313 313 314 314 314 313 310 309 311 321 324 323 320 320 319 314 322 330 332 334 333 346 356 361 358 360 356 357 358 357 355 354 353 346 344 344 346 345
314 313 313 313 312 311 310 311 311 311 312 313 313 311 308 315 330 325 321 324 320 313 312 317 326 329 330 335 348 358 357 358 358 355 355 357 353 357 356 352 344 342 341 345 345
311 312 311 311 312 312 310 309 310 309 309 309 310 309 316 323 323 321 318 319 317 316 311 317 327 329 330 337 354 358 360 356 354 351 353 353 356 356 356 348 344 343 343 344 344
310 311 311 312 311 310 310 311 311 312 311 309 309 308 318 323 326 324 324 320 317 313 312 318 328 328 329 332 354 356 357 354 352 352 352 356 357 355 354 348 345 343 341 341 343
310 310 310 311 311 312 312 312 311 314 311 309 308 315 318 322 322 326 324 319 316 312 314 321 327 327 328 331 352 354 358 354 354 354 356 351 356 356 351 347 346 343 341 339 338
310 310 309 310 310 311 312 313 312 314 307 307 308 318 320 323 322 321 323 320 315 314 315 324 328 326 325 327 352 358 357 361 355 354 353 353 359 352 349 347 345 342 341 340 340
310 310 309 309 310 311 312 313 313 311 308 308 319 318 326 320 318 320 323 324 317 317 316 319 326 324 325 326 354 359 361 362 357 353 353 355 355 353 351 347 344 341 340 340 342
310 310 309 309 311 312 312 314 320 318 322 320 320 322 323 324 319 320 324 323 319 321 321 323 324 324 323 324 330 358 359 360 362 355 354 354 354 352 350 347 343 340 340 340 342
310 310 309 310 312 312 312 316 323 325 324 328 326 325 323 322 323 324 324 323 322 321 323 324 324 323 324 325 329 346 355 361 359 355 355 355 353 351 349 351 342 340 340 340 340
310 310 310 312 313 313 311 317 322 323 323 326 328 321 322 322 323 321 321 322 322 319 321 322 323 323 324 327 330 352 357 361 358 355 353 355 355 354 352 349 348 341 340 340 340
310 310 312 313 314 314 313 319 323 323 324 326 325 320 321 321 322 321 319 318 321 320 320 320 321 323 322 323 329 353 359 357 359 355 350 353 355 354 350 347 346 343 344 339 341
310 312 314 315 319 320 322 324 323 323 327 327 323 323 322 321 322 322 319 318 319 318 319 319 320 322 321 322 324 352 355 353 357 353 358 352 361 356 352 350 347 343 347 345 341
312 314 315 316 314 318 322 323 323 324 332 325 323 323 322 321 323 323 323 321 321 321 318 317 319 319 322 322 323 355 345 357 355 355 355 355 360 357 353 353 350 344 347 345 342
314 316 317 321 319 319 323 323 323 328 329 324 324 323 322 323 324 323 322 321 321 323 322 320 321 320 322 324 331 348 353 353 353 352 357 355 358 360 354 354 350 343 345 346 345
316 318 317 316 324 321 323 323 328 334 326 322 323 323 323 324 324 324 324 320 321 324 323 321 319 320 322 326 332 349 348 354 356 358 354 350 352 353 351 349 349 342 342 346 345
317 318 318 317 318 321 322 325 335 323 321 320 321 322 323 326 324 323 322 322 321 322 323 320 319 320 327 326 326 332 342 347 359 360 361 352 359 353 351 352 349 340 341 346 346
318 320 321 320 323 321 325 331 326 321 319 319 320 327 327 326 327 327 323 321 321 321 322 325 324 321 326 326 326 327 338 337 346 355 355 359 356 358 355 355 351 346 344 347 346
318 322 323 327 326 324 327 330 323 320 318 319 323 324 327 327 328 327 329 329 328 327 325 324 326 327 327 326 326 328 330 333 330 354 361 358 359 359 361 354 349 345 345 346 344
320 325 327 323 323 325 329 326 319 320 320 321 322 323 323 327 329 331 330 329 328 325 325 326 326 325 327 327 326 326 327 328 327 334 343 353 355 357 355 354 350 349 346 343 344
326 327 326 321 323 326 326 321 315 320 322 322 322 323 324 324 331 331 332 329 326 325 327 326 326 326 326 328 325 325 324 326 329 330 333 343 350 353 351 342 348 348 346 346 347
326 325 327 321 324 326 324 322 320 319 318 320 321 323 322 323 333 333 332 328 326 325 326 326 328 328 326 326 328 325 324 323 321 321 325 336 350 347 351 345 347 346 345 347 351
326 330 324 322 321 321 324 323 321 320 319 319 321 322 323 325 330 333 329 327 326 325 341 327 324 327 331 330 329 331 330 324 322 322 323 329 346 347 345 346 346 345 348 348 350
327 327 327 328 326 323 321 322 321 320 319 320 323 324 323 327 331 330 329 328 327 332 329 328 327 327 333 329 330 330 331 331 322 323 325 344 352 352 353 345 340 338 340 349 349
327 328 329 328 325 324 320 324 320 320 320 319 321 319 322 327 328 326 325 328 328 327 327 328 331 336 336 334 333 332 336 340 339 351 347 353 351 344 346 340 337 341 341 345 351
328 329 332 328 325 323 323 323 321 321 322 320 318 317 320 326 324 323 322 322 325 328 328 330 335 335 338 337 336 336 338 342 342 351 353 356 343 340 339 338 333 338 336 349 350

GFSSW_925_thetae_129.txt.gz
Theta_e
315 315 314 314 315 314 315 315 314 315 315 314 312 311 309 308 307 311 312 314 311 314 314 315 324 324 321 323 333 353 360 358 356 357 356 353 350 349 346 350 348 347 349 347 345
313 312 313 314 315 313 313 313 313 312 312 312 311 310 308 308 312 315 316 316 313 311 316 315 327 322 322 325 329 350 356 357 353 352 354 355 353 347 350 350 351 350 347 345 344
310 311 311 311 312 312 312 312 312 310 308 307 308 308 307 309 318 316 323 317 313 316 315 314 318 324 327 329 333 353 359 353 352 349 353 354 351 345 348 354 350 351 348 345 344
309 309 310 310 311 311 311 311 311 311 311 308 306 307 307 314 321 324 319 320 314 317 316 313 319 326 328 331 331 358 358 353 356 349 351 357 352 347 346 351 347 348 346 345 345
309 309 309 309 309 310 311 312 312 311 312 308 307 307 315 317 316 319 319 320 317 319 313 311 323 326 329 330 352 357 357 353 355 354 353 354 355 351 351 348 347 347 347 346 345
310 309 309 308 309 309 310 311 312 311 314 308 308 312 317 314 320 324 319 321 317 317 311 310 319 324 327 338 342 356 355 352 352 354 354 356 355 354 346 348 349 348 348 347 345
309 310 309 308 309 309 311 311 311 312 311 307 308 315 316 310 323 320 319 319 320 318 311 311 312 318 324 348 350 350 356 354 352 352 355 353 357 356 350 348 349 348 348 347 346
309 309 310 309 309 310 311 312 311 314 308 307 309 317 311 317 322 322 320 323 319 317 315 313 312 317 324 347 353 356 354 357 353 354 353 351 354 354 349 349 349 348 347 346 346
309 309 309 309 309 311 312 312 312 317 312 311 319 317 321 322 321 321 322 322 315 315 312 312 315 315 324 348 348 347 358 358 357 353 353 354 354 354 351 347 348 347 345 345 346
310 310 309 309 311 312 313 312 317 318 320 320 319 318 318 322 322 317 319 321 315 313 314 314 312 318 317 323 337 347 354 357 358 354 352 352 355 353 351 351 343 345 346 346 346
310 309 310 312 313 313 314 313 314 316 323 322 321 322 322 322 320 319 319 318 316 317 318 319 319 321 320 321 326 339 350 356 357 354 353 353 354 351 351 349 343 339 345 346 346
310 311 312 313 314 314 315 311 315 319 318 320 323 323 324 324 320 320 322 321 318 318 319 318 321 320 321 322 325 325 340 355 353 351 352 352 355 353 351 350 345 337 345 346 345
310 312 314 315 315 318 316 319 319 319 317 319 322 324 324 320 320 320 318 318 319 318 318 319 321 321 323 325 337 333 351 354 355 347 350 353 353 355 351 349 346 344 343 345 346
311 313 315 316 317 317 315 318 318 318 319 322 323 323 319 318 320 319 316 316 317 318 317 317 317 319 319 322 326 332 350 346 346 349 358 351 354 352 352 350 346 343 341 343 345
311 313 315 316 315 314 318 318 319 317 324 324 321 320 316 319 320 320 317 316 317 317 317 318 317 317 318 318 336 347 347 347 350 355 355 356 355 350 351 352 348 343 342 340 345
312 314 316 316 316 318 319 318 319 323 325 322 321 321 320 319 320 319 318 318 317 319 317 318 318 315 323 339 344 347 347 351 350 352 356 351 355 356 354 350 347 341 342 341 344
313 316 316 316 316 319 317 317 322 319 318 317 318 319 320 320 321 320 319 318 317 321 319 318 320 327 343 347 345 335 336 349 350 355 356 351 356 352 347 344 344 343 341 341 341
317 317 318 317 317 317 319 319 322 324 315 315 315 320 321 320 320 320 319 318 318 317 316 319 320 316 324 344 344 337 336 345 353 354 356 352 357 348 343 342 342 343 340 342 339
320 317 317 319 323 318 316 323 323 316 316 315 318 319 323 324 323 324 320 324 321 318 323 319 321 320 321 331 336 341 341 337 349 349 353 353 349 347 345 346 347 342 341 344 341
319 319 318 319 322 320 318 323 323 317 316 318 319 319 322 326 326 324 327 326 325 322 317 322 322 322 322 324 336 331 330 339 338 352 352 355 347 345 352 356 350 347 341 342 343
321 315 319 321 324 316 320 320 322 315 317 318 318 319 319 326 327 327 328 326 323 322 321 321 321 323 322 323 322 321 323 323 329 337 349 356 350 343 344 353 350 345 342 341 343
315 315 322 323 320 311 317 320 321 316 315 316 318 319 319 326 328 327 326 326 325 322 324 321 318 322 325 322 320 321 323 321 324 327 336 343 335 348 349 349 347 345 340 340 344
312 314 320 317 319 313 312 318 319 316 315 316 317 317 321 325 327 328 328 326 323 327 326 323 319 322 322 324 323 324 330 328 315 315 322 323 324 344 344 343 343 342 343 343 342
314 316 315 312 310 315 318 317 318 316 315 316 316 317 319 326 324 328 325 326 325 328 331 322 317 320 323 326 325 335 342 342 320 318 318 321 323 349 345 345 343 343 343 344 344
313 316 317 324 324 323 316 315 318 316 315 315 315 318 321 325 328 325 322 322 323 325 323 321 326 322 321 328 336 338 340 344 350 350 319 322 335 349 344 341 340 339 341 346 346
313 323 321 323 321 319 314 318 317 316 315 315 314 314 321 323 323 323 321 322 324 322 322 321 327 328 334 334 335 335 335 341 346 345 348 346 348 345 340 336 339 342 343 346 349
314 318 321 323 323 325 325 327 318 317 318 314 314 313 320 316 319 318 316 316 320 322 321 323 324 327 330 331 334 335 334 335 346 341 342 345 340 338 341 343 341 340 342 344 347

GFSSW_925_thetae_132.txt.gz
Theta_e
314 314 315 316 315 313 312 312 311 311 312 312 311 311 308 307 307 311 310 314 312 316 317 322 325 322 320 322 338 350 358 358 356 357 357 353 351 349 348 349 348 348 345 346 347
311 312 312 313 313 313 313 312 312 310 308 307 307 307 307 307 311 314 314 315 311 314 314 317 325 320 321 324 328 349 357 356 352 352 354 352 354 351 351 352 351 349 345 345 345
309 309 309 310 311 312 312 312 312 311 310 307 306 306 307 310 316 314 322 316 313 312 315 318 321 325 327 327 331 346 357 354 352 351 350 352 353 347 351 353 349 350 346 344 344
309 309 308 309 309 309 310 311 312 311 312 308 305 306 307 314 320 322 319 320 313 315 314 313 319 326 328 331 330 356 355 351 353 350 352 355 351 348 349 351 346 346 344 344 344
309 309 309 308 308 309 310 310 311 311 314 308 305 307 312 314 314 319 320 317 314 317 314 313 324 326 329 327 349 353 355 352 354 350 352 353 354 352 348 348 346 345 344 344 344
309 309 309 308 308 308 310 311 311 312 314 308 306 310 316 315 318 322 322 316 316 317 311 313 321 321 326 347 343 354 353 352 352 352 351 353 354 351 348 347 348 347 345 344 344
309 309 309 309 308 309 311 311 311 311 312 307 308 314 313 311 322 319 321 318 318 316 310 310 313 317 323 350 349 351 355 353 351 352 354 354 359 355 349 348 350 348 346 345 344
309 309 309 308 309 310 312 312 312 312 310 307 311 317 314 315 318 321 320 321 320 317 315 312 314 315 322 345 351 354 351 355 352 353 352 352 362 354 350 350 350 349 349 347 345
309 309 309 309 310 312 313 312 312 317 312 313 319 317 320 321 321 320 321 319 316 316 313 311 313 314 332 347 345 344 355 356 356 352 352 352 354 352 350 350 350 349 348 348 346
310 309 310 311 312 313 313 314 320 318 320 319 318 317 318 321 321 316 320 317 313 311 313 312 313 316 316 331 329 344 352 356 357 355 353 354 351 353 351 351 350 349 348 346 346
309 310 312 313 314 314 315 314 312 315 322 320 319 321 321 322 319 316 319 318 315 315 316 316 318 319 320 321 330 341 349 355 356 352 354 353 355 354 351 351 349 348 346 344 346
310 311 312 314 315 315 317 312 316 317 317 318 321 321 322 323 321 318 319 319 318 318 317 316 320 319 320 320 323 325 346 355 352 350 350 354 354 353 351 351 346 347 345 344 344
310 311 313 315 315 318 315 318 317 317 317 318 321 323 322 321 319 319 318 317 317 317 317 319 321 320 322 325 334 333 345 353 351 349 346 351 350 355 352 350 346 340 344 344 344
310 311 313 315 315 314 316 317 317 317 317 320 322 322 318 317 319 318 316 316 316 319 316 316 316 319 320 322 334 338 345 345 349 346 348 350 357 351 354 352 347 344 342 344 344
310 311 314 315 315 315 316 317 318 316 320 322 321 319 316 319 319 318 316 316 316 317 316 317 317 317 318 318 324 332 344 345 347 353 352 352 355 347 353 355 351 344 341 343 344
310 312 315 316 316 317 318 317 318 315 320 319 320 320 320 318 319 317 317 315 316 317 316 315 317 315 320 336 330 346 348 346 344 350 353 349 351 349 354 353 351 344 342 341 343
310 315 317 315 315 317 316 316 315 314 316 316 315 315 319 319 320 320 318 317 316 318 317 316 319 339 340 344 342 336 335 342 343 350 355 348 355 352 345 346 350 346 342 340 342
312 318 318 316 316 316 318 313 316 320 316 313 315 320 320 320 318 319 318 319 316 316 315 317 317 342 333 341 344 335 329 336 346 351 350 351 353 347 342 342 344 344 341 340 341
314 318 316 318 321 317 315 319 316 316 315 315 317 320 322 324 322 321 321 322 320 317 323 320 321 318 321 336 337 338 340 335 347 347 351 351 348 343 341 341 342 342 341 341 340
315 319 316 319 319 318 316 320 322 320 315 316 318 318 323 325 325 324 325 323 323 321 318 320 324 321 321 329 334 333 331 340 339 353 353 351 348 349 345 346 343 343 342 341 340
318 313 317 319 320 314 318 318 321 319 315 318 318 319 319 325 325 326 326 325 322 321 320 320 320 323 321 321 324 321 325 324 332 337 348 352 349 343 341 349 350 349 345 340 340
310 316 318 320 319 309 317 318 319 320 314 316 317 318 319 325 326 324 324 324 324 321 324 319 317 322 324 321 319 320 322 319 325 326 337 343 332 344 346 348 348 344 341 339 341
309 311 319 318 317 315 312 315 318 316 314 315 316 317 322 325 326 327 328 325 323 327 326 322 317 321 321 323 324 332 338 333 314 317 329 327 325 344 343 344 344 343 342 342 342
311 315 314 311 309 316 319 319 316 314 315 314 316 316 323 326 323 326 322 324 322 326 329 320 314 319 322 323 326 339 339 341 319 319 318 320 345 349 345 345 345 344 343 343 341
310 313 315 321 320 322 318 315 317 315 315 315 315 319 321 326 326 322 320 321 322 322 321 320 324 323 321 320 335 338 339 345 348 346 325 332 346 348 344 342 341 339 343 346 344
313 323 319 321 320 321 316 323 316 315 314 315 313 316 320 322 321 320 320 320 321 321 321 320 326 326 331 333 335 337 336 342 344 343 347 346 347 343 337 337 341 343 343 344 346
311 315 319 321 322 324 325 327 326 315 316 314 313 318 318 319 318 316 315 314 318 322 319 321 320 324 327 329 332 331 335 336 344 340 341 344 341 339 341 342 342 341 339 344 348